GFSNGP_sfc_thetae_003.txt.gz
Theta_e
288 289 289 288 288 289 288 287 283 285 286 290 292 292 293 293 293 293 292 293 293 290 289 288 287 287 286 287 287 288 287 287 288 289 289 289 288 288 288 289 289 288 286 284
284 289 289 285 287 287 288 288 288 288 287 292 293 294 292 293 292 291 292 293 293 291 288 287 286 286 287 286 287 288 286 288 289 289 289 289 289 288 291 289 288 283 282 282
278 283 283 278 285 289 288 290 289 284 290 292 292 293 291 291 291 291 292 292 291 288 286 286 286 286 285 286 287 287 286 288 289 289 288 288 288 289 287 286 282 282 281 281
276 276 272 285 291 292 290 291 291 291 292 293 293 293 292 292 291 291 290 291 290 286 285 285 285 285 285 285 285 286 286 288 288 288 287 287 287 287 286 288 286 280 280 281
274 275 280 285 291 291 289 289 293 291 291 292 292 290 289 292 292 291 291 290 288 285 284 284 284 285 284 284 284 285 285 287 287 287 287 286 286 286 285 284 280 280 281 280
277 271 270 282 292 295 293 283 295 293 291 291 290 281 288 292 292 292 291 287 286 285 284 284 284 284 284 284 284 284 285 286 287 287 286 286 285 284 284 279 281 280 280 278
271 270 279 287 293 295 283 284 295 294 293 291 289 289 291 293 293 290 286 285 286 285 284 284 285 286 285 284 284 285 286 286 286 286 285 284 284 282 280 280 279 278 278 276
278 272 277 292 293 287 291 292 295 294 294 293 292 292 294 294 287 285 285 284 284 284 284 285 285 285 284 283 285 285 285 285 284 284 283 283 280 279 279 278 277 275 269 271
284 284 291 293 294 295 295 295 294 294 295 295 293 293 293 285 284 284 284 283 284 283 284 285 285 284 283 284 285 285 284 283 283 282 282 281 279 278 277 276 273 274 275 269
287 292 292 294 296 298 297 296 296 296 296 295 294 292 286 284 285 283 283 282 283 283 282 283 284 285 285 285 285 283 283 283 283 282 282 280 279 279 277 273 273 276 273 271
288 292 294 296 298 298 298 297 297 297 297 296 291 285 285 285 284 283 283 283 283 282 282 283 284 284 284 284 284 282 282 284 282 281 280 278 278 278 278 278 277 274 272 272
285 293 294 293 297 299 297 296 297 296 292 288 287 285 285 283 284 283 283 283 282 282 283 283 284 283 283 283 283 283 284 283 282 283 280 279 280 279 282 282 282 282 281 272
294 296 295 296 298 298 297 297 298 290 287 287 287 286 285 284 284 284 283 283 282 283 283 283 282 282 282 283 282 284 281 283 284 283 280 279 279 276 271 276 281 282 282 280
298 298 293 295 295 298 295 292 291 288 288 287 287 286 285 283 284 284 283 283 283 283 282 281 282 283 284 283 285 284 283 282 280 280 280 280 279 278 272 270 268 270 276 281
298 299 297 298 296 291 289 288 287 286 286 286 286 284 283 283 283 283 283 283 283 282 282 282 283 283 283 285 285 284 283 280 279 274 275 279 279 275 273 271 269 269 269 273
297 296 296 293 290 289 288 288 286 284 285 285 283 283 283 284 283 283 283 283 279 280 280 279 281 282 284 285 285 285 283 281 278 276 277 278 276 274 274 271 270 269 268 268
290 287 286 286 288 289 289 288 287 286 286 283 283 282 284 279 278 281 281 279 274 275 277 278 279 284 284 285 285 285 283 282 279 279 275 274 272 272 275 271 271 267 269 266
291 291 291 291 289 287 286 287 286 284 283 284 277 274 273 272 276 277 276 276 273 275 278 280 280 283 284 285 286 284 282 279 280 279 279 270 271 270 269 272 273 268 269 268
290 289 288 288 289 287 286 284 282 282 277 275 274 277 275 275 276 276 275 271 274 275 280 277 280 282 283 283 284 283 281 278 275 273 272 270 265 267 267 272 275 269 272 270
287 288 288 286 284 281 282 281 280 281 283 278 273 270 276 276 272 272 271 275 278 281 280 279 280 283 282 283 284 283 282 279 275 273 265 266 265 267 268 271 273 273 270 268
286 284 282 282 281 280 280 279 277 279 280 273 277 274 278 279 281 281 278 278 280 278 279 280 283 284 284 284 285 285 283 279 275 276 276 273 272 271 271 273 274 275 273 269
284 282 279 279 279 280 279 277 280 280 278 275 276 276 276 280 274 282 280 279 281 277 278 279 282 284 284 284 285 285 284 281 281 281 278 277 276 276 276 275 275 274 276 275
284 283 282 279 279 281 280 278 277 277 277 277 276 277 276 279 281 282 281 280 278 277 278 279 281 281 284 285 285 285 284 283 282 281 280 280 279 277 277 276 277 277 279 279
283 284 282 279 276 279 279 283 280 280 276 278 278 276 276 283 285 284 284 280 276 277 281 284 284 284 285 285 285 285 284 283 283 283 282 282 281 280 279 278 278 278 277 276
281 282 280 278 280 281 283 283 281 280 279 279 281 280 283 285 284 281 277 280 282 282 283 283 283 283 283 285 284 284 284 284 283 282 282 281 280 280 280 280 280 280 279 279
284 281 280 283 281 281 281 279 277 281 282 281 281 278 277 277 278 278 282 282 281 280 282 282 282 280 277 276 277 278 280 282 283 283 283 282 282 281 281 282 281 281 280 281
280 278 280 280 281 281 280 282 283 283 283 281 280 282 282 281 279 279 281 277 276 279 277 274 272 269 270 268 267 268 269 270 270 271 273 277 281 282 282 282 282 282 281 281

GFSNGP_sfc_thetae_006.txt.gz
Theta_e
286 288 287 286 286 288 286 285 282 284 284 287 291 290 292 292 292 291 291 291 291 289 286 288 288 287 286 286 286 286 286 285 286 287 287 287 287 287 287 287 290 287 287 284
284 287 287 285 286 286 287 286 286 285 286 292 292 292 291 292 291 291 291 292 292 290 289 288 287 286 285 285 286 286 286 285 287 288 288 287 287 287 287 290 288 283 280 281
277 282 281 278 284 286 286 287 287 284 288 291 290 292 292 291 291 291 291 292 292 291 289 287 286 285 285 285 285 285 285 286 287 287 287 286 286 286 286 285 284 282 281 281
275 276 271 284 288 289 288 290 291 289 290 292 292 292 293 292 292 291 291 291 291 290 286 285 284 284 284 284 284 284 284 285 286 286 285 285 285 285 285 285 284 280 280 280
275 274 280 284 290 289 288 287 292 291 290 291 291 291 291 293 292 292 291 290 290 288 284 283 283 284 283 283 283 284 284 284 285 285 285 285 284 284 284 284 282 280 280 279
272 271 271 283 288 293 291 283 293 292 290 290 290 283 291 292 292 291 291 289 286 284 284 283 283 283 283 283 283 283 284 284 285 285 284 284 283 283 282 280 280 280 279 277
270 270 278 286 292 293 283 284 293 293 292 290 288 291 291 291 291 290 287 285 285 285 284 283 284 284 283 283 283 284 284 284 284 284 283 283 282 281 279 279 278 277 277 276
275 270 276 290 291 287 291 289 293 293 292 292 291 290 291 292 287 285 285 285 284 284 284 284 284 283 282 282 284 284 284 283 283 283 283 283 280 278 279 277 276 274 269 272
282 282 289 291 291 293 293 292 293 294 294 295 292 292 293 286 286 284 284 284 284 284 284 284 283 283 282 283 283 283 283 283 283 282 282 282 279 278 277 276 273 273 275 270
285 290 291 292 294 296 296 295 295 295 295 294 293 293 288 284 284 284 283 284 283 283 282 282 283 283 283 283 283 282 283 282 282 281 282 282 280 279 278 273 272 275 273 272
286 291 291 294 296 296 297 297 296 296 296 295 293 287 286 285 285 284 284 284 283 282 282 282 283 283 283 282 282 282 283 283 282 280 281 281 279 279 278 277 276 274 273 272
285 292 292 292 295 296 296 297 296 295 293 289 289 286 286 285 285 284 283 283 283 282 282 282 282 282 282 282 282 281 283 283 282 283 284 281 280 280 282 282 282 282 282 273
292 293 294 294 296 297 297 296 296 293 288 286 287 287 286 285 285 285 284 283 282 282 282 282 281 281 282 282 281 283 283 283 283 283 283 280 278 277 273 277 281 283 283 283
297 296 293 294 295 295 296 293 289 287 288 287 286 286 286 284 284 284 283 283 283 283 282 281 281 281 282 282 282 283 284 282 282 281 280 280 279 277 275 272 269 271 276 281
297 297 295 295 291 287 288 287 286 286 286 286 287 287 285 283 283 283 284 283 283 282 282 282 281 281 282 282 282 284 284 283 281 279 273 273 276 274 274 273 273 271 268 272
293 294 292 287 286 287 287 287 286 285 285 287 288 284 283 284 284 284 283 283 280 280 281 276 276 281 282 282 282 284 285 283 281 279 278 274 272 275 275 274 273 273 269 269
289 287 286 286 286 287 287 287 286 286 288 287 284 283 283 282 280 282 282 279 276 275 276 276 278 281 282 283 284 285 285 284 281 277 278 279 277 274 273 271 274 272 270 266
290 290 291 290 288 287 286 287 287 287 285 284 281 278 277 276 279 278 277 274 272 275 277 279 279 280 282 284 284 282 283 283 281 280 279 278 279 277 272 271 272 272 273 266
290 289 289 290 290 288 287 285 283 282 279 279 277 279 278 277 274 277 273 271 271 273 280 278 280 279 282 283 282 282 283 282 281 279 279 275 269 271 271 269 270 271 272 271
289 290 288 284 283 282 282 281 281 282 283 279 277 276 277 277 272 270 272 277 278 279 278 279 278 278 281 283 282 283 284 283 282 278 277 272 269 269 270 268 271 273 272 273
284 283 281 281 281 280 280 280 278 280 280 276 277 277 276 277 274 279 280 279 280 277 278 276 277 279 281 284 283 284 284 284 282 279 277 276 276 275 274 275 275 275 276 275
283 282 281 280 278 280 280 278 279 279 278 276 274 274 273 277 276 275 280 282 284 278 276 275 277 277 281 283 283 284 284 284 283 281 279 279 279 279 279 278 278 278 278 276
283 282 281 279 278 279 279 277 275 275 275 276 276 277 275 279 276 278 281 281 280 276 276 277 280 281 282 282 284 284 284 284 283 283 281 281 281 281 280 280 280 280 279 278
282 283 280 278 277 279 280 283 281 279 274 277 276 275 274 276 278 279 282 281 276 280 281 282 282 282 277 283 283 284 283 283 282 282 281 280 281 281 281 280 280 280 280 280
280 281 279 279 280 280 280 281 279 279 280 281 282 282 279 277 282 284 284 281 281 282 282 278 279 278 275 273 270 274 274 277 277 276 278 280 281 281 280 280 279 280 280 280
281 280 279 280 280 280 279 280 279 281 282 281 282 283 282 280 277 278 281 281 280 281 280 279 272 269 267 267 265 265 266 267 266 266 266 267 269 270 273 276 280 281 281 281
280 280 279 278 278 278 277 277 277 277 278 280 280 282 282 282 283 283 284 283 282 279 274 271 268 267 267 266 265 264 264 263 263 264 264 263 264 264 265 266 267 272 280 281

GFSNGP_sfc_thetae_009.txt.gz
Theta_e
289 290 291 290 291 290 289 290 289 289 288 292 296 297 296 296 296 295 295 295 295 294 293 293 292 293 294 293 293 293 292 291 292 293 294 294 293 293 293 294 295 293 290 288
288 289 289 289 290 290 290 290 289 290 290 296 296 297 295 295 295 295 295 296 296 295 293 292 293 294 292 292 292 292 291 291 292 292 293 293 292 292 293 293 293 290 289 288
283 285 285 284 288 290 290 291 293 289 295 296 294 295 296 296 296 295 296 296 295 295 295 294 293 293 292 291 291 290 290 291 291 291 292 292 291 291 291 292 293 292 288 288
284 281 281 290 293 292 291 292 293 293 294 296 296 296 297 298 297 297 296 296 296 296 295 294 292 291 291 290 289 289 289 290 290 291 290 291 290 290 291 291 291 291 288 287
284 282 284 288 289 292 291 292 296 294 295 295 295 296 297 298 299 299 298 297 296 296 295 290 290 290 289 289 289 289 289 289 290 290 290 290 289 290 290 290 290 288 287 285
281 282 280 288 290 297 296 289 296 297 295 294 296 293 298 299 299 297 297 295 294 291 289 289 288 289 289 288 288 288 289 289 289 290 289 289 289 289 289 289 285 286 284 283
277 283 285 290 294 296 288 291 295 297 296 295 295 300 298 297 296 297 294 289 288 289 288 289 289 289 287 287 287 288 289 289 289 290 289 289 289 288 287 286 285 284 282 282
278 280 282 292 295 292 297 297 297 297 297 297 299 295 295 295 292 290 288 288 288 288 288 288 288 288 287 287 288 288 288 288 289 289 288 288 287 287 285 285 284 282 281 281
287 288 294 294 297 298 297 297 298 298 299 299 296 295 295 291 288 288 287 287 288 288 287 287 287 288 286 287 288 287 287 288 288 288 287 287 287 286 284 284 283 282 281 281
290 293 292 294 297 298 299 299 299 300 300 298 297 296 292 287 287 287 287 287 287 286 285 285 287 287 287 287 287 286 286 287 288 287 286 287 287 285 284 283 283 282 282 281
290 293 295 296 298 301 300 300 300 300 300 299 298 294 289 287 286 285 286 287 286 285 285 285 286 286 287 286 286 285 286 286 285 285 285 286 287 285 284 284 284 284 283 282
291 297 297 297 298 300 300 300 301 300 297 295 295 291 288 286 287 289 288 286 285 285 285 285 286 286 286 286 286 285 285 286 285 285 285 285 286 285 284 283 282 283 282 282
297 298 298 299 298 301 300 300 299 297 293 289 289 288 288 289 289 288 286 285 285 285 286 285 285 285 285 285 285 285 285 286 286 285 285 285 285 284 283 284 282 283 284 284
299 299 298 299 298 296 292 289 289 289 289 289 289 291 290 289 287 286 285 286 286 286 285 285 285 285 286 286 286 285 286 285 286 286 286 285 286 285 284 283 282 283 283 282
298 299 297 291 290 288 289 289 288 288 289 290 290 289 288 286 285 285 286 286 285 285 285 285 284 285 286 286 285 285 286 287 287 286 286 284 283 283 283 283 282 282 283 280
291 290 289 287 287 288 289 289 287 287 288 289 289 289 288 286 285 286 286 286 283 284 286 283 281 285 286 286 285 286 287 285 285 286 286 284 283 283 283 283 283 283 282 283
290 286 287 287 286 287 287 289 289 288 289 290 289 287 286 284 283 285 284 283 283 282 282 281 282 285 285 285 286 287 286 286 285 285 284 285 284 283 283 284 283 283 283 284
291 291 290 289 288 287 288 289 289 289 289 288 284 283 282 281 283 283 282 281 279 279 281 283 283 284 284 286 286 286 285 285 285 284 284 284 284 284 284 283 282 282 282 283
291 290 290 289 290 289 289 288 286 285 283 283 282 283 282 281 281 281 281 278 278 279 284 284 283 283 284 284 284 285 285 285 285 284 284 283 283 283 283 282 282 282 282 282
290 290 288 286 284 283 284 283 283 284 284 282 281 281 282 282 280 279 279 279 282 284 284 284 283 283 284 284 283 286 285 285 285 284 284 283 282 282 282 280 281 281 282 282
285 285 284 284 283 283 283 282 281 283 282 280 280 281 280 281 280 278 281 282 285 283 283 281 283 285 285 284 285 285 285 285 285 284 284 284 282 281 282 282 282 281 282 282
286 284 281 281 279 282 281 281 282 281 281 280 279 277 276 279 281 280 279 282 287 282 284 285 285 284 284 283 285 284 284 284 285 285 284 284 283 283 283 283 283 283 283 283
285 284 283 281 280 281 282 282 279 280 278 279 279 280 281 282 283 282 283 286 285 285 284 285 284 283 282 284 285 285 284 284 284 284 284 284 284 284 283 283 284 284 284 284
284 283 282 280 280 281 279 280 280 281 281 282 283 283 281 280 281 284 285 284 284 283 284 285 285 283 282 284 281 279 278 279 278 277 277 277 278 280 282 283 283 284 283 283
281 281 280 280 279 278 278 278 279 280 280 280 281 282 282 283 281 282 282 283 283 284 283 284 280 275 277 276 274 273 273 272 271 271 271 271 271 271 272 273 273 274 276 282
280 279 279 279 278 277 276 275 275 277 276 276 278 280 281 281 281 282 283 283 284 284 283 276 275 273 272 271 271 269 269 269 269 269 268 268 268 268 268 268 268 269 270 272
278 276 276 276 274 273 272 272 271 272 273 274 273 275 276 277 278 278 278 280 282 278 274 272 270 269 269 269 268 268 268 267 266 266 266 266 266 266 266 266 266 267 268 270

GFSNGP_sfc_thetae_012.txt.gz
Theta_e
295 295 295 296 297 297 295 296 292 294 294 297 300 302 305 306 306 306 304 303 303 302 302 301 300 301 300 301 300 299 297 296 297 297 298 297 297 296 296 296 296 296 295 294
293 294 294 293 296 298 297 297 296 296 296 303 304 304 304 304 304 303 302 303 303 303 302 300 300 299 300 300 298 298 296 296 297 297 296 296 296 296 295 295 295 295 295 294
290 291 292 290 294 296 297 299 298 294 299 302 301 302 303 304 303 303 303 303 303 303 302 300 299 300 300 298 298 296 295 295 295 295 294 295 295 295 294 294 295 294 295 294
292 287 285 294 297 297 298 298 300 299 300 301 302 304 304 306 305 304 304 304 305 304 302 301 299 300 300 297 295 294 294 294 294 293 293 294 294 294 294 294 294 293 293 293
291 289 292 293 294 294 295 295 301 300 301 301 302 302 304 305 307 307 306 306 306 305 303 300 299 298 296 294 294 293 292 292 292 293 293 293 293 293 294 293 293 293 292 291
289 289 287 294 295 301 300 292 301 302 302 301 301 299 301 307 307 306 307 307 305 303 300 298 296 294 294 294 292 290 291 291 292 292 292 292 292 293 294 293 292 291 289 290
290 290 292 296 298 301 290 293 302 303 304 303 302 305 305 306 307 307 307 305 302 298 296 295 294 294 292 291 289 291 291 292 291 292 292 292 292 293 293 292 290 290 287 288
288 288 287 297 299 295 302 304 303 303 305 305 306 305 303 302 304 305 303 299 297 294 293 291 293 292 290 289 291 291 291 291 291 292 291 291 292 292 292 291 289 288 287 287
295 296 299 301 304 305 304 304 304 305 305 305 305 305 303 301 300 300 298 295 291 290 290 292 291 290 289 290 291 291 291 290 291 291 291 291 291 291 291 290 288 288 287 287
295 298 299 301 303 304 304 304 305 306 305 306 305 306 303 300 297 296 293 290 292 289 290 288 289 290 290 291 291 290 289 290 290 289 288 290 291 291 290 289 288 287 286 286
297 300 301 302 303 304 305 306 306 307 307 306 306 305 303 298 295 293 288 289 290 289 288 288 289 289 290 290 290 288 289 289 289 288 287 287 287 288 289 290 288 288 288 287
297 301 302 302 303 305 305 305 306 306 305 302 303 302 299 294 290 292 290 288 287 287 287 288 288 288 289 289 289 289 287 288 289 289 288 287 286 287 286 284 284 284 283 284
300 303 303 304 305 305 304 301 300 299 299 295 295 294 292 292 290 289 290 290 288 287 288 288 288 288 289 289 289 287 287 288 289 288 289 287 286 285 285 287 284 284 284 284
304 304 302 302 300 298 296 294 294 294 296 295 293 293 290 289 289 288 289 289 288 288 288 288 288 288 289 289 289 288 289 286 289 288 289 289 287 287 286 285 285 287 285 284
300 303 299 297 294 292 293 293 292 291 290 289 290 290 290 290 290 290 290 289 288 288 288 288 288 288 290 290 289 289 288 289 289 288 287 287 288 288 287 286 285 285 286 284
296 296 294 290 290 291 291 290 288 288 289 290 290 292 292 291 289 288 288 289 286 287 288 288 287 288 290 291 289 289 289 286 286 288 285 285 287 286 286 286 285 285 285 285
293 291 290 289 290 290 289 290 291 292 292 293 293 293 292 290 287 287 288 288 287 286 287 287 287 290 290 290 290 290 290 289 286 287 287 287 287 286 286 286 286 286 287 287
295 294 292 290 289 290 291 292 293 292 291 290 286 285 285 285 286 286 287 287 285 285 286 287 288 289 290 291 290 290 289 288 288 288 287 288 286 287 287 286 286 286 287 286
293 292 293 293 293 293 291 289 287 286 286 286 285 285 285 285 286 286 286 284 284 285 289 290 286 285 288 289 287 289 289 287 287 287 287 286 285 284 285 286 286 286 286 286
292 292 290 288 288 287 287 286 287 288 288 286 285 285 286 286 285 284 285 284 287 289 289 289 288 288 288 288 285 288 289 288 287 287 287 287 286 285 285 284 285 285 285 285
288 288 287 286 286 285 285 285 285 285 286 284 284 284 283 284 285 285 285 288 290 291 289 286 288 289 290 288 288 289 288 286 286 286 285 285 286 285 285 285 284 284 285 285
290 288 286 286 286 286 285 285 285 284 283 283 283 283 282 283 283 284 286 286 289 286 288 287 288 288 288 285 288 287 285 285 286 286 285 286 285 285 285 285 284 285 285 285
288 287 286 284 284 285 284 282 282 282 282 282 282 282 282 282 282 281 280 285 284 284 285 285 285 285 285 285 285 285 285 285 284 283 283 282 282 283 283 284 284 284 284 285
287 286 284 283 282 282 281 281 281 282 282 282 283 282 283 282 282 284 284 283 283 283 284 285 285 284 284 285 285 284 282 281 280 279 278 277 278 278 278 278 278 279 280 280
283 282 282 281 281 280 279 279 280 280 279 280 280 281 281 281 280 282 282 282 281 282 284 284 280 279 281 280 279 277 278 277 275 275 275 275 274 274 275 275 274 275 275 276
282 282 282 279 278 278 278 278 277 278 277 277 278 279 279 279 279 279 279 278 277 276 276 276 274 275 274 274 273 273 274 273 273 273 271 272 271 271 271 271 271 272 273 273
278 278 279 279 277 276 275 275 275 275 275 275 274 276 277 276 276 275 274 275 274 274 274 273 272 270 270 270 270 270 271 271 269 268 269 269 268 269 268 268 269 270 270 271

GFSNGP_sfc_thetae_015.txt.gz
Theta_e
301 300 299 299 299 299 297 298 295 296 296 299 301 303 305 307 308 309 311 312 312 310 308 308 307 305 304 305 305 302 300 299 299 300 299 299 298 298 297 297 296 296 296 295
297 300 299 297 299 298 299 299 298 298 297 304 305 305 305 306 307 307 309 310 310 309 308 307 305 304 304 304 302 301 299 298 299 298 298 297 297 297 297 296 296 296 295 295
291 296 296 291 297 298 299 301 300 296 301 304 303 303 304 305 307 307 308 309 309 308 308 307 306 304 303 302 302 300 299 298 297 297 296 296 295 295 295 295 296 295 295 294
293 289 284 296 301 300 299 301 302 302 302 303 303 306 307 308 308 308 308 309 309 309 309 309 307 304 303 302 300 298 297 296 296 295 293 294 294 294 295 296 295 294 293 294
292 290 294 295 297 296 296 296 301 301 302 303 305 306 306 309 309 309 309 310 310 311 310 309 305 304 301 299 297 295 295 295 293 293 293 293 293 294 295 295 294 294 293 292
292 289 286 296 299 303 302 293 302 302 301 302 304 300 301 308 308 309 310 311 310 311 310 307 304 302 298 297 297 295 294 292 293 293 293 292 293 294 294 294 293 293 292 292
293 292 295 300 300 303 291 295 303 304 303 303 302 304 308 309 309 310 310 310 311 310 307 305 301 297 298 295 294 292 293 293 292 293 293 293 293 293 293 293 293 292 290 291
295 289 287 301 301 296 304 305 305 305 305 306 307 308 309 308 307 308 308 309 307 304 300 298 298 297 293 291 292 292 292 292 292 293 292 292 292 292 293 293 292 291 289 290
297 298 303 304 303 306 307 305 306 306 307 307 306 306 307 307 306 306 307 304 301 296 294 295 293 291 289 291 292 292 292 291 292 292 292 292 291 291 291 292 291 289 288 288
297 300 301 303 305 306 306 306 307 308 308 308 307 308 308 308 305 303 301 296 296 295 292 289 291 291 291 291 291 291 290 289 290 290 289 289 290 291 291 291 290 288 288 287
299 302 302 304 305 306 307 308 308 309 309 308 307 307 307 305 301 298 295 294 293 290 289 289 290 290 291 291 290 289 289 289 289 290 290 290 290 289 289 291 289 289 289 289
298 304 303 304 306 308 307 307 307 306 306 303 304 304 303 296 296 294 291 291 290 289 290 289 290 290 290 291 290 288 288 288 289 290 290 290 289 288 288 287 287 285 284 286
303 306 306 306 307 305 303 302 301 300 299 297 297 297 296 291 291 290 290 290 290 290 290 290 290 290 291 291 290 289 288 288 289 289 290 289 288 287 285 287 286 285 285 284
306 307 305 302 300 300 300 299 297 296 295 294 293 292 291 290 290 290 291 292 291 291 290 290 290 290 291 291 290 289 289 286 290 290 290 289 289 289 288 286 286 287 286 285
302 303 301 299 298 297 296 293 291 290 291 292 294 293 293 292 291 292 292 292 291 290 290 291 290 290 293 292 291 290 290 290 291 291 290 288 287 286 288 288 287 287 287 285
300 299 298 295 294 292 291 291 291 292 293 293 293 292 293 293 292 291 291 291 289 289 290 287 289 292 293 292 292 292 291 288 287 289 289 288 287 287 287 287 287 286 287 286
294 292 293 291 291 291 292 293 293 293 293 293 293 289 290 289 289 290 290 291 290 286 288 288 288 292 292 293 292 292 293 292 287 289 288 287 288 287 286 287 287 286 286 287
298 296 295 294 293 292 292 293 291 290 289 289 286 285 285 285 285 287 288 289 286 286 289 290 291 291 291 292 293 293 292 290 290 289 289 287 288 288 287 287 287 286 287 287
295 294 294 293 294 291 290 289 288 287 286 285 285 284 284 285 287 287 287 285 285 287 291 292 287 287 290 290 289 292 291 289 289 288 288 287 287 287 286 286 286 286 287 287
293 293 292 290 289 289 288 286 287 289 290 286 285 285 284 285 285 285 285 285 288 290 290 289 289 290 290 290 287 290 290 289 289 288 288 287 286 286 286 285 286 286 286 286
290 289 288 287 285 285 285 285 285 284 287 284 283 282 282 283 283 283 284 284 287 287 285 285 285 286 287 288 288 288 288 287 287 287 286 285 285 285 286 286 285 285 285 285
291 288 286 287 286 285 284 284 284 283 283 283 283 283 282 284 284 284 285 284 286 283 284 285 286 285 285 284 286 285 285 285 286 286 286 285 285 283 282 284 284 284 285 285
290 288 286 284 285 284 284 283 284 283 282 282 282 281 282 283 284 281 281 283 283 283 283 284 283 282 283 285 285 285 285 284 285 284 282 281 280 280 280 281 281 281 281 281
289 286 284 284 285 283 282 282 282 283 282 283 283 281 281 280 281 282 282 281 280 279 280 279 277 277 279 281 280 280 281 280 279 278 278 278 278 277 277 277 277 277 277 277
285 284 284 284 283 283 281 281 282 282 281 280 280 280 280 281 279 279 279 278 277 277 276 276 275 274 276 276 276 275 275 276 275 275 274 275 274 274 274 274 274 274 274 275
286 286 283 281 281 281 280 280 279 280 279 278 278 279 280 279 278 277 277 276 276 275 275 275 274 273 273 273 273 272 272 272 271 271 271 271 271 271 271 271 271 271 272 272
281 282 282 282 280 279 278 278 277 277 278 276 275 278 278 277 276 275 275 275 274 274 273 273 273 272 271 271 271 271 270 270 269 269 269 268 268 269 268 268 269 269 270 271

GFSNGP_sfc_thetae_018.txt.gz
Theta_e
299 300 300 300 299 299 297 298 293 296 296 299 301 303 305 307 308 307 308 311 312 313 312 310 310 308 307 305 305 304 303 299 300 300 299 298 298 298 297 296 295 295 294 294
299 300 300 297 299 299 298 298 298 298 297 303 305 305 305 305 306 307 306 309 312 313 312 310 309 308 306 304 304 305 300 299 300 298 298 297 296 297 296 296 295 294 293 294
293 296 295 290 297 298 299 300 299 294 300 304 303 303 305 305 305 307 307 308 310 311 312 310 309 308 305 304 305 302 300 299 299 298 296 296 296 295 294 294 294 294 293 293
294 290 285 295 302 301 299 300 301 300 302 303 304 305 305 307 306 307 309 308 310 310 311 310 310 308 305 304 303 300 298 297 297 297 294 294 294 293 294 294 293 292 292 292
291 290 293 295 298 297 296 296 301 300 301 303 304 304 305 308 309 308 308 308 309 310 311 310 309 308 303 302 300 298 296 296 295 294 293 293 292 292 293 293 292 292 292 291
293 290 286 298 300 303 302 292 301 302 302 302 303 299 302 308 309 309 308 309 309 310 310 309 308 305 301 298 295 295 294 293 293 293 292 291 292 292 292 292 292 292 290 290
293 291 295 300 301 303 291 295 304 304 303 304 302 304 308 310 308 308 309 309 311 309 302 302 299 298 296 295 293 292 293 293 292 292 292 292 292 291 291 290 290 288 286 287
296 288 286 302 300 296 305 308 306 306 306 307 307 307 307 308 308 307 306 308 304 295 294 296 296 295 292 291 292 293 293 292 292 292 292 292 291 290 290 290 288 287 286 285
297 297 306 305 304 307 308 307 306 306 306 307 306 306 307 307 307 305 304 298 296 294 293 292 292 292 291 291 293 293 291 291 290 291 291 291 288 287 287 288 287 286 285 284
301 300 301 304 305 306 306 306 307 308 308 308 307 307 307 307 304 299 297 295 294 292 290 290 291 291 291 291 291 291 289 289 290 289 289 289 288 288 287 285 286 285 284 284
299 302 303 304 306 307 307 308 308 309 307 304 304 305 305 297 295 294 293 292 291 290 290 290 291 291 291 291 291 289 289 289 289 287 288 288 289 288 285 286 285 284 284 285
299 304 304 304 307 307 306 304 304 303 300 299 299 296 295 294 293 291 290 290 290 290 290 290 290 290 291 291 291 289 287 287 287 287 287 288 288 287 288 287 287 287 286 284
303 306 306 306 304 302 300 300 300 299 298 295 294 293 293 291 291 290 290 291 290 290 291 291 290 290 291 291 290 288 286 287 286 286 287 286 285 285 285 287 287 287 286 286
306 305 302 302 298 300 298 296 295 294 294 293 293 293 291 291 291 292 292 292 292 291 291 290 290 290 291 292 291 288 287 286 286 287 287 286 285 285 284 283 283 285 286 285
302 302 300 300 298 296 295 294 292 291 292 292 294 293 293 292 291 291 292 291 291 291 290 290 290 290 292 292 291 288 288 288 288 287 286 286 286 285 284 283 284 284 285 284
300 300 299 296 293 292 292 293 292 292 292 293 291 291 291 292 291 291 291 290 287 287 288 283 284 288 291 292 291 290 290 287 286 288 288 287 286 285 285 284 284 284 284 284
295 293 293 291 291 292 292 293 292 291 290 288 287 286 287 286 288 288 288 288 286 285 285 286 286 291 289 292 291 290 290 290 287 287 287 286 286 286 285 285 284 284 284 285
299 297 295 294 293 292 291 289 288 288 286 287 284 284 283 283 283 284 285 286 285 285 286 288 287 288 289 290 290 288 288 288 288 288 287 287 287 286 285 284 284 284 284 284
296 294 294 292 291 290 288 287 286 285 284 284 284 283 283 283 283 283 283 284 284 285 285 285 284 285 286 287 286 287 286 286 287 287 287 287 286 285 284 284 283 284 284 283
292 291 290 289 288 286 285 285 287 287 285 283 284 283 282 281 281 279 281 282 284 283 283 283 283 283 283 284 283 283 283 283 283 285 286 286 285 284 282 280 282 284 284 284
289 288 286 284 284 284 284 284 283 282 283 280 279 278 278 281 281 279 281 281 283 282 281 281 281 279 279 279 279 282 283 283 283 283 284 284 285 284 280 280 281 283 284 284
288 286 285 284 284 282 283 284 283 281 281 278 277 276 277 280 280 281 279 280 281 277 278 280 278 274 275 275 280 280 280 279 280 281 282 282 283 281 279 280 279 279 280 280
288 286 285 284 284 283 283 282 281 280 278 278 277 278 279 279 280 278 277 279 279 276 277 277 274 272 273 276 276 275 275 275 274 275 275 276 277 276 276 276 276 276 276 276
287 285 284 284 284 284 282 281 283 282 279 280 279 277 279 278 279 280 279 277 275 275 275 276 273 271 272 274 273 273 272 273 271 271 271 272 273 272 273 273 272 272 272 272
284 284 284 284 284 282 282 281 282 281 280 280 280 279 279 280 277 277 277 276 275 274 274 274 274 271 272 272 271 271 270 271 269 269 269 269 269 269 270 269 269 269 269 270
286 285 282 281 281 280 279 279 278 279 278 278 277 278 279 278 277 276 276 274 274 273 273 273 272 272 271 270 270 269 269 269 267 267 267 267 266 267 267 266 266 267 267 268
282 283 282 281 279 279 277 277 277 275 277 275 274 276 277 277 276 274 273 273 273 272 271 271 271 270 269 269 268 268 267 267 266 266 265 265 265 264 264 265 265 266 267 267

GFSNGP_sfc_thetae_021.txt.gz
Theta_e
296 298 298 296 297 297 293 293 287 290 292 295 295 296 297 300 301 301 302 305 306 306 306 306 306 304 304 302 300 298 297 297 297 299 297 296 295 295 294 294 293 293 292 292
290 297 296 293 295 295 295 295 293 293 292 296 298 298 298 298 301 300 301 302 305 307 307 306 306 304 304 301 300 299 298 298 298 297 296 295 294 293 293 294 293 293 292 292
285 291 290 283 290 294 295 296 294 288 293 298 297 298 298 298 300 300 301 302 304 306 307 305 305 305 301 300 301 299 298 298 298 295 294 293 293 293 292 291 291 292 291 291
282 283 275 291 298 296 295 295 295 295 297 297 297 298 301 300 300 301 302 303 303 304 305 305 304 303 300 300 300 298 296 294 294 293 292 292 292 291 291 291 291 290 290 290
281 281 287 291 295 294 292 291 296 295 296 297 299 298 299 303 302 301 301 301 302 303 305 304 302 301 299 298 296 295 292 292 292 293 292 292 291 290 291 290 290 290 291 289
282 279 275 289 296 299 297 285 298 298 297 297 297 286 295 302 303 302 303 299 296 296 294 295 296 297 294 292 292 291 292 292 292 292 292 291 291 290 290 289 289 289 289 288
278 277 285 298 298 299 283 286 299 299 298 298 296 297 301 303 303 301 297 294 293 293 292 291 293 293 291 290 290 292 292 292 292 292 292 291 290 290 289 288 288 286 285 284
283 282 281 300 297 289 296 298 299 298 298 298 300 301 302 303 300 295 292 292 291 289 289 292 292 292 290 290 292 293 293 292 292 292 291 291 289 288 287 286 284 284 283 283
289 287 298 298 298 302 300 298 298 299 301 302 302 302 303 298 292 292 291 289 290 290 290 291 292 292 290 291 292 292 291 290 290 290 290 289 287 285 284 284 281 282 282 279
291 296 298 298 299 301 303 302 303 303 302 302 300 297 293 292 291 291 290 289 291 290 289 288 290 290 291 290 290 289 287 287 288 287 287 287 286 286 284 280 279 281 281 282
293 296 299 301 302 303 302 303 298 297 296 296 294 292 292 291 290 290 290 290 290 289 289 289 290 289 289 289 288 286 286 286 286 283 284 285 285 284 283 283 283 280 280 281
285 299 298 298 300 301 298 297 297 295 293 293 293 291 291 290 290 289 288 289 289 288 287 288 288 288 288 288 287 286 285 283 282 282 282 284 284 283 286 286 286 287 286 282
299 302 299 297 297 297 295 294 295 293 293 291 291 291 290 288 287 288 289 288 288 288 288 287 287 286 287 287 287 285 283 283 282 282 282 282 281 281 278 282 287 286 287 287
301 300 296 297 293 294 293 292 293 292 292 291 290 291 288 287 288 289 289 290 289 288 287 287 286 286 287 288 287 285 284 284 283 282 282 283 284 284 284 283 280 281 283 285
297 298 296 294 293 292 293 292 291 289 291 289 290 289 289 289 288 288 288 288 287 287 286 286 284 284 287 288 288 285 284 282 283 283 283 283 285 286 285 284 281 280 281 280
297 295 293 291 291 290 292 291 289 289 287 286 285 286 287 288 287 287 287 285 282 281 282 281 283 285 288 288 287 287 285 283 283 284 284 286 286 285 285 283 282 281 281 281
290 288 290 290 290 290 290 290 287 287 286 283 283 282 284 283 283 283 283 283 283 282 283 283 282 285 286 287 286 285 285 285 284 285 285 286 285 284 284 283 284 283 283 281
296 294 293 292 290 287 287 286 284 283 282 284 283 283 282 281 281 281 280 279 281 283 282 282 282 282 283 283 282 282 281 281 281 282 283 283 285 285 286 285 284 282 280 277
293 292 291 290 289 287 285 283 282 282 283 283 282 281 279 276 277 277 278 274 278 278 279 280 280 278 277 278 277 276 277 277 278 279 280 280 281 283 283 284 284 281 276 282
289 289 288 286 285 285 284 285 282 282 282 280 276 274 274 273 272 271 273 277 278 278 278 278 277 275 274 275 274 276 277 277 276 277 278 279 280 281 281 282 280 278 278 282
285 284 283 283 283 283 283 282 279 279 281 275 275 271 270 273 272 269 274 276 276 275 276 275 274 272 273 272 274 273 273 273 273 273 274 273 275 276 276 276 276 277 276 276
285 283 282 282 281 281 280 280 280 278 277 274 269 269 270 275 271 273 269 274 276 269 273 274 273 267 270 269 272 270 270 271 268 270 269 270 271 271 272 272 272 273 272 272
285 284 283 281 280 280 280 278 276 275 272 270 269 270 271 274 274 272 271 275 274 270 273 271 267 265 265 267 268 269 268 269 266 266 266 268 268 268 269 268 268 268 268 269
284 284 283 283 280 279 279 280 279 277 271 275 270 267 274 268 266 274 272 269 265 265 266 268 267 265 262 261 264 267 266 267 265 265 264 265 265 266 266 266 266 266 266 267
283 283 282 280 280 278 279 279 278 277 277 277 276 277 275 274 267 267 265 265 268 266 263 263 264 264 261 259 260 265 265 265 263 263 262 263 262 263 263 264 264 264 265 265
282 280 279 279 277 276 277 276 274 274 273 269 269 265 267 267 268 267 265 264 265 265 262 259 259 260 261 259 259 258 258 263 260 263 261 259 260 261 260 261 262 263 263 264
281 279 278 277 277 277 275 274 272 268 266 263 264 263 271 267 263 265 261 260 260 260 258 258 258 259 261 261 257 259 256 257 257 262 256 254 258 258 259 260 261 262 262 263

GFSNGP_sfc_thetae_024.txt.gz
Theta_e
292 295 295 293 293 294 292 291 285 289 290 294 295 295 295 297 298 302 304 304 303 303 305 306 305 304 302 300 300 298 296 295 295 296 296 294 292 292 292 293 292 292 291 291
289 293 293 291 293 293 293 293 292 291 291 295 295 295 296 297 298 297 299 301 304 304 304 304 304 304 304 301 299 298 296 296 296 296 294 294 293 291 291 292 293 292 292 291
284 288 288 283 289 291 293 293 293 287 291 295 294 296 295 296 298 298 299 301 304 304 304 304 304 305 303 301 299 297 297 298 296 295 294 293 291 290 290 291 291 291 290 290
281 281 276 291 295 295 292 292 294 294 293 296 297 297 298 297 297 298 299 300 301 303 304 303 303 304 300 298 297 297 296 294 293 293 291 291 291 291 291 291 290 288 289 290
280 280 286 290 293 291 290 289 294 293 294 296 298 298 297 300 300 298 296 295 293 293 296 298 300 298 297 295 293 291 290 291 292 291 291 291 291 290 291 290 289 288 289 288
281 278 275 287 294 297 295 284 296 296 295 295 294 286 293 299 298 293 292 292 291 292 292 291 291 292 291 290 290 290 291 290 291 292 292 291 291 291 290 289 288 288 287 287
275 276 282 293 297 296 283 284 297 297 297 296 294 295 298 294 292 292 291 290 291 290 289 290 291 292 290 290 289 291 292 293 293 293 292 292 290 290 288 287 285 284 284 284
283 278 279 298 295 288 291 296 297 297 297 297 298 299 295 293 291 290 289 290 290 290 289 291 292 291 290 290 292 293 293 293 293 292 291 290 288 286 286 284 282 282 279 281
287 286 295 296 297 300 298 297 297 298 299 300 298 294 291 290 289 288 289 289 290 290 289 291 292 292 290 291 292 292 292 290 288 288 288 287 285 285 283 282 279 280 280 277
290 294 295 296 299 300 301 300 299 300 300 298 292 291 290 289 289 289 289 289 289 289 288 288 290 289 289 289 288 287 286 286 286 285 285 285 285 284 282 279 279 281 281 280
291 295 298 299 300 299 296 295 294 294 293 292 291 290 289 289 289 288 288 288 288 287 288 288 287 287 288 288 287 285 285 284 284 281 283 283 283 283 283 282 282 282 281 280
286 296 295 295 297 297 295 294 294 292 291 292 291 289 289 288 288 287 286 286 286 286 286 286 287 286 287 287 286 285 284 283 281 281 280 282 282 283 285 286 286 286 286 283
298 299 296 294 294 295 293 292 292 291 291 289 289 289 288 287 286 287 286 286 286 286 286 286 285 285 285 286 285 284 283 283 282 281 281 281 281 281 281 284 286 287 286 286
297 297 293 294 290 292 292 291 291 290 290 290 290 289 287 287 287 286 286 286 286 286 285 284 284 284 285 286 286 284 283 283 282 282 282 282 282 282 283 284 284 284 284 285
294 296 294 292 291 290 291 290 289 289 289 288 289 288 287 286 285 285 285 285 285 284 283 284 283 283 286 286 285 284 283 283 282 280 283 284 284 284 284 284 285 284 284 280
293 292 291 290 289 289 289 290 288 286 285 285 284 284 285 286 284 284 283 283 282 282 283 281 280 282 284 283 281 281 281 280 279 281 280 281 282 283 283 284 285 285 283 282
289 287 288 287 288 288 289 288 287 284 283 282 282 283 282 282 281 281 281 282 283 282 281 279 278 280 280 279 277 276 276 277 276 277 278 278 278 279 279 279 280 281 283 285
294 292 291 290 288 286 285 284 283 283 283 284 282 278 277 276 277 278 278 279 280 278 278 278 277 276 276 276 276 276 275 275 276 277 277 276 277 278 279 279 280 280 281 284
293 291 290 289 287 285 283 282 282 283 282 281 277 277 276 275 277 277 277 274 272 274 276 276 276 274 274 274 274 275 273 272 273 273 273 273 273 274 274 274 276 276 278 278
288 288 287 286 285 283 282 282 282 282 281 277 275 275 276 273 270 272 274 273 274 274 277 274 273 272 272 273 270 272 269 270 268 269 268 268 269 269 270 271 272 271 272 272
285 284 283 283 282 283 281 280 279 278 279 275 275 272 271 273 271 269 273 274 274 274 275 272 272 271 271 269 270 264 266 266 264 265 264 265 266 266 267 267 268 268 268 269
283 282 282 282 281 280 280 280 279 277 276 273 270 268 271 274 272 273 269 272 274 267 271 272 271 264 267 264 268 262 265 266 263 263 263 264 264 263 265 264 264 265 266 267
283 282 281 280 280 280 279 277 276 275 272 271 270 270 273 274 273 268 268 273 273 267 271 265 263 261 260 258 258 257 258 260 257 259 258 261 261 261 262 261 262 263 263 264
283 282 281 280 280 278 277 278 278 276 273 274 270 267 274 269 264 272 271 265 261 260 260 260 260 260 258 255 254 255 255 257 254 256 258 256 256 259 259 259 260 261 262 263
283 283 280 279 279 278 279 279 277 277 276 275 274 275 274 272 266 266 261 262 264 263 259 257 259 258 254 253 253 253 252 253 252 255 255 251 255 257 256 257 258 259 260 260
281 279 278 278 277 277 277 276 273 273 272 268 267 261 267 268 267 265 261 260 261 261 258 254 253 254 253 256 253 252 252 254 252 256 252 251 252 255 255 256 257 258 259 260
278 277 276 275 276 275 274 273 271 268 266 263 263 262 266 263 259 261 256 255 255 255 253 254 252 254 254 253 255 255 253 251 251 254 249 247 250 253 254 256 257 257 258 258

GFSNGP_sfc_thetae_027.txt.gz
Theta_e
290 291 293 292 292 292 290 289 285 288 288 293 293 294 294 294 296 300 303 303 302 302 304 305 305 304 303 300 301 299 297 296 296 298 297 296 294 292 291 291 291 290 291 292
288 291 291 289 292 292 291 291 290 290 289 293 293 293 294 295 296 297 300 302 302 302 303 303 304 303 301 301 300 298 296 296 298 298 296 293 293 292 291 292 292 291 291 290
283 286 286 283 287 290 291 292 292 287 291 293 293 294 293 294 296 297 299 301 302 301 302 302 302 303 301 300 299 297 296 298 297 295 293 291 291 291 291 291 291 291 290 290
281 282 276 290 293 293 291 290 291 291 292 294 294 294 295 295 295 296 296 296 295 294 299 301 301 301 299 296 295 295 293 293 293 292 291 292 292 291 291 292 291 290 289 289
281 280 285 289 291 291 289 288 292 292 294 295 296 295 296 297 294 292 292 291 290 290 291 292 294 295 292 291 291 291 290 291 292 292 291 291 291 291 292 291 289 288 288 287
279 278 277 287 292 295 294 284 294 294 294 295 292 285 292 295 293 290 290 290 289 289 290 290 290 291 290 289 289 288 289 291 292 293 292 291 291 291 291 290 288 287 285 285
276 277 282 290 295 294 283 285 295 295 295 293 292 292 294 291 289 289 289 289 290 290 289 289 290 290 289 289 289 291 293 294 295 294 293 292 292 291 290 287 285 282 282 282
278 276 279 294 294 287 290 294 296 295 296 296 294 292 291 290 288 289 288 289 289 289 288 289 290 290 289 291 293 295 294 294 294 293 292 292 289 286 285 284 282 281 279 281
286 285 293 295 293 295 297 296 295 296 297 298 292 290 290 288 288 288 288 287 288 288 287 289 290 291 289 290 293 292 291 290 288 288 287 286 284 284 282 282 279 280 280 280
288 292 294 294 297 298 296 297 298 298 298 295 290 289 288 288 288 288 287 286 287 287 286 286 288 288 288 288 287 286 285 285 285 284 284 284 284 283 282 279 279 281 281 281
289 293 296 297 296 294 294 294 293 292 292 291 290 288 288 288 287 287 286 287 286 286 285 285 286 286 286 286 286 284 284 284 284 281 282 282 282 282 282 283 283 282 282 282
286 296 294 295 295 295 293 292 292 291 289 290 290 288 288 287 287 286 286 286 285 284 285 284 284 284 285 286 284 283 283 282 281 281 281 282 282 283 285 286 286 286 286 284
295 296 294 293 293 293 292 291 291 290 290 288 288 288 287 286 287 287 285 285 284 283 283 283 283 283 284 284 284 283 282 282 282 281 281 281 281 281 280 284 286 286 286 287
294 294 291 291 289 291 291 290 290 289 289 288 288 289 288 286 285 285 283 284 284 283 283 282 281 281 283 283 282 282 281 281 279 279 280 280 280 281 282 281 281 283 286 286
292 294 293 291 290 289 289 289 287 287 288 288 289 288 286 285 283 282 283 283 284 283 280 279 279 279 281 280 279 279 278 278 277 277 276 277 277 277 278 278 279 280 281 282
291 290 290 288 287 287 288 287 286 285 286 286 285 285 284 283 283 282 284 284 281 278 277 273 277 277 278 277 277 276 276 275 274 276 276 276 276 276 277 277 277 278 278 278
287 286 287 286 286 287 287 287 286 284 284 283 283 282 282 281 280 281 282 281 277 276 277 275 275 276 276 276 275 275 274 274 273 274 273 273 273 273 274 274 274 274 274 274
293 291 290 289 288 285 284 284 283 283 282 282 278 277 275 276 277 277 279 278 274 275 276 275 274 274 275 275 274 273 272 272 271 270 271 269 270 271 270 271 271 271 270 271
291 290 288 287 286 284 283 283 283 282 280 279 277 276 275 275 277 276 274 271 270 273 275 274 274 273 272 273 272 270 269 267 266 268 267 266 267 266 266 267 267 267 267 268
288 287 286 284 284 283 282 282 282 281 280 278 276 276 275 273 273 271 272 272 273 274 275 273 272 271 271 270 267 269 266 262 265 264 263 263 263 262 263 265 263 263 264 265
285 284 283 283 282 282 282 281 279 278 278 276 275 273 272 272 272 269 271 272 273 274 274 271 270 270 270 267 268 260 261 258 257 260 256 259 260 260 260 262 260 261 262 263
284 283 282 282 280 279 279 279 278 277 275 272 270 271 271 272 271 271 268 272 273 266 270 270 269 262 265 262 265 257 260 259 258 257 256 256 257 256 258 258 258 259 260 260
283 282 282 280 280 279 279 277 275 274 272 271 271 272 273 273 272 269 269 272 271 265 269 263 261 259 258 254 254 253 253 254 252 253 252 249 250 253 256 256 256 257 258 259
282 281 280 279 278 278 277 277 277 275 272 273 270 269 273 269 267 271 269 263 260 258 259 257 257 258 255 252 251 250 251 250 249 249 252 250 247 250 251 253 254 256 256 257
281 280 279 279 279 278 278 278 276 276 275 275 275 274 273 271 266 265 261 261 263 261 257 254 257 255 251 250 249 249 249 249 247 249 248 246 248 250 250 250 253 255 256 256
280 278 277 278 277 276 276 276 274 273 272 269 269 265 265 266 266 265 260 259 260 259 256 251 251 250 250 252 251 251 250 251 248 249 247 246 247 249 249 251 252 254 254 255
276 276 275 275 275 274 274 273 273 272 270 269 269 267 267 264 261 262 256 255 254 252 251 251 250 251 251 249 250 253 252 249 248 250 245 244 246 246 248 249 251 252 253 254

GFSNGP_sfc_thetae_030.txt.gz
Theta_e
289 290 291 291 291 290 289 288 285 287 286 291 293 293 294 293 293 296 300 303 303 303 303 304 305 304 303 300 299 299 298 296 294 294 295 295 296 294 293 293 292 292 292 292
287 290 290 289 290 290 290 289 288 288 288 293 292 292 293 292 296 297 299 301 301 301 302 303 304 303 303 300 299 299 297 295 297 297 296 294 293 293 293 292 292 292 291 291
284 286 286 283 287 290 289 290 291 286 291 292 291 292 291 292 296 296 295 295 296 298 300 300 301 302 300 299 298 297 295 296 296 296 294 292 292 292 291 291 291 291 292 291
280 281 276 289 292 291 290 290 290 290 290 292 293 292 293 294 293 293 292 292 291 291 293 294 298 297 296 295 294 293 293 293 294 293 292 293 292 291 292 292 292 292 291 290
281 280 284 288 290 289 289 288 291 290 292 293 294 294 293 292 291 290 289 289 288 289 290 290 290 290 290 289 290 290 290 291 292 293 292 292 291 292 292 292 291 290 290 289
278 278 277 287 292 293 292 284 292 293 293 293 292 283 290 291 290 288 288 288 288 289 289 289 288 289 288 288 288 288 290 291 293 293 292 292 292 292 292 291 290 289 287 286
275 276 283 290 292 293 283 286 293 295 294 293 290 290 290 289 288 288 288 288 289 288 287 287 288 289 289 290 290 291 292 293 294 295 294 293 292 291 291 290 287 283 283 282
279 276 280 292 292 287 291 291 293 294 294 293 291 289 288 288 288 288 287 288 288 288 287 288 289 290 289 289 291 292 294 294 293 293 293 292 289 287 285 284 282 282 279 282
287 286 293 293 292 294 294 294 294 295 295 295 290 289 288 287 287 287 286 286 287 287 287 288 289 289 288 289 290 289 287 286 286 286 286 285 284 283 282 281 279 280 281 281
288 291 292 294 295 295 295 294 295 296 296 293 289 288 287 287 286 286 285 285 286 286 285 285 286 286 286 286 285 284 283 283 283 283 283 283 282 283 281 279 279 281 281 281
288 292 294 296 296 295 293 294 293 292 291 290 288 287 287 286 286 286 285 285 285 285 285 283 284 284 284 284 284 283 283 283 282 281 281 281 282 281 281 282 282 282 282 282
288 294 294 293 294 294 293 291 291 290 288 289 289 287 287 286 286 285 284 285 285 284 284 283 283 283 283 283 282 282 282 281 280 279 278 280 281 280 284 285 285 286 286 285
295 296 292 292 291 292 290 290 290 289 289 287 288 287 287 285 285 286 286 284 284 283 283 282 281 280 281 281 281 281 279 279 278 278 278 278 277 277 276 279 282 283 284 284
294 294 291 291 290 290 290 289 289 288 288 287 287 287 286 286 286 285 284 284 284 282 280 279 279 278 278 278 279 278 277 277 275 275 274 275 273 275 276 276 275 276 280 281
292 292 292 290 289 288 288 288 286 286 286 286 287 286 286 284 283 283 284 283 280 279 278 278 277 276 277 277 277 276 276 275 274 272 272 273 273 273 274 274 273 273 275 275
290 290 290 288 287 287 287 287 285 285 286 286 285 285 284 283 283 283 283 282 278 276 276 272 274 275 276 276 276 274 274 273 272 272 272 271 271 271 272 271 271 271 271 270
286 285 285 285 285 286 286 286 286 285 285 285 284 283 282 282 282 280 278 277 276 275 274 273 273 275 275 275 274 272 272 271 269 270 270 269 268 268 268 268 268 268 268 268
293 291 290 288 287 285 284 284 284 285 284 283 281 280 280 280 279 277 276 275 274 273 274 273 273 274 274 273 272 271 270 268 268 268 267 266 266 266 265 265 265 264 264 265
290 289 288 287 286 285 283 283 283 282 280 280 279 278 278 278 278 276 274 272 271 273 273 273 274 272 271 272 270 268 267 262 264 266 263 262 262 262 261 262 262 261 261 262
286 287 286 284 284 283 282 282 282 280 280 279 278 277 276 274 273 272 272 272 274 274 273 272 271 270 270 269 267 267 264 259 263 261 258 259 254 253 254 259 259 258 258 260
284 283 283 282 281 282 282 282 280 279 279 278 277 276 275 273 271 270 271 271 273 274 272 270 270 269 269 266 267 257 258 255 254 255 251 250 250 253 253 253 253 255 256 258
283 282 281 281 280 279 279 279 279 277 276 274 273 273 272 272 270 270 267 271 273 268 269 269 269 262 264 263 263 255 258 257 255 253 252 250 248 248 250 251 252 254 255 255
283 282 281 280 279 278 277 277 276 275 273 273 272 272 273 273 272 269 269 272 271 266 268 264 261 259 257 253 252 251 252 251 250 249 249 246 246 245 248 250 252 252 253 254
282 281 279 279 278 277 275 276 276 274 273 274 271 271 272 268 267 270 269 264 261 260 260 257 258 258 254 251 250 249 249 248 247 246 249 248 244 244 247 247 249 251 252 253
280 279 279 278 278 277 276 276 276 276 275 275 274 274 273 272 268 268 266 265 265 262 258 255 256 254 249 248 248 248 248 247 246 245 246 244 245 245 246 247 247 249 251 252
278 277 277 277 276 276 276 276 273 273 273 271 271 270 269 269 268 267 265 263 262 259 257 252 251 249 248 249 248 248 251 252 247 246 246 244 243 246 246 247 247 248 249 251
275 275 274 273 273 273 274 274 273 271 270 271 270 269 268 266 265 265 261 260 257 253 251 251 249 251 249 247 248 249 250 250 247 248 244 242 242 243 244 245 246 247 249 250

GFSNGP_sfc_thetae_033.txt.gz
Theta_e
292 292 294 294 294 293 292 294 292 294 291 296 299 300 300 299 299 300 303 307 309 310 312 312 311 311 311 310 306 306 304 304 304 302 302 301 299 298 297 297 296 295 296 295
290 292 292 292 294 294 293 292 293 292 292 299 299 298 298 298 301 302 302 304 305 306 308 309 310 311 308 307 305 305 304 303 301 301 300 298 297 296 295 294 294 295 295 295
287 289 291 287 291 293 294 295 295 291 298 298 297 297 297 299 300 298 297 298 300 301 302 304 306 307 307 306 304 303 302 301 300 300 297 296 295 294 292 293 294 295 295 295
286 286 283 294 296 296 295 295 296 295 296 297 297 297 297 299 298 296 295 295 295 297 298 299 300 300 300 300 300 300 299 298 298 297 295 293 293 293 294 296 295 295 296 295
286 286 289 291 293 294 293 295 297 296 296 296 297 298 295 293 295 294 293 293 294 294 295 295 295 296 296 295 296 295 295 295 295 295 295 295 293 293 293 294 295 295 294 292
284 285 283 293 296 297 297 290 297 297 296 296 297 295 297 293 293 292 293 293 293 293 294 293 293 295 294 294 294 293 294 295 296 296 296 295 296 296 295 295 294 292 290 292
283 287 289 295 296 297 289 293 298 298 299 298 296 297 297 293 291 292 292 292 292 293 292 293 295 295 294 294 294 295 296 297 297 297 296 295 295 293 293 292 292 292 290 291
285 286 286 296 294 293 299 297 299 299 300 299 294 292 292 292 291 291 291 291 292 292 292 293 295 295 293 292 296 296 294 292 292 291 291 291 292 291 290 290 289 289 288 289
293 294 300 297 300 299 298 299 298 300 299 297 293 291 291 290 290 290 291 291 292 292 292 292 293 293 290 289 290 290 289 289 289 289 289 289 289 289 289 289 288 287 287 287
294 297 296 298 298 300 299 300 299 301 300 297 294 291 290 289 289 289 290 290 290 289 288 287 288 288 288 288 289 289 288 287 287 287 287 287 287 287 286 286 285 285 285 285
293 295 298 299 300 301 298 299 298 298 298 295 292 290 290 289 289 289 289 288 288 287 287 286 286 286 286 287 288 286 285 284 284 284 283 283 283 283 283 284 284 283 283 283
292 299 299 299 301 298 297 297 297 294 292 293 292 290 290 289 289 288 287 287 287 286 285 284 283 282 283 284 284 283 282 282 281 281 281 281 281 281 282 281 281 281 282 282
298 299 296 294 295 296 295 295 294 293 292 290 291 290 289 288 288 287 287 287 286 284 282 281 281 280 281 282 282 280 279 279 280 279 279 279 278 278 277 280 279 279 279 280
296 297 295 294 294 294 293 292 292 291 291 291 289 289 289 287 286 286 285 284 283 282 282 281 279 278 279 280 279 279 278 277 278 278 277 277 277 276 276 276 275 276 277 277
293 293 295 292 291 290 290 290 288 287 288 288 289 288 287 286 285 284 283 282 281 281 280 279 278 277 279 279 278 277 277 276 276 276 276 274 275 275 275 274 274 273 274 274
290 291 291 290 289 288 289 289 287 287 287 287 287 287 286 285 284 281 280 281 280 278 277 274 276 277 278 278 276 276 275 273 273 274 273 273 272 272 272 271 272 271 271 270
289 287 287 287 287 288 288 289 288 287 287 286 284 285 284 283 281 280 279 278 276 275 275 275 275 276 276 276 275 274 274 272 271 272 271 270 270 270 269 269 269 269 268 268
295 292 291 290 288 287 287 287 287 286 285 284 283 282 281 281 279 278 277 276 275 274 274 274 275 275 274 274 273 272 271 270 271 269 269 268 267 267 267 266 267 266 266 267
291 289 289 288 287 286 285 285 284 282 282 282 282 281 281 280 278 277 276 275 274 273 273 274 274 273 272 272 271 271 269 268 269 268 267 265 265 265 264 265 265 264 264 264
286 286 285 284 285 283 282 282 282 281 282 281 280 279 277 276 276 275 276 275 276 275 274 273 272 271 271 270 269 270 268 267 266 266 265 264 263 263 263 262 262 263 263 263
283 283 283 282 282 282 282 282 281 280 280 280 279 277 276 274 274 274 274 273 274 274 273 272 271 271 270 269 269 268 267 265 265 264 263 262 261 262 261 261 261 261 261 262
282 281 281 281 280 280 280 280 280 278 277 276 276 275 274 273 273 272 273 274 274 273 272 272 271 266 268 267 268 267 266 265 264 263 263 262 261 260 260 260 259 260 260 260
282 282 281 279 278 277 278 277 277 276 275 275 275 275 275 274 274 273 272 273 273 270 271 270 266 264 263 267 266 265 265 263 263 262 262 261 260 259 259 258 258 258 258 259
280 280 279 279 278 277 276 276 276 275 275 274 274 274 274 272 272 273 273 270 269 269 269 267 266 264 263 265 264 264 263 263 262 261 261 256 259 258 258 257 256 257 257 257
280 280 279 278 277 276 276 276 276 276 276 275 275 275 274 274 274 272 271 270 269 269 268 262 263 261 264 264 263 262 262 262 262 260 260 259 258 257 257 257 255 256 255 256
276 276 275 276 276 277 277 276 274 275 274 273 273 272 272 272 271 270 269 268 268 266 267 265 264 263 263 263 262 261 261 262 261 260 258 258 258 257 256 255 254 254 255 255
273 273 273 272 273 273 273 273 273 272 273 273 272 271 270 269 269 268 266 267 266 265 264 264 263 262 263 262 261 261 261 261 259 260 259 257 256 256 255 254 254 253 253 254

GFSNGP_sfc_thetae_036.txt.gz
Theta_e
297 298 298 297 297 298 297 298 295 297 298 301 304 306 307 307 306 306 307 310 314 318 320 321 321 322 322 320 319 318 317 316 316 315 315 314 313 311 309 306 302 298 296 297
295 298 297 295 298 298 299 299 299 299 299 305 307 307 306 305 305 307 309 311 313 315 317 317 318 318 317 315 314 315 313 312 310 309 308 307 304 301 299 297 295 295 295 297
291 296 295 291 296 298 299 301 301 296 301 305 304 305 306 305 307 307 308 308 309 310 311 312 313 315 313 312 312 311 309 308 307 306 304 302 299 297 294 294 296 296 296 297
293 291 286 297 303 303 300 302 303 303 304 305 305 305 305 308 307 305 305 305 306 307 308 309 309 309 309 309 308 307 306 305 304 303 301 300 298 296 295 296 296 296 296 298
292 290 295 296 298 299 299 299 305 303 305 305 304 303 301 303 305 304 304 304 304 305 305 306 305 306 305 304 304 302 301 301 301 301 300 299 299 298 298 300 299 299 297 297
291 289 288 298 303 305 304 295 305 305 305 304 303 299 303 301 301 301 302 302 302 303 303 303 303 304 303 302 301 300 300 300 301 301 300 300 299 299 300 301 297 295 293 292
293 293 296 302 303 304 294 298 306 307 306 305 302 305 304 302 300 301 301 300 301 302 301 301 302 303 300 300 299 300 300 301 300 300 299 299 298 297 296 297 296 296 294 295
295 292 290 303 300 298 306 308 308 307 308 307 305 303 301 300 299 299 298 299 300 300 300 301 301 301 299 298 299 299 297 294 292 293 293 294 294 294 294 294 293 292 293 293
298 298 307 305 307 308 310 308 306 308 308 308 302 300 300 299 299 298 299 299 300 299 298 299 300 299 297 296 295 294 294 293 293 293 293 293 293 293 293 293 291 290 289 289
299 304 305 306 307 306 307 307 307 308 308 305 302 300 299 298 298 298 298 298 298 296 294 293 294 294 294 294 294 293 292 291 291 290 290 290 290 289 288 287 286 286 286 286
301 305 302 304 307 308 306 306 305 307 307 305 303 300 299 298 297 297 297 296 296 294 293 292 292 292 293 293 292 290 289 288 288 287 286 286 286 286 285 286 283 283 284 283
300 306 306 308 310 309 306 305 306 306 305 305 303 300 299 297 297 296 295 295 294 292 291 290 290 289 289 290 290 288 286 285 285 286 286 285 284 285 281 280 280 280 279 280
304 304 305 304 304 309 306 306 306 305 305 302 301 300 298 296 296 293 294 293 292 290 288 287 286 284 286 286 286 285 284 283 283 283 283 282 283 282 281 282 279 279 278 278
302 301 300 300 302 303 304 304 302 304 303 301 299 298 297 295 293 293 292 292 290 287 285 285 283 283 284 284 283 282 281 279 282 282 282 282 281 281 281 279 278 279 279 276
299 298 298 299 299 298 299 298 297 297 297 297 297 296 295 292 292 292 291 288 287 285 284 283 282 281 283 283 282 281 281 281 281 281 280 278 280 279 279 278 277 277 277 277
296 297 297 296 294 295 295 296 296 294 295 294 294 292 293 292 290 288 286 285 282 281 282 279 279 281 282 281 280 280 278 275 277 279 278 278 278 277 276 276 275 276 275 274
295 293 293 292 293 293 294 295 295 293 292 292 291 291 290 287 285 283 280 279 278 278 279 279 279 280 279 279 279 280 279 277 274 277 276 275 275 275 274 274 274 274 273 273
299 298 297 297 294 293 292 292 292 291 291 290 286 284 283 282 280 279 278 277 277 277 277 277 277 277 277 276 277 276 276 275 275 274 275 274 273 273 273 272 272 271 271 271
295 294 294 293 293 291 291 288 286 285 284 284 283 282 281 281 280 278 277 276 275 275 275 276 275 275 274 273 274 275 274 274 274 273 273 270 272 271 271 270 270 270 270 270
288 288 288 286 286 284 282 283 283 283 283 283 281 279 278 278 278 278 278 277 277 276 275 274 274 273 273 272 272 273 273 272 271 272 271 270 270 269 269 267 267 268 269 269
283 283 282 282 282 283 283 283 282 281 283 282 280 278 277 277 277 277 276 274 274 275 274 274 274 273 273 273 272 273 272 272 271 270 270 269 268 268 268 268 268 267 268 268
282 281 281 281 280 280 281 281 281 280 279 278 277 277 276 275 275 275 276 276 275 275 275 274 273 270 271 269 272 272 271 270 270 269 269 268 267 267 266 266 266 266 266 266
282 281 280 279 279 278 279 279 279 279 278 278 278 278 277 277 277 276 274 275 275 274 274 273 270 268 267 272 271 270 270 268 268 268 267 267 267 266 265 265 265 264 264 264
280 280 279 280 280 279 277 277 277 277 277 277 277 277 277 277 276 276 276 274 273 273 273 271 270 266 266 271 270 269 268 268 267 267 267 263 266 265 265 264 263 263 263 263
279 280 280 279 278 278 278 278 278 278 277 277 277 277 277 277 278 275 275 273 271 272 273 267 265 265 269 269 269 267 267 268 267 267 266 266 265 264 264 264 262 262 261 261
276 276 276 276 277 278 278 278 277 277 277 276 276 276 276 275 275 274 273 272 271 269 271 271 270 269 269 268 268 267 267 267 266 266 265 264 264 264 263 262 261 261 261 261
273 274 275 274 274 275 275 275 275 274 275 275 275 275 275 274 273 272 271 272 271 270 270 270 269 268 267 267 267 267 266 266 265 264 264 264 263 263 262 261 260 260 259 259

GFSNGP_sfc_thetae_039.txt.gz
Theta_e
299 299 299 299 299 299 298 299 295 297 298 302 306 306 307 310 309 309 310 311 313 319 322 324 325 326 327 327 327 326 323 323 321 320 318 315 313 312 311 310 308 302 301 298
296 299 298 296 299 299 299 299 299 299 299 306 308 308 307 308 308 309 310 312 315 318 321 322 323 324 323 322 321 322 320 319 318 317 316 314 313 311 309 303 301 298 297 296
292 297 297 293 297 298 299 301 300 296 302 306 306 306 307 308 309 310 311 313 315 317 319 320 320 320 318 317 317 316 313 312 311 310 308 307 304 302 300 299 299 297 298 296
294 295 287 297 303 303 300 301 303 303 304 306 307 308 309 310 310 311 312 312 313 314 314 315 315 314 314 313 312 311 310 309 308 307 305 303 302 300 299 299 298 296 296 296
292 292 295 297 301 301 300 299 305 304 306 307 308 308 307 309 312 311 311 312 312 312 311 311 311 311 310 309 308 307 305 305 305 304 303 302 301 300 300 300 299 299 300 298
295 290 287 297 303 307 306 296 306 306 306 306 307 301 305 308 310 309 309 309 309 309 309 309 308 308 307 305 305 303 304 303 304 304 303 302 300 299 300 299 298 298 297 296
294 293 296 302 305 308 295 297 307 308 308 307 305 308 310 308 307 307 307 307 308 308 307 307 307 307 304 304 302 303 303 303 303 303 301 300 300 300 299 298 298 297 295 296
296 293 290 306 305 300 306 311 310 311 310 309 309 309 307 306 305 305 305 305 306 305 305 306 306 305 303 302 303 303 302 300 299 299 297 298 297 296 295 295 294 294 294 294
299 299 308 309 308 310 311 310 311 311 311 310 310 307 306 305 305 304 304 305 305 304 304 304 305 304 302 301 300 299 298 297 295 295 295 295 295 294 294 293 292 290 289 289
301 304 306 308 310 311 312 312 313 312 311 311 310 307 306 305 304 304 304 304 304 303 302 301 302 301 300 300 299 297 295 294 294 293 292 292 292 290 290 289 288 287 286 286
301 303 305 308 310 312 312 312 311 310 311 311 310 307 305 304 304 304 304 303 303 301 299 298 298 297 297 297 296 294 293 292 291 290 289 288 288 287 286 284 283 283 284 283
299 305 307 307 311 312 312 311 310 309 309 311 309 306 306 304 304 304 303 301 300 299 297 296 295 295 295 295 294 292 289 289 289 288 288 287 287 285 281 282 280 280 279 280
305 308 308 310 309 309 310 311 311 310 310 308 308 307 306 304 303 299 301 299 298 297 295 294 293 291 292 292 291 289 288 286 285 286 286 285 285 284 284 281 280 279 278 277
309 306 303 306 306 306 308 310 307 309 310 309 307 306 305 303 300 299 298 298 297 294 292 290 288 286 287 288 287 285 284 282 285 285 284 284 284 283 283 282 281 282 279 277
304 304 303 303 303 303 304 304 304 305 306 306 306 304 302 300 298 298 298 296 292 289 287 286 283 283 285 286 285 284 283 283 284 283 281 280 281 281 281 280 279 279 279 279
302 302 302 301 303 301 301 300 301 301 302 302 301 300 300 298 298 294 291 290 286 283 281 281 281 282 283 283 282 280 278 278 280 281 280 280 279 279 278 278 277 278 277 276
299 300 301 299 298 297 298 300 300 299 299 298 298 297 296 290 286 282 280 281 280 279 279 279 279 280 280 281 281 281 281 278 276 279 278 278 278 277 276 276 275 276 276 275
300 300 300 301 299 297 296 297 297 296 295 292 287 285 284 280 279 278 278 278 277 277 277 278 278 278 278 278 278 278 278 277 277 276 276 276 275 275 275 274 274 274 274 274
291 292 292 294 294 292 288 286 285 285 284 284 282 280 280 278 277 277 277 276 275 274 275 276 276 276 275 275 276 276 275 276 275 275 275 272 274 274 273 273 272 272 272 272
284 284 284 284 285 285 283 284 283 282 282 281 280 279 278 278 278 278 279 277 277 276 276 275 275 274 273 273 274 275 274 274 273 274 274 271 273 272 272 271 271 271 272 272
281 282 281 281 281 283 283 284 283 282 282 281 279 278 278 278 278 277 275 273 275 276 275 275 275 274 274 273 274 275 274 273 273 272 272 272 271 272 271 271 271 270 270 270
282 281 281 281 280 280 281 281 281 280 279 278 278 277 277 276 277 277 278 275 275 276 276 275 274 272 272 271 274 274 273 273 272 271 271 271 270 270 270 270 269 269 269 268
281 281 280 280 279 279 280 280 280 280 279 279 279 278 278 278 279 276 274 276 276 276 276 274 271 270 269 273 273 272 272 271 271 270 270 270 269 269 268 268 268 267 267 267
281 281 280 280 280 279 277 278 278 278 278 277 278 279 279 277 277 277 277 275 275 275 274 273 271 269 268 272 272 271 270 270 270 270 270 268 268 268 268 267 266 267 266 266
278 278 279 279 278 279 279 279 279 279 278 278 278 278 278 278 278 276 276 274 273 274 274 269 268 268 271 271 271 270 269 270 270 268 267 268 267 267 267 267 266 265 264 264
277 277 277 276 277 278 278 278 276 277 278 277 276 277 277 277 276 276 274 273 273 272 272 272 271 270 271 270 270 269 269 269 268 268 267 267 267 266 266 265 265 264 264 263
275 275 275 275 275 275 275 275 274 274 274 276 275 276 276 276 274 274 273 273 273 272 272 272 271 270 269 268 268 268 268 268 267 267 266 265 265 265 265 264 264 263 262 261

GFSNGP_sfc_thetae_042.txt.gz
Theta_e
299 299 299 299 298 298 298 299 295 298 297 300 304 305 305 309 310 310 310 311 312 316 321 323 325 326 327 328 327 327 327 322 319 318 317 314 313 312 310 309 308 304 301 299
296 299 298 296 299 299 299 298 298 299 298 305 306 306 306 307 308 308 309 309 311 314 321 322 324 324 325 322 323 323 321 317 318 317 315 314 312 310 307 304 300 298 297 297
291 298 296 290 296 298 299 301 299 295 301 305 304 306 307 308 308 308 309 312 314 316 321 322 323 322 320 320 321 319 315 314 315 314 311 308 305 302 299 298 297 296 296 296
292 293 284 296 303 302 299 300 301 302 303 304 305 307 309 310 310 310 311 313 315 318 319 320 320 319 317 317 314 312 310 309 309 307 304 302 301 299 298 297 296 296 295 296
290 289 294 296 299 299 298 297 303 302 303 305 306 308 308 311 313 313 313 314 315 316 316 315 314 313 312 310 309 308 307 306 306 304 302 301 299 298 297 297 296 295 296 297
293 287 285 296 302 305 304 293 305 305 304 305 307 301 305 309 312 312 313 313 312 312 312 311 310 310 308 306 305 304 304 304 304 303 302 300 300 299 299 299 298 297 296 296
292 290 295 302 303 305 292 296 308 308 307 307 307 308 310 310 311 311 311 310 310 309 308 308 308 307 304 303 302 303 304 303 303 302 300 299 298 299 298 297 296 294 293 293
293 290 287 305 304 297 305 307 311 309 310 312 312 310 309 309 308 308 307 307 308 306 306 306 307 305 303 301 303 303 302 301 300 299 299 299 298 296 296 294 291 290 288 288
295 295 300 303 305 309 312 310 312 311 312 312 311 309 308 307 307 306 306 306 307 305 304 305 305 304 301 301 302 300 299 298 297 296 296 295 293 292 292 291 288 285 284 284
295 298 299 303 308 310 311 311 312 312 313 313 310 309 307 306 306 305 305 305 305 304 303 302 304 303 301 300 300 298 295 294 293 292 291 291 290 289 288 285 284 283 283 282
298 300 302 304 306 308 311 313 312 312 311 310 311 309 307 306 305 304 304 304 304 303 302 301 301 300 300 299 297 295 293 292 290 289 288 286 283 284 282 280 281 281 280 280
296 302 305 305 309 310 310 309 310 311 310 310 311 310 308 306 305 304 304 304 303 302 300 299 298 297 297 296 295 292 290 288 286 286 285 286 283 281 283 281 280 280 279 279
303 307 307 308 308 309 308 309 310 311 311 309 311 310 308 305 305 301 303 302 300 298 297 296 294 293 294 294 292 289 286 286 284 285 284 283 283 282 278 280 280 280 279 278
306 307 305 307 304 305 306 306 309 309 310 310 309 308 307 305 303 303 301 300 298 296 294 292 289 287 288 287 286 283 283 284 284 283 283 283 282 282 281 280 278 277 278 278
302 304 303 304 303 304 304 305 304 305 307 307 308 306 305 302 300 300 299 297 294 291 288 286 284 284 286 285 284 283 283 283 283 281 280 280 281 280 280 279 279 278 278 276
301 303 303 302 302 302 301 301 301 303 304 303 303 302 301 300 297 293 291 289 286 283 282 280 279 281 283 281 280 279 279 279 281 280 280 279 279 279 278 278 277 277 276 276
296 296 297 298 300 298 298 299 300 300 299 294 293 288 284 281 280 280 279 279 279 278 279 278 278 280 281 282 281 280 278 277 277 279 278 277 277 277 276 276 275 275 275 270
294 293 292 294 296 294 290 289 288 288 286 284 282 281 279 278 277 277 277 277 276 276 277 278 278 277 277 277 278 278 278 277 277 276 276 276 274 275 275 274 274 273 273 273
286 285 286 286 286 285 284 283 283 283 282 281 279 277 277 277 276 276 276 275 274 273 274 276 276 275 274 275 276 276 275 275 275 275 274 272 273 274 273 273 272 272 271 271
282 282 282 282 283 283 281 281 281 280 280 279 278 277 276 277 277 277 276 274 275 275 276 275 275 273 273 273 275 275 274 274 273 273 274 271 272 272 271 271 271 270 270 270
280 280 280 280 279 279 279 280 279 278 279 279 277 276 276 276 276 276 274 272 274 276 275 275 274 273 273 273 274 274 274 273 272 272 272 272 271 271 271 270 270 269 269 269
280 279 279 279 278 278 280 280 279 278 278 277 278 277 276 275 275 275 275 273 275 275 275 274 272 271 271 272 274 273 273 272 272 271 271 271 270 269 269 269 268 268 267 266
280 279 279 278 277 277 278 277 277 277 277 277 276 276 276 276 278 275 272 276 276 276 273 272 271 270 270 272 273 272 272 271 270 270 270 269 269 268 267 267 267 266 265 265
280 280 279 280 279 278 276 278 278 278 277 277 277 276 278 275 275 275 275 275 274 273 272 271 270 269 267 272 272 271 270 270 269 269 269 267 268 268 267 266 265 265 264 264
277 277 278 278 278 278 278 278 278 278 277 276 276 276 276 276 275 275 275 274 273 274 270 269 268 268 271 271 270 269 269 269 268 267 267 266 266 266 266 266 265 264 263 260
276 276 276 275 275 276 276 276 274 274 277 275 275 276 276 276 276 275 274 273 272 272 272 272 270 269 269 269 267 267 268 268 267 267 266 265 265 264 264 264 264 263 263 261
273 274 274 274 274 274 274 272 273 272 272 274 273 274 274 274 273 273 272 272 271 271 270 270 270 269 268 267 267 267 267 267 266 265 264 264 264 263 263 263 262 261 260 260

GFSNGP_sfc_thetae_045.txt.gz
Theta_e
294 297 297 297 297 296 294 295 292 293 294 297 300 300 301 304 306 307 305 304 306 311 313 315 316 318 321 321 323 324 324 320 315 313 313 312 312 311 311 310 308 305 303 301
291 295 296 294 296 296 296 296 297 298 296 303 304 302 302 305 305 305 305 304 305 313 317 319 319 319 318 318 318 321 318 316 315 313 312 312 311 309 307 304 302 300 298 298
287 293 293 287 293 295 296 298 297 292 296 299 300 303 302 303 304 304 304 304 306 311 318 319 318 318 315 316 316 315 315 315 314 314 312 309 305 302 299 298 297 296 296 296
284 289 282 293 300 299 296 298 298 297 298 299 299 301 302 304 303 303 305 308 309 315 315 316 316 315 315 314 310 311 310 310 308 305 302 300 299 298 296 295 294 291 292 293
285 286 290 294 296 295 294 294 299 297 298 299 300 299 300 304 304 305 307 308 310 312 313 312 312 311 310 308 307 306 305 303 302 300 298 296 295 294 293 293 293 292 293 292
285 283 282 292 299 302 300 289 300 300 300 300 299 292 297 303 308 307 308 309 309 308 308 308 306 307 305 303 303 302 302 301 300 299 297 296 294 294 293 293 293 294 294 295
283 284 287 298 301 302 289 289 301 303 302 301 298 300 302 306 306 307 307 307 306 306 305 303 304 304 301 299 299 300 301 301 300 299 297 297 296 296 295 295 295 293 290 289
287 284 282 300 301 294 297 302 304 304 302 302 304 304 304 305 305 305 304 305 304 303 302 301 302 301 298 298 300 300 299 298 297 296 297 297 295 294 294 292 289 286 284 282
291 289 299 300 302 303 303 302 306 305 306 305 304 304 304 303 303 303 303 302 302 301 300 300 301 300 298 297 298 298 297 296 296 296 296 295 291 289 289 288 284 282 283 281
293 296 298 300 302 306 307 306 305 308 307 305 305 303 302 302 301 301 300 300 300 300 299 298 300 299 298 298 297 296 295 294 292 289 288 286 287 286 283 281 281 281 281 280
293 297 299 300 302 307 306 308 306 307 307 306 306 303 302 301 300 299 300 299 300 298 297 296 298 297 297 297 296 293 290 289 287 285 282 282 282 281 279 279 281 279 279 280
288 299 300 301 303 306 306 307 307 305 305 306 304 304 302 300 300 299 298 299 299 297 296 295 295 295 295 294 292 289 286 285 283 283 281 281 280 279 281 281 281 281 281 279
298 302 301 302 303 304 304 304 305 305 304 304 305 303 302 300 299 296 299 298 297 294 293 291 287 286 288 289 288 286 283 284 283 282 282 281 279 278 277 279 281 280 280 280
300 301 300 299 298 302 302 302 303 303 304 304 305 303 301 300 299 298 296 295 292 288 285 283 283 282 284 284 284 283 282 282 282 282 281 281 280 280 278 277 276 277 279 278
296 300 299 301 301 299 300 300 299 300 300 301 302 301 300 297 295 293 291 287 285 282 281 281 280 280 281 282 281 281 281 280 279 278 279 279 280 279 279 278 277 276 276 276
295 296 297 297 297 295 293 293 293 289 287 285 285 285 285 284 282 282 283 281 278 277 278 278 279 280 281 280 280 279 279 280 279 279 278 278 278 277 277 277 276 276 275 274
290 288 290 290 289 288 287 287 286 284 283 282 282 281 280 279 278 278 277 278 277 277 277 277 277 279 280 280 279 277 277 277 278 277 276 276 276 275 275 275 274 274 273 271
287 286 287 287 286 285 283 283 281 281 280 280 279 278 277 276 276 276 276 276 275 274 274 275 276 277 277 277 277 277 277 276 276 275 276 274 273 274 274 273 273 272 272 270
283 282 283 282 282 281 280 279 279 279 278 278 277 275 276 275 275 275 274 273 273 272 273 275 276 275 275 276 276 275 275 274 274 274 274 272 272 273 272 272 270 270 270 270
280 280 280 279 279 279 278 279 278 278 277 276 275 274 273 273 274 273 273 272 273 274 275 275 274 273 274 274 275 274 274 273 273 273 272 271 270 269 269 269 269 269 267 267
278 278 278 277 277 277 277 277 277 276 277 277 276 275 274 275 275 274 272 271 274 275 274 273 273 272 272 273 274 273 272 272 271 271 269 268 268 268 265 265 266 266 265 265
277 276 276 276 275 276 277 277 277 277 276 276 276 275 274 273 273 273 274 273 275 273 272 271 271 270 270 272 273 271 271 270 269 268 266 264 263 261 262 262 261 262 260 258
278 277 277 276 276 276 276 276 276 275 274 275 275 274 273 275 275 272 271 274 273 271 271 270 269 268 268 271 269 268 266 265 264 263 264 265 265 264 261 259 261 259 256 257
277 277 277 278 278 277 275 276 276 275 275 275 274 275 274 273 272 273 273 272 270 269 268 267 267 267 266 266 266 265 263 262 262 261 261 260 257 258 260 259 259 259 259 257
274 274 274 274 274 274 274 274 275 275 274 274 274 274 274 274 272 272 271 270 271 268 266 264 265 265 264 262 261 261 261 264 264 262 262 260 258 254 254 255 259 259 257 256
273 272 272 272 272 271 272 271 269 270 273 270 271 271 270 271 271 272 270 268 269 268 267 266 267 264 263 260 256 257 256 257 260 261 257 255 253 253 255 257 256 257 255 252
269 270 270 270 271 270 268 267 267 266 266 267 268 268 267 267 266 265 263 264 264 261 260 259 259 261 261 259 258 258 256 255 255 257 255 252 251 250 254 256 253 251 249 248

GFSNGP_sfc_thetae_048.txt.gz
Theta_e
293 294 295 294 295 295 292 292 288 290 292 297 299 299 301 302 303 304 304 302 304 308 310 311 313 315 316 319 319 322 322 321 321 322 322 320 317 313 311 310 310 308 306 305
289 294 294 292 295 296 296 294 293 294 293 301 303 300 299 302 303 303 303 303 303 309 311 314 317 318 318 318 320 322 321 321 322 318 317 314 313 312 309 307 306 304 303 300
284 291 291 286 292 294 294 295 296 291 296 300 299 300 300 301 303 303 303 301 302 309 314 316 318 317 316 317 320 321 322 319 315 315 314 312 310 307 304 303 302 299 298 297
283 286 282 292 297 297 295 296 296 296 297 298 299 300 301 303 304 303 302 302 302 310 314 315 315 314 313 314 314 315 315 314 313 310 308 306 305 302 300 300 299 297 296 296
283 284 289 292 295 294 293 294 298 297 297 298 299 297 297 302 302 303 303 303 306 312 313 313 314 313 310 310 310 309 308 307 306 305 302 301 299 299 297 295 294 294 294 294
284 281 280 290 296 301 298 287 297 298 298 298 298 290 294 301 303 303 305 308 310 310 310 311 309 308 306 304 304 302 302 302 302 300 298 295 293 292 293 293 292 292 290 290
283 282 287 296 299 300 288 288 300 303 301 298 295 297 299 302 305 306 307 308 308 310 309 306 306 306 303 302 300 300 300 298 297 296 295 294 293 292 292 292 292 290 288 286
285 283 281 300 298 292 296 299 301 303 301 301 301 302 301 304 305 305 305 304 305 304 303 301 303 303 300 298 299 299 298 297 296 295 295 295 293 293 293 293 288 285 283 281
289 287 299 301 299 303 302 300 302 301 302 303 303 301 302 302 304 304 304 302 302 301 298 298 299 300 297 296 297 297 296 295 295 295 295 294 293 291 290 288 286 282 281 278
292 294 297 298 302 304 305 303 305 305 305 305 302 303 303 301 301 300 300 299 299 299 297 295 297 297 297 297 297 296 294 293 292 290 286 286 286 286 285 282 282 283 281 278
292 295 297 298 300 303 304 305 303 303 304 305 305 304 303 302 300 300 299 299 299 298 296 295 296 295 296 296 295 292 290 286 283 283 282 280 279 280 280 281 281 281 280 280
288 296 295 297 300 303 302 303 304 303 303 303 304 303 303 301 300 299 298 298 297 295 294 294 294 294 293 292 291 287 284 282 281 280 280 279 278 278 282 282 283 282 281 279
293 297 299 299 300 301 301 301 302 303 302 301 304 302 302 299 298 295 298 296 294 290 287 286 286 286 287 287 286 284 282 282 281 280 279 279 279 279 277 279 281 281 280 279
295 297 296 298 296 298 298 299 299 296 295 292 296 302 298 297 297 294 290 287 285 284 283 282 282 282 284 285 284 282 282 282 281 281 281 280 280 279 279 278 276 276 279 278
292 293 293 294 292 291 291 292 289 287 286 285 285 290 292 288 285 283 283 282 281 280 280 280 279 280 282 283 281 280 280 279 280 279 279 279 279 279 279 278 278 277 277 276
291 291 291 289 287 287 286 285 284 282 282 281 280 280 279 279 278 277 278 279 278 277 279 278 279 280 281 281 280 280 279 279 279 278 278 278 278 277 277 276 276 276 275 273
287 285 286 287 285 283 282 282 282 281 279 279 279 279 278 277 276 276 276 276 275 275 276 276 276 278 279 278 278 278 277 277 277 277 277 276 276 275 275 275 274 274 272 272
285 284 284 283 282 280 279 280 279 279 278 278 278 277 275 274 273 273 274 274 273 273 274 275 276 276 277 277 277 276 276 276 276 275 275 273 273 274 273 273 273 272 272 271
280 280 280 280 279 279 278 277 277 277 277 276 275 274 274 274 273 273 274 273 271 271 272 274 276 275 275 276 275 275 274 274 274 274 273 272 272 272 271 271 271 270 270 270
278 278 278 277 278 278 277 277 277 276 276 275 274 273 272 272 273 272 272 271 272 272 273 273 273 273 274 274 274 274 273 272 272 272 271 271 270 269 269 269 269 268 267 267
276 276 276 276 275 276 277 277 276 274 275 275 273 272 272 273 273 273 271 270 271 272 272 272 272 272 273 273 273 272 271 270 270 269 268 267 266 266 265 265 264 263 263 263
276 275 275 275 274 274 275 275 275 275 274 274 274 273 273 272 273 272 272 270 271 271 270 270 270 270 271 271 270 269 268 268 267 267 265 265 264 264 263 262 261 260 260 256
277 276 276 275 274 274 274 274 274 273 273 273 272 271 271 271 272 270 268 271 271 269 269 268 269 268 268 267 266 265 264 263 261 260 260 260 259 260 260 261 261 260 255 256
274 275 274 274 275 274 273 273 274 273 273 272 271 271 271 269 269 271 270 268 267 266 266 265 265 264 263 262 261 260 259 260 261 258 258 256 252 251 251 249 252 252 255 256
272 272 272 272 271 271 271 273 273 272 272 271 271 271 271 271 268 267 268 268 268 266 265 263 262 260 259 258 256 255 254 254 253 252 251 250 249 248 248 249 251 254 253 252
271 270 270 270 269 269 269 269 268 269 268 266 266 266 266 267 267 266 265 263 263 261 260 258 257 256 255 255 254 253 251 253 255 255 250 249 248 249 249 249 249 248 247 247
267 268 268 268 268 266 265 265 265 263 261 261 262 262 262 261 263 263 258 257 256 256 253 252 253 254 254 251 251 251 251 251 252 252 248 246 247 248 248 247 246 245 244 245

GFSNGP_sfc_thetae_051.txt.gz
Theta_e
292 294 294 292 292 293 291 291 287 289 290 295 297 298 299 301 300 301 302 300 303 305 308 310 312 314 315 315 315 317 316 317 316 317 319 320 319 320 321 319 316 312 309 309
289 293 293 290 292 293 293 293 292 292 291 298 299 300 298 300 301 301 302 302 301 307 308 309 311 313 314 316 316 317 316 317 318 319 319 318 319 320 316 312 312 310 309 307
283 289 289 285 290 292 293 295 295 290 294 298 298 299 299 300 300 301 302 303 302 302 309 310 311 312 312 314 315 317 317 318 318 319 319 318 316 312 311 309 306 304 302 303
283 284 280 289 294 295 294 295 296 296 297 298 298 299 300 300 300 301 302 303 301 301 308 312 313 313 312 315 316 316 317 317 318 318 317 312 310 308 304 303 301 300 299 298
278 281 286 288 294 292 291 291 297 296 297 298 298 295 295 299 300 302 303 304 303 300 308 311 312 311 311 315 315 315 315 313 313 312 308 307 304 302 300 299 298 298 297 298
284 280 277 285 294 298 299 288 298 299 297 297 297 289 294 299 299 300 301 300 304 308 310 311 309 311 310 311 312 311 309 308 307 306 305 302 300 298 298 297 295 294 292 293
282 281 284 292 296 300 287 287 299 300 299 298 294 296 299 299 300 302 302 305 307 309 310 309 307 308 305 304 305 305 305 303 302 301 299 297 295 294 294 293 292 288 285 286
285 281 278 299 297 290 294 298 300 301 301 299 300 300 300 301 301 303 304 305 307 306 303 303 305 305 301 299 299 299 297 296 296 295 295 294 294 293 293 290 287 284 282 281
286 285 294 299 297 300 300 300 301 302 303 302 300 300 301 301 301 301 302 302 303 302 299 299 301 302 298 296 297 296 295 294 294 294 293 292 291 290 288 286 286 283 282 279
289 292 295 298 301 301 301 303 304 305 302 303 301 302 302 301 300 300 299 299 298 298 297 295 297 297 296 296 296 295 293 292 290 287 285 285 285 287 285 284 284 283 281 278
289 293 295 297 298 300 302 305 304 304 303 302 302 302 301 302 300 299 299 298 298 297 295 294 295 295 295 295 295 290 287 286 284 282 281 280 281 283 282 283 285 282 280 278
286 294 293 295 298 299 300 300 300 300 300 301 301 301 302 302 300 298 297 296 295 294 294 293 292 291 292 293 290 287 283 283 281 280 280 280 279 279 283 283 283 283 282 280
292 293 294 297 297 294 296 295 293 291 289 288 290 297 301 297 296 292 293 290 288 287 287 286 285 285 286 286 286 284 282 282 280 280 279 279 278 278 276 279 281 281 280 279
293 293 295 293 290 290 290 291 290 287 286 284 285 288 288 287 286 284 283 283 283 282 282 282 282 281 283 284 283 282 282 282 281 281 280 280 279 279 279 277 275 276 279 279
290 293 291 291 289 287 287 286 283 281 281 280 280 280 280 279 279 280 281 281 281 280 280 280 280 280 282 282 281 281 281 280 280 280 280 280 280 279 279 278 277 276 276 276
288 290 290 286 284 284 283 282 280 279 279 279 278 277 277 277 277 277 277 278 277 276 277 277 278 279 280 280 280 279 279 279 279 278 278 278 278 277 277 276 276 276 275 274
285 284 284 283 281 280 280 280 280 279 278 278 277 277 277 276 276 275 275 275 275 275 275 275 275 277 278 278 278 277 277 277 277 276 275 275 275 275 275 274 274 273 272 272
282 281 281 280 279 278 277 278 278 277 276 276 276 275 274 273 272 272 272 273 272 272 273 275 275 276 276 276 276 276 275 275 275 274 273 273 273 274 273 273 272 271 271 271
279 278 278 278 278 277 277 276 276 276 275 274 273 272 272 272 272 272 272 271 270 270 271 274 275 274 274 275 274 274 273 273 273 272 272 272 271 271 270 270 270 269 270 269
277 277 276 276 276 276 275 274 274 274 274 274 273 272 271 271 271 270 270 268 269 270 272 273 273 273 273 273 273 272 271 270 270 269 269 269 268 268 268 268 267 266 265 265
274 275 274 274 273 274 274 275 274 273 273 273 272 271 271 271 271 270 269 267 269 271 271 271 272 271 271 271 270 269 269 268 267 266 265 264 263 263 262 262 261 260 258 257
275 274 274 273 273 272 273 274 273 273 272 272 272 272 270 270 269 269 269 268 269 270 270 269 268 267 267 267 267 266 265 264 263 262 260 259 258 256 254 254 254 254 253 253
274 275 274 273 272 272 273 272 271 271 270 270 269 269 269 269 270 267 265 268 269 267 267 265 264 263 262 262 261 260 259 259 259 258 257 254 251 250 251 250 250 250 249 253
273 273 272 273 273 272 271 271 272 271 270 271 269 269 269 267 267 268 267 264 263 263 262 261 260 259 257 256 256 255 254 251 250 249 251 250 246 246 246 246 248 248 249 251
271 271 271 270 270 270 271 271 270 269 268 268 268 269 269 268 265 266 266 264 264 261 259 256 256 254 253 251 250 248 248 249 248 248 246 246 245 245 245 246 246 247 246 245
269 268 268 268 268 268 267 267 266 266 265 263 263 262 263 264 263 262 259 258 259 257 254 251 251 251 250 250 247 247 248 251 249 248 246 245 245 247 246 246 245 244 243 243
267 267 266 265 265 264 264 264 262 259 256 255 257 258 259 258 257 257 253 252 251 250 248 247 247 250 249 246 248 248 249 248 248 248 244 244 245 246 246 244 243 242 242 241

GFSNGP_sfc_thetae_054.txt.gz
Theta_e
292 293 293 290 290 290 288 288 286 287 288 293 297 297 298 299 299 299 300 299 300 303 306 310 310 311 313 313 313 313 311 310 310 311 312 313 314 316 317 318 318 318 318 317
287 292 289 287 291 290 290 290 290 290 289 295 298 298 297 299 299 299 299 300 301 301 304 305 310 311 312 313 313 314 313 312 312 312 312 312 314 316 317 318 318 319 316 314
282 287 287 283 286 287 290 292 292 287 292 297 296 298 298 299 299 299 300 301 301 301 303 307 308 311 311 312 313 313 313 314 314 314 313 314 315 317 318 318 317 312 310 309
281 282 276 287 293 294 290 291 291 292 296 297 297 300 300 300 299 299 300 301 301 302 301 305 308 310 311 311 312 313 313 313 313 314 315 315 317 317 316 311 309 307 303 304
277 278 284 286 292 292 289 288 292 293 298 299 298 295 295 297 298 299 299 300 301 301 300 302 307 309 310 310 311 311 313 313 313 313 314 312 310 307 306 302 301 300 299 298
282 275 274 282 290 297 296 284 297 297 297 297 297 288 295 300 299 299 299 299 300 299 303 306 308 310 311 312 312 312 312 310 310 309 307 305 302 300 299 299 296 295 293 295
282 280 282 289 295 299 284 282 295 298 298 297 294 295 300 302 301 301 300 301 302 305 306 308 307 309 310 312 309 305 305 305 305 304 301 298 296 296 296 294 290 288 287 287
283 281 276 295 295 289 292 295 297 297 297 297 299 301 300 301 300 301 302 303 305 304 303 302 305 305 304 302 302 302 301 299 297 296 296 295 294 293 291 289 286 284 283 282
284 283 291 296 294 298 299 297 299 298 300 300 299 300 301 301 301 301 300 300 300 299 298 299 301 302 297 295 298 298 296 295 294 293 293 293 291 290 288 287 285 284 283 280
286 289 291 294 296 297 297 299 301 302 301 302 300 300 299 300 300 299 298 299 299 298 296 294 296 297 296 296 296 296 292 291 290 288 287 287 287 287 287 286 284 283 281 279
286 290 293 295 296 294 296 299 300 302 302 297 295 295 297 299 298 298 298 297 297 295 293 292 294 294 295 296 293 288 287 285 285 284 284 282 282 282 283 284 285 283 282 280
282 293 292 293 295 292 294 292 292 291 290 289 289 292 296 293 292 293 293 292 291 289 288 287 287 287 289 290 289 287 284 283 282 282 282 281 281 280 284 284 283 282 281 280
291 292 293 294 292 290 289 289 289 287 285 284 285 285 285 282 283 284 283 284 283 283 283 282 282 282 284 285 285 284 282 281 281 280 280 279 279 279 276 279 282 281 281 280
292 292 293 290 287 287 286 287 286 283 282 281 281 281 280 280 280 280 280 281 282 281 281 281 281 281 282 283 282 282 281 281 281 280 280 279 279 279 279 277 275 276 279 279
287 289 291 289 287 284 284 284 281 279 279 278 278 278 278 277 277 277 279 280 279 278 278 279 279 280 282 282 281 281 281 280 280 280 280 280 280 279 279 277 276 275 276 277
286 288 289 284 283 282 281 281 279 278 278 277 277 277 276 276 275 275 276 276 275 274 275 275 276 277 279 279 279 278 278 278 278 278 277 277 277 277 276 276 276 275 274 273
282 282 282 281 279 278 278 279 278 277 277 276 276 276 275 274 274 273 273 273 273 273 274 274 274 276 276 277 276 276 275 275 275 275 274 274 274 274 274 274 273 272 271 272
280 279 279 279 278 276 276 277 276 276 274 274 274 273 272 271 270 270 271 272 272 271 273 273 274 274 274 275 275 275 274 273 273 272 272 272 271 271 271 271 271 270 271 270
278 277 277 277 277 276 275 274 274 274 273 273 271 270 270 270 269 270 270 270 269 269 270 273 274 272 272 273 273 272 272 271 271 271 271 269 269 269 268 268 267 267 267 267
275 276 276 275 276 275 273 273 273 273 273 272 271 270 269 269 269 269 268 267 268 270 271 271 271 270 271 271 271 271 270 269 269 268 267 266 265 264 264 264 263 261 258 258
274 274 273 273 272 273 273 273 273 272 272 271 269 268 267 268 269 269 267 266 268 270 269 268 268 268 268 268 268 266 265 264 263 262 260 259 258 257 255 254 255 253 252 252
273 272 272 272 271 271 272 272 271 270 270 270 270 269 268 267 266 266 267 266 267 267 266 266 265 263 264 264 264 262 262 261 260 259 257 255 253 251 248 249 249 249 248 249
273 273 272 271 271 270 271 270 270 269 268 268 267 267 267 267 267 265 263 266 266 264 264 261 261 260 259 259 258 257 255 255 254 252 249 247 246 245 247 247 246 246 247 249
272 272 272 272 272 271 269 269 270 269 268 268 267 266 267 265 265 266 265 261 260 260 258 257 256 256 254 253 252 251 250 248 247 245 247 246 243 243 244 244 246 245 245 246
271 271 270 270 270 269 269 268 267 267 266 265 265 266 266 266 261 262 260 259 260 257 253 251 253 251 249 247 246 246 246 246 245 245 244 244 243 243 243 243 243 243 243 243
268 267 267 267 267 267 266 266 263 263 264 261 261 260 258 260 259 259 256 255 256 254 251 246 246 246 245 247 245 245 246 248 246 246 244 243 243 245 244 244 242 242 241 242
265 265 265 264 264 263 263 262 260 256 254 253 256 258 256 254 253 255 249 248 248 246 245 244 244 247 246 245 248 247 247 246 245 245 242 243 243 242 242 241 241 242 242 241

GFSNGP_sfc_thetae_057.txt.gz
Theta_e
293 293 293 291 291 292 290 291 288 290 291 296 299 301 304 305 304 304 305 306 305 306 311 313 314 316 316 316 316 316 314 314 314 315 316 316 316 317 317 317 316 318 319 318
288 292 291 288 291 290 292 292 292 292 292 298 300 302 301 303 303 304 305 305 307 307 307 310 313 314 316 316 317 317 315 314 315 316 316 316 317 317 318 318 319 319 320 318
283 288 288 284 290 290 291 293 293 288 292 296 300 300 300 302 304 302 304 305 306 306 308 309 311 314 315 317 318 317 316 316 316 316 315 315 316 316 317 318 320 320 319 319
283 285 277 288 295 294 294 294 294 293 294 300 301 302 304 303 303 304 304 304 306 307 309 310 311 313 316 316 317 317 316 316 316 316 315 315 315 315 317 319 319 318 317 316
282 282 285 288 291 292 292 290 296 296 299 300 302 302 303 304 306 305 306 305 304 306 307 308 308 311 313 314 316 315 316 316 316 317 316 317 316 317 318 312 308 304 303 302
283 280 277 286 292 298 296 286 297 298 299 299 301 296 300 305 305 306 306 306 305 305 305 305 307 311 312 313 314 315 315 316 317 317 317 316 313 309 303 302 298 297 295 295
283 282 285 292 295 298 284 287 298 299 300 299 298 301 304 305 305 305 305 306 308 310 308 309 311 313 313 314 313 311 312 312 310 309 305 302 299 298 296 294 291 289 287 289
285 281 279 294 297 291 295 299 299 300 300 300 302 303 303 303 303 304 303 304 305 306 305 307 310 313 311 304 305 305 303 300 299 298 298 297 296 295 292 290 287 285 284 283
288 287 294 298 297 297 298 297 299 300 302 302 302 302 302 301 301 302 302 303 303 303 301 300 303 307 302 299 300 299 297 295 295 294 294 294 292 290 288 288 286 285 283 282
289 292 293 296 298 296 297 295 295 297 294 294 292 294 296 299 298 298 299 299 300 299 297 296 297 298 299 299 298 296 292 291 290 289 288 288 288 289 287 286 285 284 282 281
290 292 295 295 294 293 294 294 293 293 291 289 288 289 292 289 289 290 290 291 292 292 291 290 291 291 293 294 293 291 290 288 287 286 285 283 283 284 284 284 286 284 282 281
288 293 292 293 292 291 292 290 289 288 287 287 286 285 286 284 285 285 284 285 286 285 285 284 286 287 288 290 290 289 287 286 285 285 285 283 282 281 283 283 283 282 282 281
290 293 293 295 290 289 288 288 286 284 283 282 283 283 283 282 282 282 282 282 282 282 282 283 283 283 284 285 285 285 284 283 282 281 281 280 280 279 277 280 282 282 281 281
291 292 292 289 287 287 286 286 284 283 281 280 281 281 280 280 280 279 279 279 280 279 280 280 280 280 282 283 283 282 282 281 281 281 280 280 280 281 281 279 278 278 280 280
286 288 290 288 286 284 284 284 281 280 279 278 279 278 278 277 276 276 278 278 278 277 277 278 278 278 280 280 279 280 280 280 280 280 280 280 281 280 279 278 277 276 276 276
284 286 286 283 281 281 281 280 278 278 278 277 276 276 275 275 274 274 275 275 274 273 274 274 275 276 278 278 277 277 277 277 278 279 279 279 279 278 278 277 277 276 275 274
281 281 281 279 278 278 277 278 277 276 276 275 275 275 274 274 273 273 273 273 273 273 274 274 274 275 276 276 277 276 276 276 276 276 276 276 276 276 276 275 274 274 273 273
280 279 279 279 277 276 276 276 275 275 273 273 273 272 271 271 270 270 271 272 272 271 272 273 273 274 274 275 275 275 275 274 274 273 274 273 273 274 273 272 273 272 271 270
278 277 277 276 276 276 275 274 273 273 272 272 270 269 269 269 269 270 270 270 269 269 270 272 273 272 272 273 274 274 273 272 272 272 271 270 271 270 270 269 269 269 269 269
275 275 275 275 275 274 273 273 273 272 272 271 270 270 269 269 269 269 268 267 267 268 270 270 270 270 270 269 270 270 270 269 269 268 268 267 267 267 267 266 266 266 267 267
273 273 272 272 271 272 272 272 271 270 270 270 268 267 267 267 268 269 267 265 266 268 268 267 268 268 268 268 268 268 267 266 265 265 265 264 265 264 264 264 264 264 264 264
273 272 271 271 270 270 271 271 271 270 270 269 269 268 268 267 266 266 266 265 266 266 266 266 266 263 265 266 266 265 265 264 264 264 264 263 263 262 262 262 261 262 262 262
273 272 272 271 270 270 270 270 269 269 268 267 266 267 267 267 267 265 264 266 266 264 265 263 261 261 261 263 263 263 262 262 262 261 261 261 261 261 261 260 260 260 260 260
273 272 272 272 272 270 269 270 270 269 268 268 266 266 267 265 265 266 265 262 260 261 261 261 259 258 259 262 262 261 262 261 261 261 261 257 259 259 260 259 259 259 259 258
271 271 271 270 270 269 268 268 268 267 266 266 266 266 266 266 265 263 264 263 261 261 261 255 255 256 260 261 260 260 260 260 260 260 259 259 258 258 258 258 257 257 257 256
269 268 268 268 268 268 267 267 266 266 265 263 263 262 262 263 263 263 262 260 261 259 260 259 258 259 259 260 259 259 260 260 260 259 257 258 258 258 257 256 256 255 254 254
266 266 266 265 265 265 266 265 264 262 262 263 262 262 261 261 261 261 257 260 260 259 258 258 258 258 259 259 259 259 259 259 255 258 257 257 256 256 255 254 254 253 253 253

GFSNGP_sfc_thetae_060.txt.gz
Theta_e
294 294 295 294 294 295 294 295 291 294 294 298 301 302 304 307 308 309 310 311 313 313 315 318 319 322 322 322 322 322 321 319 321 322 321 321 321 321 321 321 321 321 321 322
289 292 293 290 293 294 294 296 296 297 296 302 303 304 305 307 308 307 307 310 312 313 314 314 317 320 322 322 322 322 321 320 320 321 321 320 320 320 320 321 320 320 320 320
284 290 290 286 291 293 296 298 297 294 298 300 299 303 305 307 307 307 308 308 309 310 311 313 315 317 320 322 323 322 321 320 320 320 320 320 320 320 319 320 321 320 321 321
285 287 279 291 298 298 297 298 299 297 298 301 303 306 308 308 309 309 309 310 311 311 312 313 314 315 318 321 323 322 322 321 321 320 320 320 320 319 320 321 321 321 322 322
284 284 287 290 293 294 295 293 298 297 299 301 304 307 307 309 309 309 310 311 312 314 314 313 313 313 314 316 319 321 321 321 322 321 320 320 319 320 321 321 321 321 321 322
287 282 280 290 296 300 298 288 299 299 299 300 302 298 304 308 309 308 310 312 312 314 316 316 314 315 313 315 316 317 319 321 322 322 321 321 321 321 321 321 318 305 297 298
285 284 287 295 297 301 286 290 300 301 301 302 300 303 307 309 308 308 309 309 311 313 313 312 314 316 315 316 315 318 320 320 321 322 321 322 319 312 305 297 293 290 288 289
286 283 281 298 297 291 298 302 302 303 304 304 304 306 306 306 306 306 306 307 308 308 307 304 306 313 314 310 311 313 311 307 305 304 302 302 300 296 295 292 288 286 285 284
290 289 299 302 300 301 302 300 300 300 301 301 302 301 302 303 300 300 300 301 303 302 298 297 298 300 300 299 300 299 297 295 294 294 294 295 294 293 292 290 287 285 284 282
292 295 297 300 301 301 301 299 299 298 298 298 297 298 298 297 294 294 291 294 295 294 289 288 291 292 294 297 296 295 292 289 289 288 287 288 289 289 287 286 285 284 282 280
292 295 298 298 298 299 299 299 297 297 295 293 294 295 295 294 292 292 289 289 289 288 286 285 286 287 290 292 292 289 288 287 286 285 284 282 282 284 284 285 286 283 282 281
290 296 296 296 296 296 297 295 294 292 292 292 290 290 289 288 289 287 285 285 285 285 283 284 284 285 286 288 290 287 286 285 285 285 284 282 281 280 283 283 283 282 282 281
295 297 297 297 295 294 293 290 290 289 288 287 288 288 287 283 283 282 281 281 281 281 282 282 281 281 283 284 285 284 283 283 282 282 282 281 280 280 278 281 282 282 282 282
294 294 294 294 292 291 290 288 287 287 286 285 285 284 282 281 280 279 278 279 279 279 278 279 278 279 281 282 282 281 281 281 282 282 282 282 282 282 282 280 279 279 281 281
288 289 289 289 286 285 285 285 283 281 281 280 279 278 278 276 275 276 277 277 277 277 277 277 277 277 280 280 279 280 281 280 281 282 282 282 282 282 281 280 278 278 278 278
287 288 285 282 281 281 281 281 279 277 277 277 277 277 276 276 275 275 275 275 274 274 275 275 275 277 280 281 281 280 280 279 280 281 281 281 281 281 280 279 278 278 277 277
284 283 283 280 279 279 279 279 279 276 276 277 277 277 277 276 274 274 274 274 273 274 274 275 275 276 278 279 280 280 280 279 278 278 278 278 278 277 278 277 276 274 273 274
282 282 281 281 280 278 278 278 277 276 275 275 274 273 273 272 272 272 273 273 273 272 273 273 274 275 275 277 279 279 278 278 277 276 276 276 275 276 275 275 274 274 273 273
281 279 279 279 278 277 276 275 274 273 273 273 272 271 271 271 271 271 272 271 271 270 270 272 273 273 273 274 276 277 276 275 275 274 274 273 273 273 273 273 273 272 272 272
277 277 277 276 276 275 273 273 273 272 273 273 272 271 271 270 270 270 269 268 268 269 270 271 272 272 272 272 273 273 273 273 272 271 271 272 271 271 271 269 270 271 271 270
275 274 274 273 273 273 273 273 272 271 271 271 270 269 268 269 269 271 270 268 268 269 270 269 269 270 271 271 272 272 271 271 270 270 269 269 269 269 269 269 269 268 269 268
274 273 272 272 271 271 272 272 272 271 271 270 270 270 269 269 268 267 267 268 269 268 269 268 268 266 268 268 269 269 268 268 268 268 268 268 268 267 267 267 266 267 267 267
274 273 273 272 271 271 272 271 271 271 269 269 269 269 270 270 271 269 266 268 268 267 268 266 264 264 266 268 268 268 267 267 267 266 266 266 266 266 266 265 265 265 265 264
274 274 273 274 274 273 271 272 272 271 269 269 268 269 270 269 269 269 268 265 264 265 264 264 263 263 266 268 267 267 267 266 266 266 266 264 265 265 264 264 263 264 263 263
274 274 274 273 272 272 271 271 270 270 270 269 269 269 269 270 268 268 268 267 264 266 266 262 262 263 266 266 265 265 265 265 264 265 264 264 264 263 264 263 262 262 261 261
272 272 272 272 272 272 272 272 271 271 270 268 268 269 269 269 268 268 267 265 265 265 265 265 264 265 266 265 265 264 264 265 264 264 262 263 263 263 262 261 261 260 260 260
271 271 271 271 271 271 271 271 270 269 269 269 267 268 268 268 267 267 265 266 266 265 265 265 265 263 264 264 264 264 264 264 261 262 263 262 262 261 260 260 260 259 259 258

GFSNGP_sfc_thetae_063.txt.gz
Theta_e
294 296 297 295 294 295 294 295 291 295 295 299 302 303 304 306 309 310 311 311 313 314 316 319 322 324 325 325 326 326 323 322 323 326 327 326 327 327 327 327 326 327 326 327
291 294 295 293 296 297 297 297 297 297 297 304 305 304 304 307 308 308 310 311 313 313 314 315 316 319 323 324 325 326 324 324 324 325 325 325 326 326 327 326 326 326 325 324
284 291 290 287 293 294 295 298 298 293 299 303 301 302 304 305 308 308 309 310 311 313 314 315 316 317 318 322 325 325 325 324 325 325 324 325 325 324 324 325 326 324 324 324
286 288 279 292 298 299 297 299 300 300 300 301 303 305 306 310 308 308 309 310 312 314 315 317 318 317 317 318 320 324 323 324 324 325 324 325 324 323 324 324 324 323 323 324
284 285 289 291 294 296 296 295 300 298 300 301 303 304 306 310 310 308 309 310 312 314 316 317 317 319 318 316 316 319 322 323 324 325 323 324 323 324 324 324 324 324 324 323
288 282 280 291 298 300 301 291 300 300 300 300 302 297 303 308 310 309 310 310 310 312 313 308 307 311 316 317 316 315 317 321 324 324 323 323 324 325 325 325 323 321 311 301
286 285 289 296 298 301 288 291 301 302 303 303 301 304 307 309 309 309 309 307 308 310 305 298 297 300 314 316 315 318 321 320 321 323 324 324 325 323 321 313 299 293 289 290
287 284 281 299 297 293 299 303 302 303 303 303 305 306 306 307 305 304 303 303 304 304 300 293 292 293 296 298 302 304 306 303 302 303 304 306 305 301 297 293 290 288 287 284
289 289 300 303 302 304 304 302 302 302 302 302 302 302 303 303 301 301 300 300 299 298 295 291 289 289 288 292 295 295 293 292 291 291 291 292 292 292 291 291 288 285 284 282
293 297 299 302 303 303 303 302 302 302 301 300 299 301 300 300 299 298 297 296 295 293 289 288 288 287 287 289 291 290 288 287 286 285 284 286 286 287 287 285 285 284 282 280
294 297 300 300 301 301 302 302 300 300 298 297 296 297 295 295 293 292 292 291 291 289 287 284 285 285 286 287 288 287 286 285 284 283 283 282 282 283 282 283 284 283 281 281
292 299 299 297 300 299 299 297 296 296 295 295 293 292 291 288 286 284 284 284 284 284 284 282 282 282 283 284 285 284 283 283 283 282 283 281 281 280 283 283 283 283 283 282
297 299 300 299 298 297 296 294 293 292 291 291 290 289 287 283 282 281 280 280 281 279 280 280 280 280 281 283 283 282 282 282 282 282 282 280 280 279 277 280 282 282 283 282
295 296 296 293 288 290 292 291 290 289 287 286 286 284 282 280 278 278 277 278 279 278 278 279 279 280 282 283 283 282 282 283 283 283 283 282 282 281 280 278 277 277 280 280
291 292 292 290 287 286 287 286 284 283 283 282 281 281 281 279 278 278 279 280 279 278 278 278 278 279 282 283 282 280 282 283 283 283 283 283 283 281 280 279 279 278 278 279
290 289 288 285 283 283 283 282 281 280 279 278 278 278 278 279 278 277 277 277 275 275 276 276 276 278 281 283 282 281 280 280 281 281 281 281 281 280 279 278 276 275 276 278
286 284 285 284 284 283 281 281 281 280 280 279 279 279 279 278 277 275 275 275 274 274 274 274 275 276 279 281 281 280 280 279 279 279 279 279 279 278 277 276 274 273 273 275
283 283 284 283 281 280 279 279 279 278 276 276 276 275 274 273 273 273 274 274 273 272 273 274 275 275 276 279 279 279 279 278 277 277 276 276 276 276 276 275 275 274 274 273
282 281 281 280 280 279 277 276 275 275 274 274 273 271 271 271 271 271 271 271 271 270 270 273 274 274 274 275 277 277 276 276 276 275 275 275 274 274 274 274 274 273 273 272
278 279 278 277 277 276 274 274 274 273 274 274 273 272 271 271 272 271 270 268 269 270 271 271 273 273 273 273 274 275 274 274 273 272 272 273 273 272 272 271 272 272 271 271
276 276 275 274 274 274 274 274 273 271 272 272 270 269 269 269 269 272 272 269 269 270 271 270 269 271 272 272 273 273 273 272 272 272 271 271 271 271 270 270 270 270 270 270
276 275 274 274 273 273 274 274 274 273 272 272 272 272 272 271 270 269 268 270 270 269 270 269 268 268 270 271 272 271 270 270 270 270 270 270 270 269 269 269 268 268 268 268
275 275 274 274 273 273 273 273 273 272 271 271 270 270 270 270 271 270 267 268 269 267 269 267 265 267 269 271 271 271 270 269 269 269 268 269 268 268 268 267 267 267 267 266
276 276 275 276 276 275 273 273 273 271 270 270 270 270 273 272 271 271 270 268 267 267 266 265 265 266 268 270 269 269 269 268 268 268 268 267 267 267 267 266 265 266 265 265
276 276 276 275 274 274 273 273 272 272 272 271 271 271 271 272 271 270 270 269 266 269 269 265 265 267 269 269 268 267 268 268 266 266 266 266 266 266 266 265 264 264 263 264
276 275 275 275 275 275 275 275 274 274 273 272 271 271 271 271 271 271 269 267 268 268 268 268 267 267 268 267 267 267 267 267 266 266 265 265 265 265 264 264 263 263 263 263
274 274 274 274 274 274 274 274 274 272 273 272 270 271 271 271 269 270 268 269 269 268 269 268 268 266 266 265 267 266 266 266 265 264 264 264 264 264 263 263 262 262 262 261

GFSNGP_sfc_thetae_066.txt.gz
Theta_e
292 295 295 292 293 295 293 294 290 294 295 299 302 303 304 307 307 309 310 311 312 312 314 315 320 323 324 325 325 324 322 320 321 323 324 324 323 323 323 323 323 323 322 321
288 294 295 292 294 295 296 296 295 295 295 302 305 306 305 306 308 307 308 309 311 313 314 314 316 316 316 323 325 326 323 322 322 322 323 323 323 324 324 323 323 323 322 321
284 290 290 288 293 294 295 297 297 291 297 301 302 301 303 306 306 306 306 308 310 311 313 315 315 316 315 317 317 324 324 324 324 323 321 322 323 322 322 321 322 321 321 321
284 286 279 292 299 298 296 296 298 299 300 301 302 304 307 308 306 306 307 308 308 310 312 309 308 307 309 312 317 317 320 323 324 324 322 322 322 321 321 321 321 320 321 321
284 284 288 290 294 294 295 294 299 299 300 301 302 304 305 308 308 307 307 307 308 309 305 303 300 302 307 313 314 317 315 317 323 323 322 322 321 320 321 320 320 320 320 320
286 281 279 291 297 300 300 290 299 300 300 300 301 296 300 306 307 305 305 304 305 305 301 297 295 298 302 302 302 301 303 309 310 310 322 321 321 321 321 321 319 316 297 294
284 283 287 295 298 300 288 290 301 302 302 302 300 302 304 305 304 303 303 301 302 301 295 292 292 294 294 294 294 296 298 301 301 300 305 307 314 311 314 299 293 289 287 287
285 283 281 299 297 292 298 301 301 301 301 302 302 302 303 302 301 300 299 298 297 296 294 291 290 290 290 289 292 292 291 290 291 291 293 298 298 296 295 293 289 286 284 283
288 287 300 302 301 303 303 301 301 301 301 301 300 300 300 299 298 296 295 294 294 293 290 289 288 288 286 289 290 289 287 286 285 286 286 288 290 291 289 288 286 284 283 282
292 294 298 300 301 302 302 300 300 300 299 298 297 297 296 294 291 289 288 288 288 288 285 284 285 285 285 287 288 287 285 284 284 283 282 283 284 283 284 285 283 282 281 280
293 296 298 298 299 300 299 298 298 298 296 294 295 293 292 288 286 285 284 284 284 283 281 281 282 282 284 285 287 285 284 283 282 282 282 281 281 281 281 282 282 281 281 281
290 296 295 294 297 299 295 294 294 293 293 292 292 290 288 284 282 281 280 281 280 280 280 281 281 282 283 284 285 284 283 282 281 281 281 280 280 279 283 283 283 283 283 281
292 298 296 295 294 296 293 292 292 289 289 289 287 286 283 280 280 280 279 279 279 279 279 280 281 281 282 282 284 283 283 283 283 282 282 281 279 278 276 279 281 281 282 282
294 297 291 291 289 291 291 290 289 287 286 285 284 283 282 280 280 279 279 279 279 278 278 278 279 280 282 282 282 282 283 283 282 282 281 280 279 278 278 276 275 276 280 280
292 292 290 290 289 287 287 287 284 282 281 281 281 280 280 278 277 276 278 278 277 276 276 276 275 277 281 282 281 280 281 281 281 281 281 281 280 278 277 276 276 276 278 278
290 289 287 285 284 284 283 282 280 279 279 278 278 278 278 277 276 275 274 274 273 272 273 273 273 274 279 281 280 279 279 278 279 279 279 278 277 276 275 274 273 273 273 274
287 283 285 284 283 282 281 282 281 279 279 278 278 278 277 276 275 274 273 273 272 272 272 272 273 274 275 278 279 279 278 277 276 277 276 276 276 275 275 274 273 272 272 273
284 283 284 283 281 280 279 279 278 277 275 275 274 273 272 271 271 271 271 272 271 269 271 273 274 274 274 275 277 277 276 276 276 275 275 274 274 275 274 273 273 272 271 271
282 280 280 280 279 278 276 275 274 274 274 273 272 270 271 270 270 270 270 270 269 268 268 271 274 273 273 274 275 275 274 273 273 273 273 272 271 271 271 272 271 270 270 269
278 278 277 276 276 275 274 274 274 273 273 273 271 271 270 270 271 270 269 267 268 269 270 269 272 272 272 272 272 273 273 272 272 271 271 270 270 269 270 268 269 269 269 268
275 275 274 273 273 273 273 273 272 271 271 271 270 268 268 268 268 270 270 267 268 270 269 269 269 270 271 271 271 271 271 270 270 269 269 269 269 269 268 268 268 267 267 267
275 274 274 274 273 273 274 274 273 273 272 271 271 271 270 268 267 267 267 268 268 268 268 267 267 267 269 271 271 270 270 269 269 268 268 268 267 267 266 266 266 266 266 265
275 275 274 273 273 273 273 273 272 272 270 270 270 270 270 269 269 268 265 267 268 266 267 265 264 264 268 269 269 269 268 268 267 267 266 267 266 266 265 264 264 265 264 263
276 275 275 275 275 274 272 272 272 271 270 270 270 270 272 271 270 271 269 265 264 266 265 264 264 264 267 268 267 267 267 266 265 266 266 264 265 265 265 264 263 264 262 262
276 276 276 275 274 273 273 273 272 272 272 272 272 271 271 271 269 268 269 268 266 267 268 263 263 265 268 267 267 266 266 266 265 265 264 264 264 263 264 263 261 261 260 261
276 275 275 275 275 275 275 275 274 274 273 271 271 271 271 271 270 270 269 267 268 267 268 268 266 266 266 266 266 266 265 266 265 264 262 264 263 263 262 261 260 260 260 259
275 275 274 274 273 273 272 273 273 272 272 272 270 271 271 270 268 268 266 269 269 269 268 268 268 266 266 264 265 266 265 265 264 263 262 263 263 262 261 260 260 259 259 258

GFSNGP_sfc_thetae_072.txt.gz
Theta_e
289 289 289 291 291 292 290 291 287 291 292 297 301 302 304 303 304 305 305 303 303 303 302 303 304 306 310 311 312 317 317 316 316 316 316 316 317 317 318 318 318 318 317 317
284 290 290 287 291 293 291 293 292 293 293 301 304 305 303 303 302 303 302 301 299 298 297 296 298 301 303 304 305 306 307 311 313 316 316 316 316 316 317 317 317 317 317 317
279 286 286 283 289 292 292 295 294 290 296 301 301 302 301 300 301 300 299 297 295 295 293 293 294 297 297 299 300 300 301 303 302 304 305 312 316 316 316 316 317 317 317 317
279 282 276 288 292 294 294 296 298 297 299 301 298 299 299 298 298 297 295 293 292 291 290 291 292 294 295 295 296 296 296 297 297 298 299 301 304 307 317 317 316 317 318 318
277 277 283 286 293 293 293 292 298 298 301 300 298 297 294 296 296 295 293 291 290 289 288 288 289 292 293 292 291 291 290 292 292 293 295 296 297 299 301 303 317 317 318 318
280 276 275 288 294 299 299 287 298 301 300 298 298 289 289 293 292 292 291 289 287 287 286 286 287 290 290 289 288 287 287 287 289 289 291 290 292 294 295 298 301 299 290 288
278 276 281 291 297 299 286 288 300 302 301 298 293 292 291 290 288 288 288 287 287 285 284 284 286 288 287 287 285 286 285 285 285 286 287 287 288 290 291 289 287 286 284 283
278 276 275 294 297 289 295 298 299 298 296 293 291 290 288 287 285 285 285 285 286 284 283 284 285 286 285 285 286 285 284 283 283 284 284 285 285 286 287 286 284 283 283 282
282 281 293 297 297 299 298 294 295 295 294 292 289 287 285 283 283 282 282 283 284 283 282 283 283 284 283 284 285 283 282 281 282 281 282 283 282 283 283 284 283 282 281 281
288 289 292 294 295 295 294 292 293 293 292 289 286 284 282 282 282 281 281 281 282 281 280 280 282 282 284 285 284 283 282 281 281 280 280 281 282 282 281 281 281 281 281 280
289 291 290 291 292 292 292 290 289 289 287 285 284 282 281 280 280 280 280 280 280 279 279 280 281 281 282 284 284 282 282 281 280 279 278 279 280 280 280 282 282 280 280 281
285 288 289 290 290 290 288 287 287 284 282 282 281 279 279 278 279 278 277 277 276 276 277 278 279 278 279 281 282 281 279 279 278 278 277 277 277 277 281 281 282 283 283 282
287 289 287 288 288 288 285 284 284 282 281 279 279 279 278 277 277 277 275 275 274 274 275 276 276 278 277 277 278 278 279 279 277 277 276 275 275 274 273 276 279 279 280 280
291 289 284 286 284 285 283 282 283 281 280 279 279 278 277 275 275 274 273 273 274 274 273 274 274 274 278 276 275 275 276 276 276 275 273 273 272 272 272 273 271 272 276 277
286 287 285 285 283 282 281 280 278 278 277 276 276 274 274 272 272 272 273 273 273 272 272 272 272 272 274 275 274 273 274 275 273 273 273 272 272 272 271 271 271 271 271 271
286 284 283 282 280 280 279 278 276 275 274 272 271 271 271 271 271 271 271 271 269 268 269 268 269 269 271 272 271 272 272 273 272 272 272 272 271 270 270 269 268 268 268 268
283 281 281 280 280 279 279 278 277 276 275 274 274 274 273 271 270 269 268 268 266 265 266 266 266 268 270 269 268 269 270 271 269 270 269 271 271 270 269 268 267 267 266 267
280 281 281 280 277 276 275 275 275 274 272 271 270 268 266 267 266 265 263 263 263 264 264 264 266 268 269 269 270 270 269 270 270 268 268 267 268 268 267 266 266 265 265 264
278 277 277 276 275 274 273 272 271 271 270 269 268 266 265 265 264 261 260 260 260 261 262 264 271 268 268 271 270 269 268 267 268 267 267 264 264 265 264 264 264 263 263 263
273 274 273 273 273 272 270 270 270 269 268 268 266 265 262 258 258 259 259 259 258 260 264 266 267 267 269 268 267 268 266 264 267 265 263 262 259 257 260 261 261 259 257 261
269 269 269 268 267 267 266 266 265 264 262 262 262 259 259 259 257 256 261 262 263 265 266 265 266 266 268 266 266 261 261 259 258 258 256 253 254 255 255 253 254 252 252 254
266 268 267 267 268 267 266 266 266 264 263 262 259 258 260 262 262 263 260 263 265 262 263 264 264 260 263 263 263 258 261 260 258 257 255 252 250 249 248 250 251 249 248 249
269 269 268 266 266 266 267 266 266 265 264 264 263 263 265 266 265 260 260 265 265 260 263 259 258 257 257 257 255 252 253 253 253 254 253 250 249 250 250 250 249 248 247 250
270 270 269 269 269 270 268 269 270 268 264 267 264 264 266 262 259 265 264 260 258 255 255 254 258 257 255 252 251 252 251 249 249 248 251 252 248 250 248 248 249 246 248 251
273 272 272 272 272 270 271 271 270 270 269 269 268 268 268 267 261 261 257 257 260 259 256 254 256 255 251 250 251 249 251 253 250 248 248 250 251 253 250 248 247 247 247 249
274 272 272 272 271 270 271 271 268 268 268 263 261 257 256 259 261 260 258 258 260 261 257 254 253 251 250 251 250 250 250 254 251 250 248 248 249 251 250 248 247 247 246 246
271 270 270 269 269 268 268 268 266 264 263 260 260 256 257 255 255 259 260 255 256 255 253 251 256 259 256 253 254 255 253 251 250 252 249 248 248 247 248 249 247 246 245 246

GFSNGP_sfc_thetae_075.txt.gz
Theta_e
287 288 288 287 287 290 288 290 287 289 290 296 298 299 301 303 302 298 297 297 298 297 297 299 302 303 304 306 305 308 315 315 314 314 314 314 314 315 316 316 317 317 316 316
282 287 287 284 287 288 290 292 291 291 290 300 303 304 303 302 299 296 294 293 293 294 294 294 295 296 298 298 300 302 302 302 303 305 309 315 315 315 315 316 316 316 315 316
277 282 282 280 286 286 289 294 292 288 294 301 301 301 301 299 296 293 292 291 290 290 290 291 293 294 293 294 296 296 297 297 298 299 300 301 304 307 313 315 317 317 317 316
277 280 273 285 289 294 291 294 296 296 298 300 296 295 296 298 294 291 290 289 288 288 288 288 291 292 292 291 290 291 291 292 293 294 296 297 298 299 299 301 305 314 316 317
275 276 280 283 291 292 291 292 298 297 298 294 293 292 290 293 292 290 288 288 287 287 287 288 289 290 289 288 287 287 287 288 289 290 291 291 292 293 294 297 296 295 291 290
278 274 272 284 290 297 296 287 298 300 296 294 297 288 287 290 290 288 287 287 286 286 286 286 287 289 286 285 285 284 284 284 287 287 287 287 289 289 291 290 288 286 284 284
276 275 279 287 291 295 282 288 299 301 298 298 293 292 288 288 287 287 287 286 286 285 284 284 286 287 285 283 282 283 284 284 284 285 285 285 286 287 287 286 285 283 283 282
277 277 274 293 294 287 291 297 296 296 293 289 288 287 286 285 285 284 283 284 284 283 282 284 285 285 283 282 282 283 282 282 282 282 283 284 284 285 285 285 283 283 282 282
281 281 291 292 293 294 296 294 293 292 291 289 287 285 284 282 282 282 282 282 282 282 282 282 283 284 283 283 282 282 281 280 281 282 282 282 282 281 281 282 282 281 281 280
287 289 289 290 290 290 293 293 293 293 291 288 284 283 282 281 281 280 281 281 281 281 280 280 281 282 283 284 282 281 279 279 280 280 280 281 281 281 280 280 280 280 280 280
287 289 289 288 289 288 287 288 287 286 285 284 283 281 281 280 279 279 278 279 279 279 278 278 279 279 281 282 282 280 280 279 278 278 279 278 279 279 279 280 281 279 279 279
283 290 289 286 287 287 285 284 284 282 281 281 280 279 279 277 277 276 276 276 276 277 277 277 278 277 277 279 281 279 278 277 276 276 276 276 276 276 280 280 280 280 281 280
286 287 285 286 286 286 283 282 282 280 280 278 279 278 277 276 276 276 275 275 274 275 275 276 276 276 276 275 277 277 277 274 273 272 272 271 271 271 270 273 277 278 278 278
288 289 284 285 280 282 281 280 281 279 279 278 277 277 276 274 274 273 273 273 273 273 273 274 274 273 274 273 274 276 275 275 273 271 271 271 270 270 270 270 268 269 273 275
285 284 282 282 281 280 280 279 277 276 275 275 275 274 274 272 271 271 272 273 273 271 271 271 271 270 272 273 272 271 272 272 271 271 270 270 270 269 268 268 267 267 267 268
284 283 282 280 279 279 278 277 274 273 272 270 270 271 271 271 270 270 269 270 268 266 267 266 268 267 269 269 268 269 269 270 268 270 270 269 268 268 267 266 266 265 264 264
281 280 280 279 279 278 277 277 276 274 274 273 272 272 271 270 268 267 266 266 265 263 264 263 263 265 267 266 266 267 268 268 267 268 269 268 267 267 266 265 264 263 262 262
279 279 278 279 277 276 275 275 274 273 271 271 269 267 266 266 264 262 260 259 260 262 262 262 264 266 266 267 268 268 268 268 268 266 266 265 266 265 264 263 263 262 260 260
276 276 276 275 274 273 272 271 270 270 269 268 266 263 262 260 258 256 256 259 258 260 261 262 270 267 267 269 268 267 266 264 266 265 265 261 261 263 261 259 259 257 259 259
272 272 272 271 271 270 268 268 268 267 266 264 263 262 260 256 255 257 258 257 257 260 264 265 266 267 267 266 265 265 263 262 264 261 260 259 256 254 256 257 257 254 253 254
268 268 268 267 266 267 267 267 267 266 265 265 264 260 258 255 255 255 259 260 261 264 265 265 265 265 266 264 263 259 259 258 256 256 253 251 252 253 250 248 249 248 249 250
268 267 267 267 267 266 266 266 266 263 262 259 256 255 257 260 258 259 256 261 264 260 262 263 263 258 261 261 261 257 259 258 256 255 252 250 248 247 247 247 248 247 247 246
269 269 268 268 267 267 267 266 265 265 262 262 262 261 263 265 264 260 259 264 264 260 263 259 257 256 255 254 253 251 251 251 251 250 249 248 247 246 247 248 247 246 246 247
270 270 269 269 270 269 268 269 269 268 264 266 263 261 265 261 259 265 264 260 256 254 255 253 255 255 253 250 249 249 248 248 248 246 250 249 247 247 246 245 247 245 245 248
272 271 271 271 271 270 270 270 269 269 268 268 268 268 267 266 259 260 256 257 258 258 255 252 254 253 249 248 248 248 248 248 248 246 247 247 248 247 246 245 245 245 245 245
274 273 273 273 272 271 270 270 268 267 267 263 263 256 255 257 260 259 256 256 258 258 255 252 250 249 249 250 249 248 249 253 251 249 247 247 246 248 247 248 246 247 245 245
271 269 269 268 267 267 267 268 266 265 264 264 262 259 258 254 254 257 255 254 254 254 251 250 249 252 252 250 251 251 250 252 254 254 250 248 246 247 248 250 249 248 246 244

GFSNGP_sfc_thetae_078.txt.gz
Theta_e
284 286 286 286 285 286 285 288 285 287 289 294 297 298 300 300 296 294 292 293 294 295 296 298 299 300 302 303 305 307 314 310 307 312 315 314 314 313 313 314 314 313 313 314
281 284 283 281 282 284 285 287 289 290 290 298 302 303 301 299 295 291 290 290 290 291 292 293 294 295 295 296 297 299 299 300 301 303 304 304 307 313 315 315 316 316 316 315
277 281 281 276 282 283 285 288 290 286 292 299 299 301 299 296 294 291 289 288 288 288 289 290 290 291 290 291 293 293 294 294 295 297 297 299 301 301 301 302 304 310 313 316
277 279 270 280 286 287 290 292 293 294 298 298 294 293 295 295 292 289 288 288 287 287 288 289 289 289 288 288 288 288 289 290 291 292 292 294 294 294 295 297 294 292 291 292
274 275 278 281 288 288 287 286 296 296 295 293 292 290 288 290 290 288 287 287 286 286 287 288 288 287 287 285 285 285 285 287 288 289 289 291 290 291 291 290 288 287 287 287
278 273 270 280 287 291 291 283 297 299 294 292 294 287 285 288 288 286 286 286 285 285 286 286 287 286 284 283 283 283 283 284 285 287 287 287 288 288 288 287 286 285 283 284
276 274 278 286 291 294 279 283 295 298 295 294 292 290 286 286 286 286 285 285 285 284 283 284 286 285 283 282 281 282 283 284 284 284 285 286 286 286 286 285 284 283 282 282
278 276 273 292 292 285 291 293 291 291 293 287 286 285 285 284 283 283 282 283 284 283 282 283 285 284 282 280 282 282 282 282 282 282 283 284 283 283 284 284 283 282 282 282
280 280 288 289 289 292 295 292 289 287 287 287 285 283 283 281 281 281 281 281 282 282 281 281 282 283 281 281 281 280 281 280 280 281 281 282 282 281 281 281 281 281 280 280
286 289 289 289 289 288 287 287 290 291 288 286 282 282 281 281 280 280 280 280 280 280 279 278 280 280 282 282 281 280 279 279 280 279 279 280 280 280 280 279 279 279 279 278
285 289 288 288 288 286 285 285 283 284 284 283 282 280 280 278 277 277 278 278 278 278 277 277 278 278 279 281 280 279 278 278 277 278 278 277 278 278 278 279 279 277 277 278
281 285 286 285 287 287 283 282 282 280 279 280 280 278 277 275 276 276 275 276 276 276 276 276 276 276 276 279 280 278 276 274 273 274 274 274 275 275 279 279 279 279 280 278
284 286 283 283 283 283 281 281 280 279 279 277 277 277 276 275 275 275 274 274 274 274 275 275 274 273 274 277 275 273 272 271 270 270 270 269 268 268 267 270 276 277 277 277
285 286 281 281 279 281 279 278 279 277 277 276 276 276 275 273 273 273 272 273 273 273 272 273 272 271 272 273 276 273 271 270 270 269 268 268 267 268 267 266 265 265 270 273
283 283 282 281 281 280 279 278 276 274 274 274 275 274 273 271 270 271 272 272 272 270 270 270 270 268 270 271 270 268 270 269 267 267 268 268 268 267 266 265 264 264 264 266
283 282 281 279 279 278 277 275 272 271 270 270 270 270 270 270 269 268 269 269 267 266 266 264 266 265 266 267 266 266 266 268 267 267 266 266 266 265 265 264 263 262 261 261
282 280 279 278 277 277 276 275 274 273 272 272 271 271 270 269 268 267 266 266 265 264 264 263 261 262 265 265 264 263 263 266 265 266 267 266 265 264 264 262 262 261 260 257
278 278 279 278 276 275 274 274 273 272 271 270 269 268 266 265 264 263 262 262 263 262 261 262 263 265 266 266 266 266 266 266 266 265 265 264 264 264 262 261 261 260 258 258
276 275 275 275 274 273 272 270 269 269 268 267 266 264 262 261 260 258 258 260 260 259 261 261 270 266 265 268 266 265 264 262 264 264 263 260 260 261 258 257 256 254 256 257
271 271 270 269 270 269 267 266 265 266 265 265 262 260 258 256 256 257 256 257 258 261 265 264 265 265 265 264 263 264 262 260 263 260 258 257 252 250 252 255 254 251 249 250
267 267 265 265 264 263 263 262 265 265 264 261 260 257 256 254 254 254 259 260 262 264 265 264 264 264 264 263 262 257 257 255 254 253 251 249 248 250 247 246 248 247 248 248
262 264 263 263 264 264 263 264 264 263 262 260 257 258 260 261 260 261 258 262 264 261 263 263 263 257 260 260 260 255 257 257 254 253 250 248 247 246 246 245 247 246 245 244
266 267 267 265 265 265 266 266 265 264 262 259 258 260 262 264 263 259 258 263 264 260 263 258 256 254 253 251 250 249 250 250 250 249 248 246 245 245 246 247 246 245 245 246
268 268 267 268 268 269 267 267 268 266 261 264 261 259 265 260 258 264 263 259 256 253 254 253 253 254 251 248 248 248 247 247 247 245 248 248 246 246 245 244 246 245 243 244
271 271 270 269 270 268 269 269 268 268 268 268 267 266 266 265 258 259 256 256 258 257 254 252 253 252 247 247 247 247 247 246 246 245 246 245 246 245 245 244 244 244 243 243
272 271 271 272 270 269 269 269 266 266 266 261 261 256 256 256 259 259 256 255 256 257 254 251 249 248 248 248 247 247 248 250 249 248 247 246 245 247 246 247 245 246 247 246
269 267 267 266 266 265 265 266 265 262 262 261 261 259 258 253 252 255 254 253 251 251 251 249 248 250 252 252 250 249 248 248 252 251 247 248 247 247 247 248 249 249 247 245

GFSNGP_sfc_thetae_081.txt.gz
Theta_e
286 287 287 287 285 286 284 286 283 285 287 292 296 300 300 296 294 292 291 290 291 292 293 295 296 298 301 302 305 310 307 306 305 307 314 316 316 319 319 319 317 317 317 319
282 286 284 282 283 283 285 286 287 288 288 296 299 303 301 295 293 290 289 289 289 289 289 290 291 293 294 295 296 299 298 298 299 300 301 303 305 304 308 308 307 315 315 315
278 283 282 278 283 283 286 291 290 286 292 297 298 301 299 295 292 289 287 287 287 287 288 288 288 289 289 290 292 292 293 293 295 296 296 297 298 299 299 297 297 296 295 299
279 280 272 282 288 289 287 291 291 293 297 298 295 293 293 293 291 288 287 286 286 287 287 287 288 287 287 288 288 289 288 289 291 293 293 294 293 294 293 291 290 289 289 290
277 277 280 284 287 286 285 284 296 296 296 294 291 289 286 289 288 287 286 286 286 287 287 287 287 287 287 287 286 286 285 287 288 290 290 291 290 289 289 288 287 286 286 286
279 274 272 281 289 295 293 283 293 294 296 292 292 287 284 288 286 285 285 285 285 285 286 286 286 286 285 284 284 284 284 285 287 287 288 288 288 287 287 286 285 285 283 284
279 277 281 288 292 295 280 284 292 291 295 297 290 287 284 285 284 284 285 285 285 284 284 284 285 285 283 283 282 283 284 284 285 285 285 286 286 287 286 285 285 284 283 283
280 277 275 290 291 286 289 293 290 288 288 284 284 283 283 282 282 283 283 283 283 282 282 283 284 283 281 280 282 283 283 282 283 283 284 285 285 285 285 285 284 283 283 282
283 283 289 289 288 289 292 291 290 287 286 284 282 280 281 280 281 281 281 281 282 281 280 281 282 283 280 281 282 282 281 281 281 282 282 282 283 283 283 283 283 282 282 281
286 289 288 289 288 287 287 285 286 287 286 284 280 281 280 280 279 279 279 279 280 279 278 278 280 281 281 281 282 281 280 280 281 280 281 281 281 282 281 281 281 281 280 280
284 287 287 286 287 287 285 284 283 283 283 282 281 279 278 277 277 277 277 278 279 278 277 277 279 279 281 282 281 280 279 279 279 279 279 279 280 280 279 280 281 279 279 280
281 283 284 282 284 284 282 282 282 281 279 279 279 277 277 276 276 276 276 277 277 277 277 276 277 277 278 279 279 278 278 277 277 277 277 277 277 276 278 279 279 279 279 279
283 284 283 282 283 283 281 281 281 279 279 277 277 277 276 275 276 276 275 275 275 275 276 276 275 275 277 277 276 275 275 276 276 276 276 275 275 275 272 273 275 276 277 277
286 284 280 282 278 280 279 279 279 278 277 277 276 276 276 274 274 274 273 274 274 274 274 274 274 272 274 276 275 274 274 272 275 275 275 274 274 273 273 272 270 270 271 273
282 283 282 281 281 279 279 278 276 276 275 275 276 275 274 272 272 272 273 273 273 272 272 272 271 271 273 273 273 274 275 274 274 274 273 272 273 272 271 270 269 269 270 269
283 282 281 279 278 278 276 275 273 272 272 272 271 271 271 271 270 270 270 271 270 268 268 267 269 268 270 271 273 273 273 271 272 273 272 272 271 271 270 269 268 267 267 267
280 279 279 278 277 277 276 275 275 274 273 273 272 272 271 270 269 268 268 268 267 266 267 267 267 268 269 270 272 273 273 272 270 272 271 271 270 269 269 268 267 266 265 264
279 280 280 279 277 275 275 275 274 273 271 271 270 269 268 268 266 265 265 266 267 266 266 267 268 269 269 270 271 272 272 272 271 270 270 270 269 269 268 268 267 266 266 264
277 276 276 276 276 274 273 272 271 270 269 268 267 265 264 264 264 263 264 264 265 266 266 268 270 269 269 270 270 271 270 270 269 269 269 266 268 267 267 267 266 266 266 265
272 272 272 271 272 271 269 268 268 267 267 265 264 263 262 261 262 262 264 263 264 266 268 268 268 268 268 267 267 269 269 269 268 267 267 266 266 266 265 263 265 265 265 264
267 268 267 266 266 267 266 267 267 265 264 264 264 262 262 261 260 261 264 266 265 267 267 267 268 268 268 267 267 267 267 266 266 266 266 265 265 265 264 264 265 265 264 264
267 266 266 266 267 266 267 267 265 264 264 262 260 260 262 263 263 263 262 266 267 264 266 267 267 261 265 265 267 267 266 265 265 266 265 265 265 265 264 264 264 264 263 262
268 268 267 266 266 266 267 266 265 265 264 263 262 264 267 267 267 266 265 266 267 265 267 266 260 259 259 265 265 264 264 264 264 263 264 263 263 263 263 263 263 263 262 262
269 269 269 269 270 270 268 269 269 267 266 266 264 264 268 267 266 267 267 262 260 264 265 264 262 259 259 264 264 264 264 264 263 263 263 256 263 262 262 262 262 263 261 259
271 271 271 271 271 271 270 270 270 270 269 269 269 268 268 268 268 267 266 266 263 264 266 258 258 257 264 264 264 264 264 264 264 263 263 262 262 262 262 262 260 261 261 261
273 272 273 272 272 272 272 271 270 270 270 269 269 268 267 266 267 267 266 262 265 263 267 266 264 264 264 264 263 263 263 264 263 263 261 262 262 261 261 261 261 261 261 261
272 270 271 270 270 270 270 271 270 270 269 269 269 268 267 266 266 265 262 266 266 265 265 265 265 263 264 264 264 264 264 264 261 263 263 262 262 262 261 261 261 261 260 259

GFSNGP_sfc_thetae_084.txt.gz
Theta_e
288 288 289 289 288 289 288 289 285 288 288 293 298 300 301 299 296 292 290 289 289 290 291 293 295 297 299 303 307 311 309 307 307 307 311 315 317 319 321 321 320 321 321 320
283 288 287 284 286 286 287 287 288 291 291 299 302 302 300 298 294 290 288 287 288 288 288 288 290 291 293 295 298 300 300 299 301 301 302 302 303 304 304 304 301 302 302 304
279 285 284 281 285 287 289 292 292 289 294 300 300 300 296 294 292 289 287 286 286 287 286 286 287 289 289 291 293 294 293 295 296 297 297 297 297 296 294 294 294 294 294 293
281 282 275 285 293 291 288 292 294 294 297 296 295 291 291 291 290 288 287 286 286 286 286 286 287 287 288 289 289 290 290 291 293 294 293 293 293 292 290 290 289 289 289 289
280 280 282 285 289 289 287 288 294 293 295 296 291 289 285 287 287 286 285 285 286 287 286 286 286 287 287 287 287 288 287 288 290 291 290 290 289 288 288 287 286 286 286 286
283 273 273 286 291 296 295 285 295 295 293 293 292 288 281 285 286 285 284 285 285 285 285 286 286 287 286 285 285 285 286 286 290 289 289 288 288 287 287 287 286 286 284 285
282 280 284 291 293 296 284 285 295 291 289 292 291 285 283 284 284 285 285 285 285 285 284 284 286 286 284 284 284 285 286 287 288 288 288 289 289 289 289 288 287 286 285 285
284 280 277 293 293 287 290 293 291 288 286 283 282 282 282 283 283 283 283 284 285 284 284 285 286 285 283 283 284 285 285 285 285 286 287 287 288 288 289 288 287 286 286 285
286 286 290 290 289 291 291 290 289 287 286 284 283 282 282 281 281 282 282 282 283 283 283 284 284 285 283 283 284 284 284 284 284 284 286 287 287 286 287 287 286 285 285 284
289 287 287 288 288 288 287 286 286 287 286 284 281 281 280 281 281 281 281 281 281 281 281 281 282 283 284 284 284 284 283 283 282 282 283 284 283 284 284 284 284 284 283 282
287 286 286 285 286 287 286 285 284 284 284 282 281 280 280 279 279 280 280 281 281 280 280 280 281 281 282 284 284 283 283 282 282 282 280 279 280 281 280 280 281 281 281 281
283 285 286 283 285 286 283 283 284 282 280 281 280 279 279 278 279 279 279 280 280 280 279 279 279 279 280 282 283 282 282 281 281 281 281 280 279 277 278 278 279 278 279 280
284 285 284 284 284 285 283 283 282 281 281 279 279 279 279 278 278 278 278 278 278 278 278 279 278 278 280 279 280 281 281 281 281 280 280 280 280 279 276 275 275 276 276 276
286 286 282 283 281 282 282 282 281 281 280 280 279 279 279 279 279 278 277 278 278 278 278 278 277 276 278 280 280 279 279 279 281 281 280 280 279 278 278 277 275 274 272 273
285 285 284 283 283 282 282 282 280 279 279 278 279 278 278 277 276 276 276 277 277 276 276 276 275 274 277 278 277 279 280 279 279 279 278 278 278 277 276 276 275 275 275 273
284 283 283 281 281 281 280 279 278 276 276 275 275 275 275 275 275 274 274 274 273 272 272 271 272 272 274 277 279 279 277 276 278 279 278 277 277 276 275 274 274 273 272 271
282 280 281 280 280 280 279 279 279 277 277 276 275 276 275 274 273 272 271 271 271 271 272 272 271 272 273 275 277 279 279 277 275 277 276 276 275 274 274 274 273 272 270 268
283 284 284 282 280 279 278 278 278 277 276 275 273 272 271 271 269 269 269 270 270 269 271 272 272 273 273 274 276 277 277 276 276 275 275 275 274 274 273 273 272 271 271 268
281 280 280 279 279 278 277 276 274 273 272 271 270 268 268 268 268 269 269 269 270 270 270 271 272 272 272 272 275 276 276 275 274 274 273 272 273 273 273 272 271 271 271 270
276 277 277 276 276 275 272 272 272 270 270 269 268 267 267 266 267 267 269 268 269 271 271 271 272 272 272 271 271 274 274 274 273 273 272 272 272 272 270 268 270 270 271 270
273 273 272 271 270 271 271 271 270 269 268 269 269 267 266 266 266 266 270 272 270 270 270 269 271 272 272 271 272 273 273 272 272 272 271 271 272 271 271 271 270 270 270 270
272 271 271 271 271 271 271 271 269 268 268 267 265 266 267 267 266 267 266 271 271 267 271 271 271 266 269 269 272 272 271 271 271 271 271 271 271 271 270 270 269 269 269 268
272 272 271 270 271 271 271 270 269 269 268 267 267 269 272 272 273 272 271 269 272 268 271 271 265 265 265 270 271 270 270 269 269 269 269 269 269 269 268 268 268 268 267 267
272 273 272 272 272 272 271 271 272 271 270 270 269 269 272 273 272 273 271 268 266 268 270 269 267 263 264 271 270 270 270 270 269 269 269 262 268 268 267 267 266 267 267 265
274 274 273 273 274 274 273 273 273 272 272 272 271 271 271 273 273 272 272 271 267 268 271 264 264 264 269 270 270 269 269 269 269 268 268 267 267 267 267 267 266 266 266 266
276 277 277 276 276 277 276 275 276 275 275 274 274 275 274 274 272 272 271 269 270 269 271 271 270 269 270 269 269 268 268 269 268 268 267 267 267 267 266 266 266 266 266 266
276 275 276 275 275 275 276 275 276 275 274 274 273 274 274 273 273 271 269 272 271 271 271 271 271 269 270 269 269 269 269 269 268 268 268 267 267 267 267 266 266 266 266 265

GFSNGP_sfc_thetae_087.txt.gz
Theta_e
290 291 292 291 291 292 290 292 288 290 290 293 299 300 305 304 300 297 294 291 289 288 288 289 291 294 297 299 306 312 309 309 308 310 316 316 314 311 317 315 316 316 320 320
288 290 290 287 290 290 289 289 288 289 291 300 303 305 302 298 295 292 290 288 287 287 287 287 288 290 292 294 297 301 301 300 301 302 303 302 301 300 300 299 299 299 298 297
283 287 286 283 287 288 289 292 293 289 295 299 293 289 289 291 289 288 287 287 286 285 285 286 287 289 288 290 293 294 295 296 296 296 296 295 295 293 293 292 292 291 291 291
282 283 276 286 293 292 290 294 294 294 296 294 289 286 286 286 286 285 285 286 286 286 285 286 286 288 288 290 289 290 290 292 293 292 292 291 290 289 288 289 288 288 288 288
281 279 282 287 290 290 289 290 294 293 295 294 289 288 284 286 285 284 284 284 285 286 286 286 286 286 286 286 287 288 287 288 290 290 289 288 287 287 287 286 286 286 287 286
284 278 275 286 293 296 295 286 294 294 292 293 293 287 283 285 285 284 284 284 284 284 285 286 286 286 285 284 285 285 285 286 288 288 289 287 286 287 287 287 286 286 285 286
284 281 285 292 295 297 284 286 293 292 289 285 283 283 283 284 284 284 285 285 286 285 284 284 286 286 284 284 284 285 286 287 287 288 288 287 288 289 289 288 287 287 286 286
285 281 279 294 294 288 289 293 291 288 286 282 282 282 283 284 284 285 284 285 285 284 284 285 285 284 283 284 286 285 285 286 287 288 289 289 289 290 289 289 288 287 286 285
288 285 291 292 289 291 291 287 288 287 287 285 283 283 283 283 283 283 283 283 284 283 283 284 285 285 283 283 285 286 285 285 286 285 285 287 287 287 288 288 287 286 285 284
289 287 287 289 291 290 288 286 287 288 287 285 282 283 282 283 283 283 284 283 284 282 281 281 283 284 284 285 285 284 283 282 282 282 282 283 282 281 281 284 284 284 283 282
285 286 288 288 288 288 287 286 286 285 285 284 283 282 282 282 282 282 282 283 282 281 281 281 281 281 284 286 286 284 283 283 282 281 280 278 279 280 279 280 280 281 280 280
282 286 287 284 287 287 284 284 285 284 282 283 282 280 281 280 281 281 280 281 280 280 280 280 280 280 281 283 284 284 283 282 283 282 282 280 278 276 278 279 279 279 279 280
285 286 285 285 286 287 284 284 284 283 282 280 281 281 281 279 280 280 280 280 279 279 279 279 279 279 281 281 282 283 282 282 282 282 282 281 281 279 275 275 276 276 276 276
288 287 284 285 283 285 284 284 284 283 283 282 282 282 282 281 281 280 280 280 281 281 280 279 278 278 280 281 282 281 281 281 282 282 282 281 281 280 281 279 277 274 273 274
286 287 285 285 285 285 286 285 283 281 281 281 282 281 280 279 278 278 279 279 278 277 277 277 276 276 279 280 279 280 281 281 281 281 280 280 280 279 279 278 277 277 276 275
285 285 285 284 283 283 283 283 280 278 278 278 278 277 278 278 277 276 276 276 275 273 274 272 273 274 277 280 281 281 279 278 280 281 280 279 279 278 277 277 276 274 273 273
284 283 283 282 283 282 282 282 281 280 279 278 278 279 278 277 275 274 273 273 273 273 274 273 273 273 275 277 280 281 281 279 278 279 279 278 278 277 277 276 275 273 271 270
285 286 285 284 282 280 280 280 280 279 277 277 275 274 272 272 271 271 271 272 272 271 272 273 273 275 274 276 278 279 279 278 278 277 277 277 277 277 276 275 275 274 273 271
283 282 282 281 281 280 279 277 276 275 274 274 272 270 270 270 271 271 272 273 273 273 272 273 274 274 274 274 276 278 278 277 277 276 276 275 276 275 275 275 274 274 273 272
279 280 279 278 278 277 274 274 274 272 272 271 270 269 268 268 269 270 271 270 270 272 273 273 274 274 274 273 274 277 276 276 275 274 274 275 275 274 273 269 272 273 273 272
276 276 275 274 274 274 274 273 272 270 270 271 270 269 268 269 268 269 273 276 272 271 272 272 272 273 273 272 275 276 275 275 274 274 273 273 274 273 273 272 272 272 272 271
275 274 274 274 274 273 273 272 271 271 270 269 268 269 270 271 270 271 269 272 274 269 273 274 272 268 270 269 274 274 273 273 273 273 273 272 272 272 272 271 271 271 271 270
275 275 274 274 274 273 273 272 272 271 270 270 270 272 273 274 274 274 274 272 274 270 273 272 267 267 267 273 273 272 272 271 271 271 271 271 271 270 270 270 270 270 269 269
275 275 275 275 274 274 273 273 274 273 272 272 271 271 273 276 276 275 274 270 268 270 270 270 269 267 265 272 272 271 271 271 271 271 270 265 270 270 270 269 268 269 269 268
276 275 275 275 276 277 275 275 275 274 274 275 274 274 273 275 274 275 275 273 268 269 273 267 267 266 270 271 271 270 270 271 271 270 269 269 269 269 269 269 269 268 268 268
277 278 278 278 279 279 279 277 277 278 277 277 276 277 277 276 275 274 273 271 272 271 272 274 272 271 271 271 271 270 270 270 270 270 269 269 269 269 269 268 268 268 268 268
278 278 278 278 278 278 278 277 277 277 277 276 275 278 276 275 275 272 272 273 273 273 273 273 273 272 272 271 271 271 271 271 270 270 269 269 269 269 269 268 268 268 268 267

GFSNGP_sfc_thetae_090.txt.gz
Theta_e
286 287 287 287 289 291 290 290 286 289 288 294 296 296 296 298 296 293 291 289 288 287 287 288 290 290 292 295 301 309 309 308 308 309 311 310 307 310 309 308 305 305 303 301
281 286 287 286 291 290 289 290 290 290 291 296 294 292 292 291 290 288 287 287 286 286 286 286 287 288 290 291 294 299 300 300 300 301 300 299 298 298 298 297 296 296 294 294
278 284 287 283 288 290 290 293 292 287 291 296 292 287 285 287 286 284 284 284 284 285 285 285 286 287 287 289 291 293 294 295 295 294 293 293 293 292 292 291 291 290 291 291
278 280 277 287 293 292 292 292 293 293 293 293 288 285 285 286 284 283 283 283 284 284 285 285 286 286 287 288 288 288 289 291 291 291 290 289 289 288 288 288 288 287 287 288
279 279 285 288 291 290 290 288 292 291 292 292 289 287 283 285 284 283 283 283 284 284 286 285 285 286 286 286 286 286 285 286 289 289 287 287 286 286 286 286 286 285 286 285
283 278 276 286 292 296 294 285 291 291 288 287 291 286 280 284 285 284 285 284 284 284 284 285 285 285 285 284 284 284 285 285 287 288 287 286 286 286 286 286 284 284 283 284
282 280 284 289 293 295 283 283 289 289 286 283 280 281 282 284 284 285 285 285 286 284 283 284 285 286 284 283 283 284 285 285 286 286 287 287 287 287 287 286 284 283 282 282
284 281 278 291 291 285 286 289 288 287 285 282 282 282 283 284 284 284 284 285 285 284 283 284 285 284 283 283 285 285 285 284 284 284 285 286 286 286 287 286 284 284 283 282
285 283 288 290 288 289 289 287 287 286 286 284 282 282 282 283 283 283 284 283 284 283 283 284 285 285 282 283 284 283 282 282 282 283 283 283 281 283 284 285 284 283 282 280
287 286 286 288 288 288 288 286 287 287 286 284 281 282 283 283 283 283 283 283 283 282 281 280 282 284 284 285 285 283 281 280 280 279 279 280 280 279 278 281 280 281 280 278
285 287 286 286 286 286 286 286 284 285 285 284 283 282 282 281 282 282 282 282 282 281 280 279 280 281 283 285 285 283 283 282 280 279 277 277 277 277 277 278 280 278 276 277
280 284 285 283 285 286 284 284 284 283 282 282 282 280 280 279 280 280 280 280 280 280 279 279 280 280 281 283 284 283 282 282 282 281 279 277 275 274 278 278 279 279 279 277
283 286 285 285 285 286 284 283 283 282 282 281 281 281 280 279 280 280 281 280 280 279 279 279 279 279 281 282 281 281 281 282 281 281 281 280 278 275 271 274 276 277 277 277
288 287 284 285 282 285 284 284 284 283 283 283 282 282 282 280 280 279 279 279 279 278 278 277 277 278 279 281 282 281 281 280 280 280 280 280 279 279 278 275 272 271 275 275
285 286 285 286 286 285 286 285 282 281 281 280 281 280 280 278 277 277 278 277 276 275 274 274 274 274 277 280 278 278 280 280 279 279 279 278 278 278 277 276 275 273 273 273
285 286 285 284 284 283 282 281 279 278 278 278 277 277 277 277 276 275 275 275 273 272 273 271 272 273 275 276 280 279 278 278 279 279 278 278 277 277 276 275 273 271 269 270
285 283 284 283 282 281 281 281 280 279 279 278 278 278 277 276 274 273 272 273 272 272 272 272 272 272 273 275 279 280 279 278 276 278 277 277 276 275 275 274 272 269 267 267
285 285 284 283 281 280 279 279 279 277 276 275 273 272 270 270 270 270 271 271 270 270 271 271 271 272 272 273 275 278 278 277 276 276 275 275 275 275 274 273 273 272 270 268
283 282 281 281 280 279 277 275 274 274 274 273 271 269 269 269 270 270 272 271 272 271 271 272 275 273 273 273 274 277 277 276 276 275 275 273 274 274 273 273 271 271 271 269
279 279 278 277 277 275 274 274 273 271 270 270 269 268 268 267 268 268 269 269 269 271 272 272 274 274 273 273 271 276 275 275 274 273 272 273 272 272 269 265 269 270 270 270
276 275 275 274 274 274 274 273 271 270 270 269 269 267 267 268 268 267 271 272 271 271 272 271 271 270 271 270 271 274 274 273 273 272 272 271 271 271 270 269 269 269 268 268
275 274 274 274 273 272 272 272 271 270 269 267 266 266 267 270 268 269 268 271 272 266 272 272 270 265 267 264 273 273 272 271 271 271 271 271 270 270 270 270 268 269 268 268
275 275 275 275 273 272 272 272 271 270 269 268 269 271 272 273 273 272 272 272 273 268 272 269 264 264 264 269 272 272 271 270 269 269 270 269 269 269 268 268 267 265 265 266
275 275 275 275 274 274 273 273 274 273 270 272 269 268 272 274 275 275 272 267 266 266 269 268 266 264 261 270 271 270 270 270 269 270 269 264 269 268 268 267 265 266 265 264
276 276 276 276 277 276 276 276 275 275 274 275 274 274 274 275 274 274 274 271 268 267 272 266 264 263 267 270 271 269 269 270 270 268 267 266 267 267 267 267 267 267 265 264
277 278 279 278 278 278 278 277 277 278 277 277 277 277 277 276 275 273 274 270 272 270 271 272 270 268 270 270 270 270 269 270 269 269 269 267 267 268 267 267 266 266 266 265
279 279 278 277 278 277 276 275 276 276 276 276 275 277 277 276 276 272 271 273 273 273 273 273 273 272 272 271 270 269 270 270 269 269 268 268 266 265 266 266 266 266 264 263

GFSNGP_sfc_thetae_093.txt.gz
Theta_e
282 283 284 284 284 286 285 288 284 286 287 290 290 291 290 290 289 287 286 286 286 285 286 287 288 289 290 292 296 301 307 307 307 308 308 307 306 305 304 303 303 304 302 301
278 282 284 282 285 287 287 288 288 289 288 291 290 289 288 287 286 284 284 284 284 285 285 285 286 287 289 291 295 294 296 297 300 300 299 298 297 297 296 295 295 295 295 295
272 282 281 279 287 287 288 290 289 286 288 291 286 284 284 284 284 283 283 283 283 284 284 285 285 287 287 288 290 291 290 291 292 293 293 292 292 292 291 290 291 290 290 290
275 278 273 286 293 292 288 288 289 289 288 287 284 284 284 284 283 282 282 282 283 283 284 285 285 286 287 288 288 287 287 288 289 289 289 289 289 288 288 288 287 287 288 288
276 276 283 285 288 288 287 284 288 286 286 287 285 284 282 284 283 282 282 282 283 284 284 284 285 285 286 285 286 285 285 286 286 287 287 286 286 285 286 285 285 285 286 286
279 275 276 283 287 292 293 280 287 286 283 284 287 283 277 283 284 283 283 283 283 283 284 284 284 285 285 284 284 284 284 285 286 286 286 285 286 285 285 284 283 283 283 284
277 276 281 285 288 292 279 280 286 284 282 280 278 280 282 284 283 284 284 284 284 284 282 283 284 284 283 283 282 284 284 284 284 285 285 285 285 285 284 283 282 282 281 282
281 279 275 286 287 282 285 287 286 284 282 280 281 281 281 281 282 283 282 283 284 283 283 284 284 283 281 280 282 282 282 282 282 282 283 283 285 285 285 284 282 282 281 281
283 281 285 286 285 288 288 286 285 283 283 282 279 279 279 280 281 282 282 282 282 281 281 281 284 283 281 281 282 281 280 279 279 279 280 280 279 280 281 283 281 280 279 278
284 283 284 285 286 286 286 285 285 285 283 283 279 280 280 280 281 281 281 281 281 280 279 279 281 283 284 284 282 280 279 278 278 278 277 278 278 278 279 278 277 278 277 276
283 285 284 284 285 285 284 284 283 284 282 280 279 279 279 279 280 280 280 280 280 279 278 279 280 280 282 284 284 283 281 279 277 277 276 276 277 277 277 278 278 275 275 276
277 283 283 282 284 285 283 282 282 280 279 280 279 278 279 278 279 279 279 279 278 278 278 278 279 280 281 281 282 281 281 281 279 277 276 275 274 274 279 279 279 279 278 276
282 285 284 284 285 285 283 282 282 281 279 278 279 279 279 279 280 280 279 278 277 277 277 277 277 277 278 280 280 279 279 279 280 280 279 275 273 272 270 274 277 278 278 279
286 285 280 284 281 284 283 283 283 282 282 282 281 280 279 278 277 276 275 275 275 275 275 275 275 274 276 278 279 278 278 278 277 278 277 277 276 274 274 271 270 271 276 277
284 285 284 286 285 284 284 283 280 279 279 279 279 278 277 274 274 274 275 275 274 273 272 272 272 271 274 276 275 275 277 275 274 275 275 276 276 275 275 273 271 270 271 272
285 284 284 282 282 281 281 279 277 276 276 275 275 275 274 274 273 273 273 273 271 270 271 268 270 269 272 272 275 274 274 275 274 274 274 274 274 274 272 270 268 267 267 267
283 282 282 280 280 280 279 279 279 278 277 276 276 276 275 273 272 271 270 270 268 266 266 266 265 267 269 270 271 273 272 274 272 274 273 273 272 272 271 269 267 266 264 263
283 282 282 281 279 278 276 276 276 275 273 273 271 270 269 268 267 264 264 263 262 264 264 264 264 267 268 269 271 273 272 272 273 271 271 270 272 272 270 270 268 265 263 264
279 278 279 278 277 275 274 273 272 272 270 268 267 263 260 260 260 260 261 264 261 261 264 265 272 269 269 271 270 273 271 269 271 271 271 269 267 268 267 266 264 263 265 264
276 276 275 274 274 273 270 268 267 266 263 264 261 261 260 258 258 260 261 261 261 264 266 267 269 269 270 270 266 271 269 268 270 266 264 264 262 259 259 261 261 261 261 262
272 272 271 270 269 268 267 266 266 265 263 263 262 259 259 260 259 258 264 267 265 266 268 267 267 266 268 265 268 264 265 264 264 262 259 259 263 261 258 258 260 259 258 258
268 269 270 269 267 266 264 265 265 262 262 260 259 259 260 262 261 263 260 266 268 263 268 267 266 261 264 261 268 261 263 263 262 261 261 260 259 258 262 264 260 261 260 258
274 274 273 267 266 266 266 266 264 265 261 260 260 262 264 269 269 266 265 269 269 265 268 262 260 259 259 260 259 259 259 262 259 258 258 256 255 256 256 258 258 258 257 259
272 271 270 271 271 271 270 270 271 270 264 266 264 262 268 264 269 271 267 262 260 258 260 259 258 260 257 256 263 260 258 258 257 262 262 259 259 263 260 260 257 255 255 255
273 273 273 272 273 273 274 274 273 273 272 273 272 271 271 272 265 265 265 263 263 261 260 261 261 259 255 256 259 258 258 258 259 257 255 254 255 256 255 258 260 259 259 256
275 275 275 276 275 274 274 273 271 273 272 268 269 269 268 267 266 265 263 264 264 263 260 260 260 260 259 259 257 260 259 260 261 260 260 263 261 260 260 261 260 259 258 258
275 273 274 273 274 273 270 271 269 267 265 263 262 265 273 271 267 265 262 261 262 262 266 267 268 267 266 265 262 260 259 259 261 262 259 259 258 256 255 256 257 259 259 258

GFSNGP_sfc_thetae_096.txt.gz
Theta_e
281 281 281 280 280 281 281 284 281 285 286 286 288 288 287 288 287 285 284 284 284 284 284 285 286 287 289 291 294 297 300 305 308 308 308 307 305 304 303 303 302 304 303 302
277 280 280 280 282 283 284 287 287 289 286 288 288 288 285 285 284 282 282 283 283 283 284 284 285 286 288 289 291 293 294 294 298 298 298 298 297 296 296 295 295 294 293 293
271 279 279 274 280 283 287 287 288 284 287 288 284 282 282 282 282 281 281 282 282 282 283 284 284 286 286 287 289 290 290 291 292 292 291 291 292 291 290 290 290 290 289 289
273 277 270 284 292 289 285 286 287 286 286 285 282 282 282 282 281 280 281 281 282 282 283 284 285 285 286 286 287 287 287 287 288 288 287 287 287 286 287 287 287 287 287 287
273 274 278 282 286 285 285 281 285 284 285 284 283 282 280 283 282 281 281 282 282 283 283 284 284 285 285 284 285 284 285 285 285 286 285 285 284 284 285 285 284 285 286 286
277 273 272 281 284 288 290 278 284 283 281 285 284 280 277 282 283 282 282 282 282 283 283 282 283 284 282 281 281 282 283 284 285 286 285 284 283 283 283 283 283 283 283 284
276 275 280 283 285 289 279 278 283 282 280 280 279 280 281 283 282 283 282 282 282 281 282 282 282 282 280 280 279 281 282 282 282 283 285 285 285 284 283 282 282 281 281 282
278 276 274 285 285 281 284 285 283 282 281 279 279 278 278 280 280 281 280 280 280 280 280 282 282 281 279 279 280 281 280 280 280 280 281 282 283 283 283 281 280 280 280 280
281 277 283 285 284 287 287 284 283 283 282 280 279 277 279 279 280 280 279 279 279 279 279 280 282 282 279 280 280 279 279 278 278 279 279 279 279 280 280 280 279 278 278 278
281 282 283 284 284 284 285 283 284 284 282 281 279 278 278 279 279 279 279 278 279 278 278 278 281 282 283 283 281 279 277 277 277 278 277 278 278 278 277 277 277 277 277 277
280 282 283 283 284 284 283 283 283 282 281 279 278 278 278 277 277 278 278 278 278 277 277 277 279 280 281 283 283 280 278 278 276 276 276 277 278 278 277 278 277 275 276 277
276 282 282 281 283 285 282 281 281 279 278 278 277 277 277 276 277 277 277 277 276 277 276 276 277 277 278 280 281 281 280 279 277 275 275 275 275 275 280 280 280 280 279 278
280 284 283 283 284 283 281 280 280 279 278 277 278 278 278 276 276 277 275 275 275 274 275 275 275 275 276 277 278 277 276 277 278 276 274 272 272 272 271 275 279 280 280 280
286 284 281 282 280 282 282 282 283 282 281 279 278 277 276 275 275 274 273 274 274 274 274 274 274 273 274 276 277 276 275 275 275 275 275 274 272 273 272 271 270 270 275 278
282 284 282 283 283 283 282 280 278 278 277 276 276 274 274 273 272 273 273 274 273 272 272 272 271 270 272 273 274 273 276 273 271 272 273 273 274 273 272 270 269 269 270 272
284 284 281 279 280 280 279 278 276 275 275 273 273 273 273 272 272 272 272 272 270 268 269 266 269 268 270 270 273 273 272 273 272 272 272 272 272 271 269 268 267 267 267 265
281 280 280 279 279 278 277 278 277 276 276 275 274 274 273 272 271 270 269 269 267 265 264 264 263 265 267 268 270 269 270 271 269 271 271 271 270 269 268 266 265 265 265 263
282 282 282 280 278 277 276 276 276 275 273 273 271 269 267 267 266 264 263 261 263 264 264 262 262 265 267 269 271 271 270 271 271 270 270 269 269 270 267 266 266 266 263 262
279 279 278 278 278 276 275 273 272 271 269 267 266 263 261 258 258 257 258 259 258 260 262 263 271 267 268 269 270 270 268 267 269 270 269 265 265 267 263 261 262 260 262 262
275 275 275 273 273 271 269 266 267 265 262 263 260 259 259 257 255 257 257 260 260 262 263 265 267 267 268 268 265 269 267 265 268 264 263 263 257 256 257 259 260 261 259 257
269 270 268 268 266 265 264 262 264 262 260 259 260 256 257 256 256 256 261 265 263 265 268 266 265 265 267 264 266 260 261 260 262 261 257 257 261 261 257 254 257 256 257 258
264 266 265 264 264 262 260 261 263 261 259 258 256 255 257 261 259 261 259 265 267 263 266 265 265 259 262 261 265 258 261 260 259 259 258 258 258 258 260 260 260 260 257 254
268 267 266 264 264 264 263 262 260 261 259 258 258 260 262 267 267 264 263 268 268 263 266 262 259 258 257 255 256 255 256 257 256 255 254 252 252 252 253 255 255 256 256 257
268 269 267 267 268 269 268 269 268 268 261 265 263 261 267 265 262 269 266 263 260 260 260 257 257 259 256 253 255 256 254 254 254 256 261 257 253 253 254 253 253 251 251 253
271 271 271 270 271 271 272 272 271 272 270 271 271 271 269 270 265 265 262 261 262 260 259 257 259 258 254 252 252 254 254 253 254 254 253 252 252 252 252 252 253 255 254 256
274 273 273 274 274 273 272 273 271 271 271 266 267 266 265 266 267 265 263 261 263 262 260 258 257 257 256 257 257 256 257 258 255 255 257 260 256 255 256 257 254 255 255 253
275 272 273 272 273 272 271 271 267 265 263 261 262 262 267 268 267 266 263 262 264 262 263 264 265 265 265 264 264 262 262 261 257 258 255 255 255 258 258 258 254 253 253 253

GFSNGP_sfc_thetae_099.txt.gz
Theta_e
280 280 281 279 278 279 278 279 275 279 283 286 287 286 285 285 285 283 283 283 283 283 283 284 285 286 288 289 292 292 294 296 300 308 309 310 308 307 306 306 307 307 304 301
277 279 279 277 279 280 281 282 282 283 284 288 287 285 283 283 282 281 281 282 282 283 283 283 284 285 286 287 289 290 290 289 293 296 299 297 297 297 297 296 295 295 293 293
270 278 277 273 278 280 281 286 286 283 285 286 283 281 280 281 281 280 280 281 281 282 283 283 283 285 284 285 287 288 287 288 287 288 290 290 290 290 290 290 291 289 289 289
271 274 267 280 286 286 284 284 287 286 286 284 281 281 281 281 280 280 280 280 281 282 282 283 283 284 284 285 284 285 285 286 287 286 285 286 286 286 286 287 287 287 287 287
268 271 277 280 283 283 282 279 283 283 284 283 282 281 279 282 282 280 281 281 281 282 282 282 282 283 283 282 282 282 282 283 284 285 285 284 283 283 284 284 284 284 285 285
272 271 271 278 283 288 287 276 282 282 281 283 282 280 276 281 282 281 281 280 280 282 282 281 281 282 280 279 280 279 280 281 282 284 284 283 283 282 283 283 282 283 283 284
274 272 278 281 284 287 279 277 281 281 280 282 279 279 280 281 280 280 280 281 281 281 281 280 281 281 278 277 277 279 280 280 281 281 283 283 283 282 282 282 282 281 281 282
276 274 273 283 284 281 282 283 281 281 280 278 278 278 278 279 279 279 278 279 280 280 280 282 281 279 277 277 278 279 279 279 279 279 280 281 281 281 281 280 280 280 280 280
278 276 283 284 282 285 285 283 282 280 280 279 277 277 277 277 278 278 278 278 279 279 279 280 281 281 278 278 278 278 277 277 278 278 278 279 278 278 278 279 279 279 279 279
280 281 282 283 283 284 283 282 282 282 281 279 276 276 277 277 277 277 277 277 278 277 277 277 279 280 282 280 279 277 276 276 277 278 277 278 278 278 277 276 277 277 278 278
279 282 282 282 282 282 282 282 280 280 279 278 277 276 276 276 276 277 277 277 277 276 276 276 277 277 278 280 281 278 277 276 276 276 276 277 278 277 277 279 278 277 278 279
275 281 281 280 283 283 280 279 279 277 276 277 276 275 276 275 275 275 274 275 274 275 275 275 275 275 277 278 279 279 278 276 275 275 274 275 276 277 281 281 281 281 281 280
279 282 282 282 282 282 279 279 279 277 277 276 276 276 275 274 275 275 273 273 273 273 274 275 274 274 275 277 277 275 274 275 274 273 272 271 270 271 270 274 278 280 281 280
283 282 278 281 279 282 281 280 281 279 278 277 276 276 275 274 274 272 272 272 273 273 273 273 273 272 273 275 276 275 274 273 273 273 272 271 270 271 270 270 269 270 275 277
283 283 281 281 281 281 281 280 278 277 276 275 275 275 274 272 271 271 272 273 272 271 270 271 270 269 271 274 273 272 274 272 270 270 270 271 271 270 270 269 268 268 269 270
283 282 282 281 280 279 279 278 276 275 274 273 272 272 272 271 270 270 270 270 269 266 267 264 267 266 268 270 272 272 271 271 270 270 269 269 268 268 267 267 266 266 266 265
280 278 279 278 278 278 277 277 276 276 275 274 273 273 272 271 270 269 267 267 265 262 261 261 261 264 267 267 269 267 268 270 268 270 269 268 267 266 265 264 264 265 262 260
283 282 281 280 278 277 276 277 277 276 274 273 270 268 266 266 266 263 260 259 261 262 261 261 261 265 266 267 269 270 269 269 270 268 268 266 267 267 264 264 264 263 261 259
280 279 279 279 278 277 275 274 272 271 270 268 268 265 261 257 257 256 256 258 257 259 261 261 270 266 267 269 269 268 267 266 268 268 268 265 263 264 261 259 259 258 260 260
274 274 274 272 272 271 269 267 267 265 262 263 261 260 260 255 253 255 256 259 259 261 262 264 266 267 267 267 264 267 266 263 267 263 260 261 255 254 256 258 259 257 255 255
268 269 267 266 263 263 261 260 263 261 258 256 259 255 256 255 254 254 260 264 263 264 267 265 264 264 266 264 265 257 259 258 258 258 257 257 258 259 255 254 256 258 258 257
263 265 263 262 263 260 258 260 262 259 258 256 253 253 256 261 259 261 258 264 266 262 265 264 264 258 261 261 263 257 259 259 258 257 256 255 255 255 257 258 259 258 256 256
265 264 264 262 262 261 262 261 258 260 258 257 257 259 262 265 266 263 263 268 268 263 265 261 258 257 256 253 254 253 254 254 254 254 252 250 251 250 251 253 253 253 254 254
265 266 265 265 266 268 267 268 267 267 259 263 261 257 265 263 261 268 266 262 261 258 257 256 256 258 255 252 252 252 252 252 252 252 253 254 249 249 250 257 253 250 249 251
270 270 269 269 270 269 271 271 270 270 270 270 270 270 268 269 264 263 261 260 260 259 258 257 257 257 253 251 251 251 252 252 252 251 252 251 252 251 251 250 251 252 251 255
273 272 272 273 273 272 271 271 268 269 268 265 264 262 264 264 265 266 261 260 260 261 260 260 257 258 259 259 258 257 257 258 257 256 254 255 255 254 253 254 253 254 253 254
273 273 273 271 271 271 270 270 268 265 265 263 263 260 261 261 263 265 264 262 263 263 264 263 264 264 263 263 263 264 265 264 263 263 260 257 256 256 256 256 255 255 254 253

GFSNGP_sfc_thetae_102.txt.gz
Theta_e
279 279 280 279 278 278 276 277 273 276 276 281 286 284 283 283 283 282 282 282 282 282 283 283 284 285 286 287 289 291 291 291 290 293 298 306 310 315 315 313 312 309 305 302
276 279 279 276 277 278 278 278 278 279 278 288 285 284 282 281 281 280 280 281 281 282 282 282 282 283 284 285 286 289 289 289 290 288 290 291 295 297 297 295 295 295 293 293
268 276 276 271 276 278 280 283 280 275 281 284 281 280 279 279 280 279 279 280 281 281 281 282 282 283 282 283 285 285 286 287 288 288 286 286 288 290 289 289 289 288 288 288
271 274 265 274 285 284 282 282 284 287 286 284 280 280 280 280 279 279 279 279 280 281 281 281 282 281 282 283 283 283 283 285 286 287 286 285 285 285 285 286 285 286 286 286
267 267 273 278 281 281 280 278 282 283 282 281 280 280 278 281 281 280 279 279 280 281 281 281 280 281 280 280 281 281 280 281 283 284 284 284 283 283 283 283 283 284 284 285
268 267 268 276 282 285 286 276 281 282 283 281 281 278 275 280 280 280 280 280 280 281 281 280 280 280 279 278 278 278 279 280 282 282 282 282 282 282 283 283 283 283 283 284
272 271 275 280 281 286 277 274 280 280 281 284 277 278 278 280 279 279 279 280 280 280 279 281 280 280 277 277 276 278 279 280 280 281 281 281 281 281 281 281 281 281 281 282
275 272 271 282 282 278 280 281 280 279 279 278 277 277 277 277 278 278 278 278 279 278 278 280 281 279 277 276 278 278 278 278 278 279 279 280 280 280 280 281 280 280 280 280
278 276 281 282 281 284 284 281 280 279 279 279 276 275 276 275 276 277 276 277 278 277 277 278 279 280 277 277 277 277 276 277 277 278 278 278 277 278 278 279 279 279 279 279
279 280 281 282 282 283 282 281 281 281 279 278 275 275 275 275 275 275 275 275 276 276 275 276 277 278 279 279 278 276 275 275 276 278 277 277 278 278 278 277 277 278 279 279
279 281 281 281 281 281 280 280 279 279 278 277 276 275 275 274 274 275 274 275 275 275 275 274 275 276 276 278 280 277 276 276 275 275 276 278 278 279 278 280 280 278 279 279
274 281 280 279 281 281 279 278 278 277 276 276 275 273 273 272 273 273 274 274 274 274 274 273 274 274 275 277 278 277 276 274 273 273 273 273 274 274 279 281 281 281 281 280
278 281 279 280 280 280 279 278 278 277 276 274 275 274 274 274 274 275 273 273 273 272 273 273 273 272 273 276 275 273 272 272 272 271 271 271 270 269 270 273 278 279 279 280
281 281 277 280 277 280 280 280 279 278 277 276 275 275 274 273 273 272 272 272 272 272 271 272 272 270 271 275 275 273 272 271 271 270 270 270 270 270 270 269 268 269 273 275
282 281 279 280 280 281 280 279 277 276 275 275 275 274 273 271 270 270 271 272 271 270 269 270 269 268 269 273 272 271 273 270 268 268 270 269 270 269 269 268 267 267 268 269
281 280 280 279 278 278 278 277 276 274 273 272 271 271 271 270 269 269 269 269 268 265 265 263 266 264 266 268 270 270 269 270 268 268 268 268 267 267 267 267 266 265 265 264
278 278 280 278 278 278 277 277 276 275 275 274 273 272 271 270 269 267 266 266 263 260 260 260 260 262 265 266 267 267 267 269 267 269 268 267 265 265 265 264 263 263 261 258
282 281 281 280 278 277 276 277 277 276 274 273 270 267 266 265 264 261 258 257 258 261 260 260 261 264 265 267 268 269 268 268 269 267 267 265 266 266 263 263 263 262 260 259
281 280 279 279 278 277 276 274 272 271 269 267 266 264 262 258 258 257 256 256 256 258 260 260 269 266 266 268 268 267 266 265 266 266 266 263 262 263 260 258 258 257 259 259
275 275 275 273 272 272 268 265 266 265 261 263 262 261 260 256 253 254 255 258 259 261 261 264 266 266 267 266 264 266 265 262 265 262 260 260 254 253 254 257 259 257 254 255
269 268 267 265 262 261 261 260 263 261 257 256 259 256 257 255 253 253 260 263 262 263 266 264 264 263 265 263 264 257 258 256 256 257 254 254 254 258 258 258 259 257 256 255
262 264 263 263 262 260 257 259 261 259 258 256 252 251 254 259 257 258 258 264 266 261 264 263 263 257 260 260 262 256 259 258 257 256 255 253 252 252 252 253 257 258 258 258
264 264 263 262 263 262 261 261 258 260 258 256 256 258 262 265 265 263 263 267 267 262 265 261 258 256 255 252 253 252 253 253 253 253 251 249 250 249 250 251 252 252 252 254
264 265 264 264 266 267 267 266 267 266 260 263 261 259 265 262 261 267 265 261 260 257 256 256 255 257 254 251 251 251 251 251 250 250 252 251 249 248 247 249 252 252 250 251
268 268 268 268 269 269 270 270 269 269 269 270 269 269 267 268 264 263 260 259 260 259 257 255 256 255 252 251 250 251 251 251 252 250 252 252 254 252 253 250 252 253 251 251
271 270 270 272 272 271 270 270 267 268 268 264 263 258 259 261 264 263 263 262 262 262 263 262 260 257 256 260 261 261 261 262 260 261 259 257 256 254 254 254 253 253 254 255
272 271 271 270 270 270 269 269 267 265 261 259 259 257 259 257 258 262 262 260 259 259 257 255 256 257 258 257 260 263 263 263 261 262 260 259 258 260 260 258 258 256 254 255

GFSNGP_sfc_thetae_105.txt.gz
Theta_e
280 281 281 280 280 280 279 279 275 278 278 282 285 286 284 284 284 283 282 282 282 282 283 283 283 283 284 285 286 288 290 291 290 291 291 293 296 303 318 319 316 317 312 306
277 280 280 277 279 279 279 279 279 279 279 286 286 285 283 282 282 281 280 281 281 282 282 282 282 281 282 283 284 286 287 288 290 290 289 288 289 291 293 294 295 295 294 293
271 277 276 272 277 279 280 283 281 276 282 286 282 281 281 280 280 280 280 280 280 281 281 282 281 282 281 282 283 283 284 285 287 288 288 287 286 286 286 287 288 288 289 289
273 275 266 277 286 284 282 281 282 284 286 285 281 280 280 281 280 279 279 279 280 281 281 281 281 281 282 282 281 281 281 282 283 285 286 287 286 284 284 285 285 285 286 287
271 271 275 277 280 281 280 279 282 282 281 280 280 280 278 281 281 280 280 280 281 282 282 281 281 281 281 280 280 280 280 280 281 282 282 284 284 284 284 283 284 284 285 285
273 269 267 276 281 284 285 277 281 282 281 280 280 279 276 280 280 280 280 281 280 281 282 281 281 281 279 278 279 278 279 280 281 281 281 281 282 282 283 282 281 282 281 283
273 272 275 280 282 286 276 275 280 280 282 283 278 279 279 280 279 280 280 280 281 280 279 280 281 280 278 277 277 279 280 281 280 281 281 282 282 283 283 282 281 280 280 280
275 272 271 281 282 277 279 281 280 280 280 278 278 278 278 278 278 278 278 279 280 279 279 279 280 279 277 277 278 279 280 280 280 280 282 282 282 282 282 282 281 280 280 279
278 277 281 282 281 283 283 280 280 279 280 279 277 276 277 276 277 277 278 278 279 279 279 279 279 279 277 278 278 278 278 279 280 281 281 282 282 281 281 282 282 281 281 279
280 280 280 281 282 282 282 281 281 281 280 279 276 276 276 277 277 277 277 277 278 278 277 277 279 279 280 280 280 279 278 278 279 280 279 281 282 282 282 281 281 281 280 280
279 280 281 281 281 281 280 280 279 280 279 278 277 276 276 276 276 276 276 277 277 277 276 277 278 278 280 280 280 278 278 278 278 278 279 279 280 281 281 281 281 280 281 281
277 281 280 279 281 282 279 279 279 278 277 277 276 275 275 274 275 275 275 276 275 276 276 276 277 276 278 279 279 277 276 276 277 277 277 277 278 277 279 280 280 280 280 280
279 281 281 280 281 281 279 279 279 278 277 276 276 276 276 275 275 275 275 275 274 275 275 276 276 275 276 278 277 275 276 276 276 276 276 276 276 276 275 275 277 277 278 278
283 282 279 280 278 280 280 279 279 278 278 277 277 276 275 274 274 274 274 274 274 274 274 275 274 272 274 278 277 276 276 274 276 276 275 275 275 274 274 273 272 273 274 275
282 282 281 281 281 280 280 279 277 277 276 276 276 275 274 272 271 272 273 273 273 273 272 273 272 271 272 275 275 275 277 276 276 275 274 274 274 274 274 273 272 271 272 272
280 281 281 280 279 279 279 278 276 275 274 273 272 272 271 271 271 270 271 271 270 268 268 267 269 268 271 273 275 276 276 273 274 275 275 274 274 273 273 272 272 271 270 270
280 279 279 279 279 279 278 278 277 276 275 275 273 272 272 271 270 269 268 268 266 265 266 267 267 268 270 271 274 276 276 275 272 275 274 274 273 273 273 272 271 270 270 268
283 283 283 282 280 278 278 278 277 276 275 274 272 270 268 268 267 265 264 265 266 266 266 266 268 269 270 272 273 274 275 274 274 274 274 273 273 273 272 272 271 271 270 268
283 282 281 280 280 278 277 276 274 273 271 270 269 267 266 265 266 265 264 265 266 268 268 267 270 270 271 271 272 273 273 273 273 272 272 270 272 271 271 272 271 271 271 270
277 277 277 276 275 275 272 271 271 268 268 267 265 266 265 262 262 264 265 268 267 269 268 268 269 270 270 270 268 272 271 271 271 271 270 271 271 271 270 268 269 271 270 271
272 272 270 268 266 266 266 267 267 265 264 265 267 265 266 264 262 263 269 270 269 269 269 267 268 269 270 268 270 270 270 270 270 269 269 269 269 269 269 269 270 270 270 270
269 268 266 265 265 264 264 266 265 263 264 262 260 261 264 267 265 266 265 270 271 264 269 270 269 263 266 265 270 270 270 269 269 269 269 269 269 268 268 268 268 269 269 269
268 267 266 266 267 266 265 265 264 265 264 264 264 265 269 271 272 271 270 271 271 268 271 271 265 262 261 268 269 269 269 268 268 268 268 268 268 268 267 268 268 268 268 268
267 268 267 267 268 269 268 267 268 268 266 267 266 266 271 271 272 273 273 267 264 266 269 269 266 262 259 267 267 267 267 267 267 267 267 262 267 267 267 267 267 268 267 266
270 269 269 269 270 270 270 270 271 270 270 272 272 270 269 272 273 273 272 271 265 267 270 263 262 262 267 268 267 267 267 268 267 267 267 267 266 266 267 267 266 267 267 267
272 271 272 273 273 273 272 272 273 273 273 272 271 270 270 270 271 271 271 269 269 267 268 268 266 267 267 267 267 267 267 268 268 267 267 267 267 266 266 266 266 265 266 267
273 272 273 274 274 274 274 273 273 272 270 271 270 268 268 268 268 269 267 268 267 265 264 264 264 263 263 264 264 265 265 266 265 265 266 265 265 265 265 266 267 267 266 265

GFSNGP_sfc_thetae_108.txt.gz
Theta_e
283 283 283 282 282 283 282 282 279 281 281 285 288 289 289 289 288 288 287 285 285 286 287 285 284 283 283 283 284 286 286 286 288 292 292 291 293 294 297 305 316 319 318 318
279 283 282 280 282 283 283 282 282 282 281 288 291 289 288 286 286 285 284 283 284 285 285 284 284 283 282 283 283 284 284 284 285 288 289 289 289 290 290 291 293 295 296 298
275 279 279 276 280 281 282 284 283 279 286 290 287 286 286 284 284 282 282 282 283 283 284 284 283 284 283 283 283 283 282 284 284 286 286 287 287 286 286 286 288 288 289 289
276 276 270 281 287 286 284 286 285 285 288 290 286 284 284 284 282 281 281 282 282 283 283 283 284 283 284 284 283 282 282 282 283 284 284 285 285 284 284 284 284 285 285 286
275 275 278 280 282 281 281 281 284 284 284 284 283 283 281 282 282 281 281 282 282 283 283 283 283 283 283 283 283 282 282 282 283 283 283 283 283 282 283 282 282 282 283 284
277 272 271 279 284 286 285 277 283 284 283 282 283 281 278 281 282 281 282 282 281 282 282 282 282 283 282 281 282 282 282 283 284 284 284 283 284 282 282 282 281 281 280 281
277 275 279 282 284 286 276 276 281 282 285 284 280 281 280 282 281 282 282 282 284 282 280 281 282 283 281 281 280 282 283 284 284 285 284 284 284 285 284 283 282 281 280 279
278 275 273 283 284 279 281 282 282 282 283 280 280 280 280 280 280 281 281 282 283 282 281 282 283 282 280 280 281 283 283 283 283 284 285 285 285 285 284 284 283 282 281 280
280 279 283 284 282 284 285 282 282 281 281 280 279 279 279 279 280 280 281 281 283 282 282 282 283 283 280 280 282 283 283 282 282 283 284 284 284 284 284 284 283 282 282 281
282 281 282 283 283 283 284 282 282 282 281 280 278 279 279 280 280 280 280 280 281 281 280 280 282 282 282 282 283 283 282 282 283 282 282 282 284 283 282 282 282 281 281 281
280 282 282 282 282 282 282 282 281 281 281 280 279 279 279 279 279 279 280 280 281 280 280 280 281 281 282 282 283 282 281 282 282 282 282 281 279 280 280 281 281 281 280 280
280 283 283 281 283 284 281 280 281 280 279 280 280 278 278 277 278 278 278 280 280 280 280 280 280 280 281 281 281 281 280 280 281 281 282 282 281 278 278 278 279 279 279 280
282 283 283 282 283 284 282 281 281 280 280 279 280 280 279 278 278 278 279 279 279 279 279 279 278 278 279 281 280 278 280 280 281 281 281 280 280 280 279 278 276 276 277 277
285 284 281 282 280 282 282 281 282 281 281 280 280 280 280 279 278 278 278 278 279 279 278 278 277 276 278 280 280 280 280 278 280 280 280 280 279 279 279 278 277 277 276 275
284 286 284 283 282 281 282 281 280 279 279 279 279 278 278 277 276 276 277 277 277 277 277 276 276 275 277 279 279 278 280 280 280 280 279 279 279 279 278 277 277 276 277 276
283 283 283 281 281 281 281 281 280 278 278 277 276 275 275 275 275 275 274 275 274 272 272 271 273 273 275 277 279 280 279 277 278 279 279 279 278 278 277 277 276 276 274 274
281 280 281 281 281 281 281 281 280 279 278 277 276 276 276 275 274 273 272 272 270 271 271 271 272 272 274 275 278 279 279 279 277 279 278 278 277 277 277 276 276 275 274 271
287 287 286 285 283 281 280 281 280 280 278 277 275 273 272 273 271 270 269 270 271 270 271 271 273 274 274 275 276 278 278 277 277 277 277 276 276 276 276 275 275 274 275 273
286 286 286 284 284 282 281 279 279 278 275 273 272 272 271 271 271 270 271 271 272 273 271 272 273 274 274 273 275 277 276 276 276 275 276 274 276 275 275 275 275 274 274 274
283 283 283 282 281 280 277 276 275 273 273 272 271 271 270 269 269 269 272 271 272 273 272 272 273 273 273 273 273 275 275 275 274 274 274 274 274 274 274 273 273 273 274 273
279 278 277 275 274 274 274 273 272 271 271 272 273 271 271 269 269 270 274 275 273 272 272 271 272 273 274 273 274 275 274 274 273 273 273 273 273 273 273 273 273 273 273 273
276 274 272 272 272 271 272 273 271 270 270 270 269 269 270 271 271 272 271 274 275 269 273 275 274 269 271 268 274 274 274 273 273 273 273 273 272 272 272 272 271 272 272 272
274 273 272 271 272 271 271 270 270 270 270 269 269 272 276 276 277 276 275 274 276 272 276 276 270 268 268 272 274 274 273 273 273 272 272 272 272 272 272 271 272 272 271 271
274 274 273 272 272 272 271 271 272 272 272 273 272 272 276 277 277 278 277 272 271 272 275 274 272 269 266 273 273 273 272 272 272 272 272 271 272 272 272 271 271 272 271 271
274 273 273 273 274 274 274 274 275 275 274 275 275 274 274 277 277 277 277 277 270 272 276 268 268 268 272 273 272 271 271 271 271 270 270 270 270 270 271 271 271 271 271 271
275 276 276 276 276 276 276 276 276 276 277 277 276 277 277 277 277 276 275 274 273 272 272 272 270 270 271 270 270 269 269 269 269 269 268 269 269 268 269 269 269 270 270 270
277 276 276 276 277 277 278 278 278 277 277 277 275 276 276 275 274 273 272 272 272 271 270 269 269 267 266 267 268 267 267 267 266 265 266 266 266 266 266 266 266 267 267 268

GFSNGP_sfc_thetae_111.txt.gz
Theta_e
286 286 285 284 284 285 284 285 281 283 284 287 290 291 292 293 293 292 290 289 289 288 288 289 287 286 287 285 284 285 284 285 284 287 288 290 291 292 293 295 296 300 310 311
282 285 285 282 284 284 284 285 285 285 284 291 292 294 292 290 290 288 287 286 286 286 286 285 285 285 286 286 284 285 284 284 285 285 286 287 288 288 288 289 289 291 290 292
277 282 281 278 282 283 285 286 286 281 286 292 291 290 289 287 287 284 284 284 284 284 284 284 284 285 284 286 286 284 284 284 284 285 284 284 286 285 285 285 286 287 289 288
278 278 271 283 289 288 285 286 288 288 289 289 289 287 286 285 284 283 282 282 282 283 283 284 285 285 285 285 285 285 284 284 284 284 284 283 283 282 283 283 282 283 283 286
276 277 280 282 284 283 281 282 285 286 286 286 286 286 281 284 284 282 282 282 282 283 283 284 284 285 284 284 284 285 284 284 285 284 284 284 282 282 282 281 281 281 281 282
279 274 273 281 286 288 286 278 285 286 286 285 286 283 280 282 283 282 283 283 282 282 283 282 283 285 283 283 283 283 283 284 285 285 285 284 285 284 284 283 281 281 280 281
278 277 281 283 286 287 276 278 284 285 286 286 283 281 281 282 282 283 283 284 285 283 282 283 284 284 282 282 282 283 284 284 284 285 285 285 285 285 285 285 284 283 281 281
281 278 276 285 285 280 282 284 283 285 286 282 281 281 281 281 281 282 282 283 284 284 283 284 284 283 281 281 284 284 284 283 283 284 284 284 284 285 285 285 284 283 283 282
281 280 284 285 283 285 286 284 283 283 283 282 281 281 281 280 281 281 282 282 284 283 283 283 284 284 282 283 284 285 284 284 283 282 283 284 283 283 283 283 282 282 281 280
283 283 283 284 285 285 285 283 283 284 283 282 280 280 280 281 281 281 282 282 283 282 282 282 283 283 284 285 285 284 284 285 285 284 281 281 283 282 280 280 281 280 278 278
282 283 283 284 284 284 283 283 282 283 282 281 281 280 280 280 280 281 282 282 282 281 281 281 282 282 283 284 285 283 283 283 283 284 284 281 279 279 280 279 279 278 280 278
282 285 284 283 284 284 282 281 282 281 281 282 281 280 280 279 280 281 280 281 281 281 280 280 280 281 281 282 282 282 282 282 282 282 283 282 283 280 278 278 278 278 278 278
283 286 285 285 285 285 282 282 282 282 281 280 282 282 281 280 280 280 281 281 281 280 280 280 279 279 281 282 282 281 281 283 282 283 282 281 281 281 280 279 278 277 277 277
286 285 282 283 281 284 283 283 283 283 283 282 282 282 282 281 281 280 280 280 281 280 280 280 278 277 280 281 281 281 282 281 282 281 281 281 281 280 280 279 278 278 278 276
285 287 286 284 284 283 284 283 282 281 281 281 282 282 281 280 279 279 280 279 279 278 278 277 276 276 278 281 281 280 280 281 282 282 281 281 281 281 280 279 278 278 277 277
285 284 284 282 282 283 283 283 281 281 281 279 279 278 279 279 278 277 277 277 276 274 274 273 273 274 277 278 281 282 281 278 280 281 280 280 280 279 279 279 278 278 275 273
282 281 282 282 282 282 283 283 282 281 281 280 279 279 279 277 277 275 274 274 273 273 274 273 273 274 276 277 280 281 281 280 279 280 279 279 279 278 278 278 277 277 277 274
288 287 287 285 283 283 282 283 282 282 280 279 277 276 275 275 273 272 272 273 273 272 273 273 274 276 275 276 278 279 279 279 278 278 278 278 277 278 278 277 277 276 276 276
287 286 286 285 285 283 282 281 281 280 276 275 274 273 273 272 273 273 274 273 274 275 273 274 275 276 275 274 276 278 278 277 277 277 276 276 277 277 276 276 276 276 276 275
286 286 286 284 284 282 280 279 278 276 275 275 274 273 272 271 272 273 274 273 273 274 274 274 276 275 275 275 276 278 277 277 276 276 276 275 276 275 276 275 275 275 275 275
282 282 281 280 279 279 278 278 275 274 274 274 275 273 273 272 273 274 275 277 274 274 274 274 275 275 275 274 276 277 276 276 276 275 275 275 274 274 274 274 274 274 274 274
280 278 277 276 276 275 276 276 275 274 274 274 273 272 272 273 273 274 274 276 276 272 276 277 276 271 273 271 276 276 275 275 275 275 274 274 274 273 273 274 273 273 274 273
278 277 276 275 275 276 275 274 273 273 273 272 272 274 278 278 279 279 277 276 278 274 277 276 272 271 271 275 275 275 274 274 274 274 274 274 273 273 273 273 273 273 272 272
277 277 277 277 275 275 273 274 275 275 274 275 275 276 278 278 278 279 278 275 274 274 275 274 272 271 269 275 274 274 273 273 273 273 272 271 272 272 272 272 272 272 272 273
278 277 276 276 276 276 276 276 277 277 277 277 277 277 277 279 279 279 278 277 274 275 275 271 271 271 273 273 272 271 271 271 271 270 270 269 269 270 270 270 270 270 270 271
278 278 279 279 279 278 278 278 278 279 279 278 278 279 278 278 278 278 276 275 275 274 273 273 271 270 270 270 269 269 269 269 269 268 267 267 267 267 267 267 267 267 268 268
280 279 279 279 279 280 280 280 280 279 280 280 277 277 277 277 275 275 274 274 273 272 272 271 270 269 268 267 268 267 267 267 266 265 265 264 264 264 264 264 264 265 265 265

GFSNGP_sfc_thetae_114.txt.gz
Theta_e
286 287 286 285 284 285 284 285 281 284 284 288 290 291 292 293 292 291 288 288 287 286 286 285 285 285 286 286 287 286 285 285 285 286 286 287 287 288 288 288 291 293 293 295
282 285 285 282 284 284 284 284 284 285 284 291 292 294 293 291 290 287 285 285 285 285 284 283 284 284 285 285 285 286 286 285 285 285 285 284 285 285 285 286 285 287 289 291
277 283 282 278 282 283 284 286 285 281 287 290 290 288 286 287 285 284 283 283 282 283 283 283 283 284 283 284 285 285 285 285 285 285 284 283 283 282 282 282 284 283 284 287
279 279 271 282 289 288 285 286 288 288 288 289 286 284 284 284 283 281 281 281 281 282 282 283 284 284 284 284 284 284 284 284 285 285 284 284 283 282 281 281 281 281 282 283
276 276 280 282 284 283 280 281 288 286 288 287 286 284 281 283 283 282 281 281 282 282 283 283 283 284 284 283 283 283 283 283 284 284 284 284 284 283 283 282 281 281 281 281
279 274 272 281 285 288 287 277 285 285 286 285 286 280 277 282 283 282 283 283 281 282 282 282 282 283 283 282 282 281 282 282 284 283 283 283 283 284 284 284 282 282 282 282
279 277 280 284 286 288 276 277 283 284 285 287 281 281 281 282 282 283 284 284 284 283 282 283 283 283 281 281 281 283 282 282 282 283 282 282 283 283 283 283 282 281 280 281
280 277 275 285 285 280 281 284 284 285 284 281 281 281 281 281 281 282 282 283 283 283 283 283 284 282 280 280 282 284 283 281 279 280 282 281 280 280 282 280 280 279 279 278
280 279 283 284 283 285 286 284 283 283 283 282 280 280 280 280 281 281 281 282 283 282 282 283 283 283 281 281 283 283 283 283 281 279 278 280 278 277 278 279 277 277 277 276
283 282 282 284 284 285 285 283 284 284 283 282 279 280 280 280 281 281 281 281 282 281 280 280 282 282 282 283 284 283 282 282 283 282 279 278 278 277 276 275 276 276 275 275
282 282 283 283 284 283 283 283 282 283 282 281 281 280 280 280 281 281 281 281 281 280 279 279 280 281 282 282 283 282 282 281 282 282 281 278 277 276 276 276 276 274 275 275
281 285 284 282 284 284 282 281 282 281 281 282 281 280 280 279 280 281 281 281 280 280 279 278 279 279 280 282 282 281 280 281 281 281 281 281 280 277 279 279 279 278 278 277
284 286 286 285 285 285 282 282 282 282 282 280 281 281 280 279 280 281 281 280 279 279 278 278 278 278 280 280 279 279 279 281 280 280 280 279 279 278 277 279 280 279 279 279
287 285 282 283 282 284 283 283 284 283 283 283 282 282 281 280 281 279 279 279 279 278 278 277 276 275 278 281 280 278 280 280 280 280 280 279 279 278 278 277 275 274 276 277
286 287 285 285 284 283 284 283 282 281 282 282 283 282 281 279 278 278 279 278 277 275 275 274 274 274 276 277 281 278 279 279 280 280 279 279 279 278 278 277 276 274 273 273
285 284 284 282 282 283 283 282 281 281 281 280 279 280 280 279 277 275 275 275 274 272 272 270 272 272 274 275 278 280 279 276 277 279 278 277 278 277 277 276 275 275 272 271
282 281 282 281 282 282 283 283 282 281 280 279 278 279 278 277 276 274 274 273 272 271 272 271 271 270 272 274 276 279 279 278 275 278 277 277 277 276 276 275 275 274 273 270
287 286 286 285 284 283 283 283 282 282 281 279 276 275 273 273 272 271 271 271 270 269 271 271 271 273 272 274 276 278 277 277 277 276 275 275 275 276 275 274 274 273 273 273
288 287 287 285 285 284 283 282 280 277 275 275 274 273 272 272 272 272 272 270 271 272 271 272 275 275 275 274 276 277 277 276 276 276 275 273 274 274 274 273 273 273 273 273
287 287 286 284 284 282 279 277 276 275 276 274 273 272 271 270 270 271 272 271 271 273 274 274 276 275 274 275 273 276 276 275 274 274 274 274 273 273 273 271 272 272 272 272
284 283 282 280 279 279 279 277 275 274 275 274 274 272 272 271 271 272 274 274 273 274 274 273 273 273 274 271 274 275 275 274 273 273 273 273 272 272 272 272 272 271 271 270
280 279 278 278 277 276 277 276 275 274 275 273 272 271 270 272 271 273 271 275 275 269 276 275 273 268 271 268 275 274 274 273 273 273 272 272 271 270 270 271 270 271 271 271
279 278 277 277 276 276 276 275 274 274 272 271 271 273 276 277 279 277 273 276 276 272 276 274 269 267 267 273 274 273 272 271 271 271 270 270 269 269 269 269 269 270 270 270
278 278 277 278 277 275 273 274 274 274 273 274 274 273 277 278 278 278 276 272 271 272 272 271 269 268 267 273 272 271 270 270 269 269 268 267 267 267 267 267 267 267 266 267
278 278 277 276 276 276 275 275 276 275 276 276 276 277 278 279 278 277 277 275 273 274 272 269 267 267 270 270 268 268 268 268 267 267 265 265 265 265 265 264 264 264 264 264
278 278 278 279 279 277 278 278 277 278 278 277 278 278 278 278 277 276 275 273 273 271 272 271 270 269 268 267 267 266 266 266 265 264 263 263 263 262 262 262 261 261 261 262
280 280 280 279 279 280 280 280 279 279 280 279 277 278 277 276 275 274 272 273 272 270 270 270 269 267 266 265 265 265 264 264 262 261 262 261 260 260 259 259 259 259 260 261

GFSNGP_sfc_thetae_117.txt.gz
Theta_e
286 287 287 285 284 284 283 283 279 281 283 286 289 288 288 289 287 285 284 284 284 283 283 283 283 283 283 284 285 286 285 285 285 286 286 285 284 285 285 286 287 287 289 291
280 284 284 282 283 283 284 284 283 283 282 289 289 288 286 286 284 283 283 282 282 282 282 282 283 283 283 283 284 285 284 284 285 285 285 285 284 283 283 283 284 285 284 286
275 281 280 275 280 283 283 286 285 274 283 286 282 282 283 282 282 281 281 281 280 281 281 282 282 283 282 283 284 283 283 284 284 285 284 285 284 283 282 282 282 282 283 284
277 277 270 281 287 285 284 284 286 286 284 282 281 281 281 282 280 279 280 279 278 279 280 281 282 283 284 284 283 282 282 282 283 283 283 283 284 283 282 282 281 282 282 282
273 273 278 281 281 278 276 278 283 283 284 282 281 280 279 282 281 280 278 278 279 281 281 281 281 283 283 282 281 280 279 280 281 281 281 282 281 282 282 281 280 280 281 282
275 271 264 278 284 288 285 272 282 282 283 283 282 275 274 281 282 281 280 280 280 281 282 281 282 283 282 281 282 280 278 278 280 280 279 279 280 280 281 281 280 280 279 280
274 271 276 283 284 287 272 271 282 283 282 285 279 278 278 280 281 282 283 282 283 282 281 282 283 282 280 280 280 281 281 279 278 279 278 277 278 279 278 278 278 278 278 278
272 270 271 283 283 278 280 283 281 282 281 279 279 279 279 280 281 281 281 282 282 281 281 281 282 281 279 279 281 281 279 278 278 277 278 276 275 276 277 276 276 276 276 276
276 274 282 284 282 285 285 282 282 281 281 280 279 278 279 279 280 281 281 281 282 281 280 281 281 281 278 279 280 280 281 280 277 277 277 277 274 274 274 275 274 274 274 274
279 281 282 282 284 284 283 282 283 283 282 281 278 279 278 279 280 280 281 280 280 280 278 278 280 280 280 280 281 280 280 280 280 278 276 276 276 275 274 274 273 273 274 274
279 282 282 283 283 282 282 282 282 282 281 280 280 279 279 279 280 280 280 280 279 278 277 277 278 278 279 280 281 280 279 279 279 279 278 276 276 275 275 276 277 274 273 275
277 282 282 281 283 283 281 281 281 281 280 281 280 279 279 279 280 280 279 279 277 277 276 276 277 277 278 279 279 279 279 278 278 278 278 278 276 275 281 279 279 279 280 278
283 285 282 283 284 283 281 282 282 281 281 279 280 280 280 279 280 280 278 277 276 276 276 275 275 275 276 277 276 275 274 275 276 276 276 275 274 274 273 274 277 278 279 279
285 283 281 282 281 283 283 283 283 282 282 281 281 281 280 279 278 277 276 276 275 275 274 274 274 273 275 276 278 275 276 275 274 275 273 273 272 274 274 272 270 270 275 277
284 285 283 283 283 282 283 282 281 280 281 281 281 279 278 277 274 273 275 275 274 273 272 272 272 271 272 274 276 273 276 274 273 272 273 273 274 274 273 273 270 269 270 271
284 283 282 281 281 281 282 281 280 279 279 277 278 277 275 274 273 273 273 273 272 270 270 267 269 268 269 270 273 275 272 272 272 273 273 274 273 273 273 272 271 269 268 266
281 280 281 280 280 280 281 281 280 279 278 278 277 277 275 274 273 272 271 271 268 266 265 265 265 266 266 267 271 273 273 273 270 273 273 273 272 272 272 270 269 270 267 262
284 283 283 282 281 281 281 281 280 280 278 276 274 273 272 270 269 268 266 263 263 263 262 263 263 266 267 270 273 275 274 274 274 273 273 271 271 273 270 269 269 268 266 268
286 284 283 283 283 282 281 278 276 275 274 273 271 269 268 268 266 264 263 265 261 262 264 265 273 270 271 273 272 273 272 270 272 272 271 269 268 269 267 266 264 263 264 265
283 282 282 281 281 278 275 274 274 273 272 272 271 269 268 266 265 266 266 266 266 267 267 270 272 272 272 272 268 272 270 268 271 269 267 267 265 264 265 265 266 264 262 262
279 279 278 277 276 275 274 274 273 272 271 271 270 268 267 265 266 268 268 268 267 268 272 270 270 270 271 268 270 266 267 266 266 266 264 263 261 263 263 263 266 266 267 265
279 277 277 276 275 274 274 274 273 272 271 270 269 268 267 267 264 265 264 270 271 267 272 271 269 263 266 265 271 267 267 266 265 266 266 264 263 264 265 264 263 265 265 266
276 276 275 275 274 273 273 273 272 272 270 270 268 267 269 272 273 270 269 273 273 271 271 265 263 263 263 269 265 263 263 262 261 261 262 258 258 260 262 263 263 263 262 263
276 275 275 275 273 273 272 272 274 272 269 269 267 265 273 272 270 273 271 266 265 265 264 261 263 265 265 264 261 261 260 258 260 261 258 256 255 256 260 260 260 260 259 259
277 276 275 275 274 274 274 274 274 274 274 275 275 277 276 276 272 273 271 268 270 267 264 262 262 261 260 258 258 258 257 261 259 255 253 255 258 255 256 256 253 254 253 254
277 276 276 277 276 275 274 274 273 273 274 271 272 272 272 273 272 271 268 267 266 264 263 260 261 257 257 258 257 256 256 259 253 254 252 255 251 252 254 252 251 253 254 252
278 276 277 276 275 276 275 275 273 273 274 274 273 272 272 270 269 269 267 266 263 261 261 260 259 258 257 255 254 253 253 254 252 253 252 249 248 250 250 250 253 254 256 255

GFSNGP_sfc_thetae_120.txt.gz
Theta_e
285 287 287 285 285 285 283 283 279 281 281 284 286 285 285 285 285 283 282 282 282 281 281 281 282 282 283 283 283 284 284 283 283 285 285 286 285 285 285 285 285 285 286 286
279 284 284 283 284 283 282 283 283 283 280 285 285 284 283 283 283 281 281 281 281 281 281 281 281 282 282 282 282 283 282 282 282 283 284 284 284 284 283 282 283 284 284 284
275 281 279 276 279 281 282 285 284 276 283 283 281 283 281 279 280 280 280 279 279 279 279 280 280 281 281 281 282 281 281 281 281 281 281 282 282 282 281 281 281 281 282 284
277 277 270 280 286 285 282 282 284 284 283 282 282 281 281 281 280 279 279 278 278 278 278 279 280 281 282 282 280 279 278 279 280 279 278 280 280 280 280 280 279 279 280 282
273 273 277 281 281 277 277 278 281 284 280 280 279 279 278 281 280 277 276 277 277 277 276 279 280 281 281 282 282 279 277 277 277 278 276 277 277 278 278 278 278 279 279 280
274 271 263 272 283 286 282 271 281 281 283 280 278 272 274 281 279 277 275 275 276 279 281 282 282 282 281 281 281 279 278 277 277 277 275 275 275 276 277 277 277 278 278 279
272 270 275 281 282 286 272 272 280 281 280 283 279 276 278 279 280 278 276 280 282 281 280 280 281 281 279 279 278 279 279 278 277 277 276 275 275 275 275 276 276 277 277 278
271 267 269 281 282 278 278 279 280 278 280 280 278 278 278 279 280 280 280 282 281 280 279 280 280 279 278 278 279 280 279 277 277 276 277 276 275 275 275 274 275 276 276 277
276 272 278 281 278 283 285 282 281 278 279 280 278 278 278 279 279 280 280 280 280 279 279 279 280 280 277 278 279 279 279 278 275 276 276 276 275 275 275 275 274 274 275 276
278 278 280 282 283 283 280 280 280 281 280 280 277 278 278 279 279 279 280 279 279 278 277 277 278 279 279 280 280 279 279 279 279 278 276 277 276 275 275 275 275 274 274 275
279 281 282 282 282 282 281 280 281 281 280 278 278 277 279 279 279 279 279 279 278 277 276 276 277 277 278 279 280 279 278 278 278 278 278 275 276 275 275 276 277 276 274 274
273 281 280 279 283 282 280 279 280 280 279 280 280 278 279 278 279 279 277 277 276 276 275 275 276 275 276 278 279 278 278 277 276 277 276 276 275 274 278 278 279 279 280 277
280 283 281 282 283 282 281 281 281 280 280 278 280 279 279 278 279 278 277 276 275 274 274 275 274 274 275 276 275 273 272 275 275 274 274 273 273 271 270 273 276 277 278 278
284 283 280 280 279 282 282 282 283 281 281 280 280 280 280 278 277 275 274 274 274 274 274 274 274 272 273 276 277 275 275 273 273 273 272 272 272 272 271 270 269 269 274 276
284 284 281 282 282 282 283 282 280 280 280 280 280 279 277 275 274 273 274 274 273 273 272 272 272 270 271 274 274 272 275 273 271 271 272 272 272 272 271 270 268 267 269 270
283 281 280 280 280 281 281 281 279 279 280 279 278 276 275 274 274 273 273 273 271 270 269 264 268 266 267 271 274 273 271 271 271 272 271 271 271 271 270 270 269 268 268 268
280 279 279 279 279 280 280 281 280 279 278 277 275 275 274 273 272 271 271 270 268 264 263 263 262 265 268 269 272 272 271 272 268 271 271 271 270 269 269 267 267 267 264 261
282 282 281 281 280 280 280 279 279 279 278 277 275 274 272 271 269 268 267 264 263 263 263 261 262 267 268 269 272 273 271 272 272 271 271 269 270 270 268 267 268 267 265 265
282 281 281 281 281 281 280 279 277 276 274 274 273 270 269 269 268 267 265 264 261 265 265 264 273 269 270 271 271 271 270 268 270 270 270 266 266 267 266 265 265 265 266 267
283 282 281 280 280 278 274 274 273 273 272 271 270 269 268 267 267 267 266 266 265 266 266 269 271 271 271 270 268 270 268 267 268 267 265 264 261 260 261 262 263 264 264 265
278 278 276 276 274 274 274 274 273 271 270 271 270 269 269 267 266 266 267 268 267 268 270 268 269 268 270 268 268 265 265 264 263 263 260 256 255 258 257 259 260 260 261 263
276 276 275 275 273 272 273 273 273 271 270 269 269 268 268 267 266 266 264 269 271 266 269 269 268 264 267 266 266 263 264 262 262 261 259 258 256 256 257 259 259 259 259 260
277 276 275 274 273 272 273 272 272 272 270 269 268 267 270 271 272 270 268 272 271 266 268 265 263 263 261 261 260 259 259 258 257 255 254 253 253 253 257 257 256 254 254 256
276 275 274 274 273 273 272 272 273 272 269 270 267 267 272 271 270 272 270 268 265 264 262 260 261 260 258 258 257 256 256 254 253 250 252 251 251 251 251 248 250 250 251 252
276 275 274 274 274 273 274 274 273 273 273 274 275 275 275 274 270 268 267 266 267 264 261 258 258 257 257 255 254 254 251 248 248 248 248 247 246 245 245 246 247 248 249 252
277 275 276 276 275 274 274 273 272 273 273 271 271 270 272 272 271 269 268 267 267 264 262 258 255 255 254 254 252 251 249 250 249 249 246 245 245 245 244 246 246 247 250 250
277 276 276 276 275 275 274 274 272 272 272 272 271 271 270 269 267 266 263 262 261 260 257 255 254 254 253 251 251 249 248 247 248 248 244 243 243 242 242 242 243 245 245 247

GFSNGP_sfc_thetae_123.txt.gz
Theta_e
284 286 287 285 285 286 283 283 279 281 281 282 285 285 283 283 283 282 281 281 281 281 281 281 281 282 282 282 282 282 281 280 280 281 281 282 282 282 282 282 282 283 283 285
280 284 285 283 284 284 285 285 283 282 280 283 284 284 283 283 282 281 280 280 281 280 280 280 281 280 280 279 280 279 279 279 279 280 280 280 280 280 280 281 281 281 281 283
278 281 280 275 281 283 284 284 282 275 281 283 281 281 280 280 281 280 280 279 279 279 280 280 280 281 277 276 277 277 276 277 277 278 278 278 279 278 278 278 279 279 280 282
278 278 270 279 284 284 282 281 283 283 282 281 282 281 280 279 280 280 279 278 278 279 279 277 275 276 278 277 277 276 275 275 276 276 276 276 276 276 277 277 277 278 279 280
274 274 277 279 280 276 276 277 281 281 280 281 280 279 278 280 280 275 273 275 277 278 274 274 277 280 280 280 279 277 276 275 276 275 274 274 274 274 276 276 277 278 279 279
274 271 264 273 283 285 281 271 280 282 280 279 279 274 271 279 277 276 276 277 278 278 278 279 280 281 280 279 279 277 276 276 276 276 275 274 274 274 275 276 277 278 278 278
274 271 275 281 282 284 271 272 280 280 281 281 277 275 277 278 275 276 279 280 281 280 278 279 280 280 278 278 277 278 278 277 276 276 276 275 275 276 275 275 276 277 277 277
273 270 270 282 282 277 276 278 279 277 275 281 279 278 278 277 277 278 280 281 280 279 279 280 280 279 277 277 278 279 277 277 276 276 276 276 275 276 276 275 274 275 276 276
277 275 278 280 277 280 281 279 280 278 276 280 278 278 278 278 279 280 280 279 280 278 278 278 279 279 277 277 279 278 278 277 275 276 277 275 274 275 276 276 273 273 274 274
279 278 278 280 281 281 280 280 277 278 277 277 276 277 278 278 279 279 279 278 279 278 277 276 278 278 279 279 279 278 278 278 278 277 276 275 275 275 275 275 274 273 272 273
279 280 281 281 282 282 281 281 280 278 277 276 277 277 277 278 278 279 278 278 278 277 276 276 276 277 277 278 279 278 278 277 277 277 276 275 274 274 275 276 277 274 272 272
275 282 280 280 281 281 280 279 278 277 277 278 279 277 278 277 278 278 277 277 276 276 275 275 275 275 276 277 277 277 276 276 275 275 274 274 273 272 277 277 278 278 277 276
279 282 280 281 282 281 279 280 278 278 279 277 279 279 279 278 278 278 276 276 275 274 275 274 274 274 275 276 275 273 271 273 273 273 272 271 271 269 268 271 276 276 276 277
282 282 280 279 277 280 280 280 282 280 280 280 279 280 279 278 277 276 275 274 274 274 274 274 274 272 274 276 276 273 273 272 272 271 270 270 268 270 270 269 268 268 273 274
284 283 281 280 280 280 281 280 279 278 279 279 280 278 277 275 274 274 274 274 274 273 272 272 272 270 271 274 273 271 274 271 270 268 269 270 270 269 269 268 267 266 268 269
282 280 280 280 280 281 280 280 279 278 279 279 277 276 276 275 274 273 273 273 271 269 269 266 268 265 267 270 273 272 271 270 269 270 269 269 269 269 269 268 268 266 266 264
280 278 278 278 279 279 279 280 280 280 279 277 277 276 275 274 272 271 271 270 268 266 264 266 263 263 267 268 271 270 270 271 268 270 270 269 269 268 268 267 266 267 267 264
281 281 281 280 279 279 279 280 280 280 278 277 276 274 272 271 270 268 266 266 266 266 265 262 263 266 268 269 271 271 270 271 270 269 268 266 267 267 265 265 265 264 265 266
281 280 280 280 280 280 279 279 278 277 276 275 273 271 270 269 268 266 265 266 264 265 263 263 273 269 270 270 270 269 268 267 267 266 266 263 262 263 262 262 262 261 262 263
280 280 280 280 280 279 276 275 275 273 273 272 270 269 268 268 268 266 267 266 265 265 265 269 271 270 270 268 267 268 266 265 266 263 260 260 257 256 258 259 259 258 260 260
279 278 276 275 274 274 275 274 273 272 271 271 270 270 269 269 268 267 268 268 267 268 269 268 268 268 268 266 265 261 261 259 258 258 255 253 254 256 256 255 256 255 255 256
273 274 274 274 274 273 273 274 273 272 271 271 271 270 269 268 267 267 265 269 270 265 268 268 266 261 264 263 263 259 260 259 258 257 254 254 252 251 252 252 251 250 250 251
275 275 274 273 273 273 273 273 273 272 271 270 270 270 270 270 271 269 268 270 269 266 267 264 260 259 258 259 257 255 254 253 253 251 250 249 248 248 247 247 247 246 248 249
275 276 274 274 274 273 272 272 273 272 270 270 270 270 272 271 269 271 271 266 264 263 261 259 259 258 256 255 254 252 251 249 248 247 249 247 244 243 244 242 245 245 246 248
275 275 274 274 274 274 274 274 273 272 272 272 272 272 274 273 268 268 267 265 266 263 260 257 257 255 253 251 251 249 247 246 244 246 244 243 242 241 240 241 241 242 245 244
276 275 275 277 276 275 275 274 272 273 274 271 271 271 271 270 269 268 266 265 263 261 258 255 253 252 251 250 248 246 246 249 247 245 243 242 241 242 240 241 240 241 241 243
276 276 276 276 275 275 274 273 273 273 273 271 269 269 269 268 267 266 264 262 260 258 255 252 252 252 250 248 247 246 245 245 245 245 241 241 240 239 239 239 239 239 241 241